Wetterdaten: Dienstag, 05.12.2023
Datum Zeit Temp. I. Temp. A. Feuchte I. Feuchte A. Luftdruck Regen Wind Richtung Richtung Sonnenschein Solar Taupunkt Windchill Windböen
05.12.2023 00:00 22,2 °C -0,8 °C 45 % 85 % 1009,3 hPa 0,0 l/m² 11,6 km/h (2 Bft) O-NO 78 ° 0 min 0 W/m² -3,0 °C -5,6 °C 14,5 km/h (3 Bft)
05.12.2023 00:01 22,2 °C -0,8 °C 45 % 85 % 1009,3 hPa 0,0 l/m² 6,7 km/h (2 Bft) O 87 ° 0 min 0 W/m² -3,0 °C -1,1 °C 8,0 km/h (2 Bft)
05.12.2023 00:02 22,2 °C -0,8 °C 45 % 85 % 1009,3 hPa 0,0 l/m² 9,5 km/h (2 Bft) O-NO 65 ° 0 min 0 W/m² -3,0 °C -3,9 °C 12,9 km/h (3 Bft)
05.12.2023 00:03 22,2 °C -0,8 °C 45 % 85 % 1009,3 hPa 0,0 l/m² 8,9 km/h (2 Bft) O-NO 71 ° 0 min 0 W/m² -3,0 °C -3,4 °C 12,9 km/h (3 Bft)
05.12.2023 00:04 22,2 °C -0,8 °C 45 % 85 % 1009,3 hPa 0,0 l/m² 9,2 km/h (2 Bft) NO 52 ° 0 min 0 W/m² -3,0 °C -3,6 °C 14,5 km/h (3 Bft)
05.12.2023 00:05 22,2 °C -0,8 °C 45 % 85 % 1009,2 hPa 0,0 l/m² 10,7 km/h (2 Bft) O-NO 70 ° 0 min 0 W/m² -3,0 °C -4,9 °C 14,5 km/h (3 Bft)
05.12.2023 00:06 22,2 °C -0,9 °C 45 % 85 % 1009,2 hPa 0,0 l/m² 12,7 km/h (3 Bft) O-NO 74 ° 0 min 0 W/m² -3,1 °C -6,5 °C 16,1 km/h (3 Bft)
05.12.2023 00:07 22,2 °C -0,8 °C 45 % 85 % 1009,1 hPa 0,0 l/m² 9,5 km/h (2 Bft) O-NO 75 ° 0 min 0 W/m² -3,0 °C -3,9 °C 14,5 km/h (3 Bft)
05.12.2023 00:08 22,2 °C -0,9 °C 45 % 85 % 1009,2 hPa 0,0 l/m² 10,1 km/h (2 Bft) O 92 ° 0 min 0 W/m² -3,1 °C -4,5 °C 12,9 km/h (3 Bft)
05.12.2023 00:09 22,2 °C -0,9 °C 45 % 85 % 1009,1 hPa 0,0 l/m² 9,9 km/h (2 Bft) O-NO 73 ° 0 min 0 W/m² -3,1 °C -4,4 °C 12,9 km/h (3 Bft)
05.12.2023 00:10 22,2 °C -0,9 °C 45 % 85 % 1009,2 hPa 0,0 l/m² 8,2 km/h (2 Bft) O 84 ° 0 min 0 W/m² -3,1 °C -2,8 °C 11,3 km/h (2 Bft)
05.12.2023 00:12 22,2 °C -0,9 °C 45 % 85 % 1009,1 hPa 0,0 l/m² 8,9 km/h (2 Bft) O-NO 72 ° 0 min 0 W/m² -3,1 °C -3,5 °C 12,9 km/h (3 Bft)
05.12.2023 00:14 22,2 °C -0,8 °C 45 % 85 % 1009,2 hPa 0,0 l/m² 10,8 km/h (2 Bft) O-NO 76 ° 0 min 0 W/m² -3,0 °C -5,0 °C 14,5 km/h (3 Bft)
05.12.2023 00:15 22,2 °C -0,9 °C 45 % 85 % 1009,2 hPa 0,0 l/m² 9,4 km/h (2 Bft) O 89 ° 0 min 0 W/m² -3,1 °C -3,9 °C 11,3 km/h (2 Bft)
05.12.2023 00:17 22,2 °C -0,9 °C 45 % 85 % 1009,1 hPa 0,0 l/m² 9,8 km/h (2 Bft) O-NO 76 ° 0 min 0 W/m² -3,1 °C -4,3 °C 14,5 km/h (3 Bft)
05.12.2023 00:18 22,2 °C -0,9 °C 45 % 85 % 1009,2 hPa 0,0 l/m² 12,4 km/h (2 Bft) O-NO 71 ° 0 min 0 W/m² -3,1 °C -6,3 °C 14,5 km/h (3 Bft)
05.12.2023 00:19 22,2 °C -0,9 °C 45 % 85 % 1009,1 hPa 0,0 l/m² 11,7 km/h (2 Bft) O 88 ° 0 min 0 W/m² -3,1 °C -5,8 °C 14,5 km/h (3 Bft)
05.12.2023 00:21 22,2 °C -0,9 °C 45 % 85 % 1009,1 hPa 0,0 l/m² 11,0 km/h (2 Bft) O-NO 62 ° 0 min 0 W/m² -3,1 °C -5,3 °C 14,5 km/h (3 Bft)
05.12.2023 00:23 22,2 °C -0,9 °C 45 % 85 % 1009,0 hPa 0,0 l/m² 10,2 km/h (2 Bft) O-NO 78 ° 0 min 0 W/m² -3,1 °C -4,6 °C 12,9 km/h (3 Bft)
05.12.2023 00:24 22,2 °C -0,9 °C 45 % 85 % 1009,1 hPa 0,0 l/m² 11,1 km/h (2 Bft) O 84 ° 0 min 0 W/m² -3,1 °C -5,3 °C 12,9 km/h (3 Bft)
05.12.2023 00:25 22,2 °C -0,9 °C 45 % 86 % 1009,0 hPa 0,0 l/m² 10,5 km/h (2 Bft) O 82 ° 0 min 0 W/m² -2,9 °C -4,9 °C 12,9 km/h (3 Bft)
05.12.2023 00:26 22,2 °C -0,9 °C 45 % 86 % 1009,1 hPa 0,0 l/m² 11,1 km/h (2 Bft) O-NO 74 ° 0 min 0 W/m² -2,9 °C -5,3 °C 14,5 km/h (3 Bft)
05.12.2023 00:27 22,2 °C -0,9 °C 45 % 86 % 1009,0 hPa 0,0 l/m² 10,5 km/h (2 Bft) O-NO 67 ° 0 min 0 W/m² -2,9 °C -4,9 °C 14,5 km/h (3 Bft)
05.12.2023 00:28 22,2 °C -0,9 °C 45 % 86 % 1009,0 hPa 0,0 l/m² 11,9 km/h (2 Bft) O 85 ° 0 min 0 W/m² -2,9 °C -6,0 °C 16,1 km/h (3 Bft)
05.12.2023 00:29 22,2 °C -0,9 °C 45 % 86 % 1009,0 hPa 0,0 l/m² 10,9 km/h (2 Bft) O-NO 77 ° 0 min 0 W/m² -2,9 °C -5,2 °C 14,5 km/h (3 Bft)
05.12.2023 00:30 22,2 °C -0,9 °C 45 % 86 % 1008,9 hPa 0,0 l/m² 11,4 km/h (2 Bft) O-NO 72 ° 0 min 0 W/m² -2,9 °C -5,6 °C 16,1 km/h (3 Bft)
05.12.2023 00:32 22,2 °C -1,0 °C 45 % 86 % 1008,9 hPa 0,0 l/m² 9,1 km/h (2 Bft) O 82 ° 0 min 0 W/m² -3,0 °C -3,8 °C 12,9 km/h (3 Bft)
05.12.2023 00:33 22,2 °C -0,9 °C 45 % 86 % 1008,8 hPa 0,0 l/m² 8,5 km/h (2 Bft) O 80 ° 0 min 0 W/m² -2,9 °C -3,1 °C 11,3 km/h (2 Bft)
05.12.2023 00:34 22,2 °C -0,9 °C 45 % 86 % 1008,8 hPa 0,0 l/m² 9,7 km/h (2 Bft) O-NO 78 ° 0 min 0 W/m² -2,9 °C -4,2 °C 11,3 km/h (2 Bft)
05.12.2023 00:35 22,2 °C -0,9 °C 45 % 86 % 1008,8 hPa 0,0 l/m² 10,9 km/h (2 Bft) O-NO 78 ° 0 min 0 W/m² -2,9 °C -5,2 °C 12,9 km/h (3 Bft)
05.12.2023 00:36 22,2 °C -0,9 °C 45 % 86 % 1008,8 hPa 0,0 l/m² 13,4 km/h (3 Bft) O-NO 76 ° 0 min 0 W/m² -2,9 °C -7,0 °C 16,1 km/h (3 Bft)
05.12.2023 00:37 22,2 °C -0,9 °C 45 % 86 % 1008,7 hPa 0,0 l/m² 11,5 km/h (2 Bft) O-NO 77 ° 0 min 0 W/m² -2,9 °C -5,7 °C 12,9 km/h (3 Bft)
05.12.2023 00:38 22,2 °C -0,9 °C 45 % 86 % 1008,7 hPa 0,0 l/m² 9,7 km/h (2 Bft) O 79 ° 0 min 0 W/m² -2,9 °C -4,2 °C 12,9 km/h (3 Bft)
05.12.2023 00:39 22,2 °C -1,0 °C 45 % 86 % 1008,7 hPa 0,0 l/m² 11,7 km/h (2 Bft) O-NO 71 ° 0 min 0 W/m² -3,0 °C -5,9 °C 14,5 km/h (3 Bft)
05.12.2023 00:41 22,2 °C -0,9 °C 45 % 86 % 1008,7 hPa 0,0 l/m² 10,5 km/h (2 Bft) O 82 ° 0 min 0 W/m² -2,9 °C -4,9 °C 12,9 km/h (3 Bft)
05.12.2023 00:43 22,2 °C -1,0 °C 45 % 86 % 1008,7 hPa 0,0 l/m² 11,1 km/h (2 Bft) O 88 ° 0 min 0 W/m² -3,0 °C -5,5 °C 12,9 km/h (3 Bft)
05.12.2023 00:45 22,2 °C -1,0 °C 45 % 86 % 1008,6 hPa 0,0 l/m² 10,7 km/h (2 Bft) O-NO 74 ° 0 min 0 W/m² -3,0 °C -5,1 °C 14,5 km/h (3 Bft)
05.12.2023 00:46 22,2 °C -1,0 °C 45 % 86 % 1008,7 hPa 0,0 l/m² 11,5 km/h (2 Bft) O 88 ° 0 min 0 W/m² -3,0 °C -5,8 °C 14,5 km/h (3 Bft)
05.12.2023 00:47 22,2 °C -1,0 °C 45 % 86 % 1008,6 hPa 0,0 l/m² 10,2 km/h (2 Bft) O 82 ° 0 min 0 W/m² -3,0 °C -4,7 °C 12,9 km/h (3 Bft)
05.12.2023 00:48 22,2 °C -1,0 °C 45 % 86 % 1008,7 hPa 0,0 l/m² 11,3 km/h (2 Bft) O 91 ° 0 min 0 W/m² -3,0 °C -5,6 °C 12,9 km/h (3 Bft)
05.12.2023 00:49 22,2 °C -1,0 °C 45 % 86 % 1008,7 hPa 0,0 l/m² 8,9 km/h (2 Bft) O 82 ° 0 min 0 W/m² -3,0 °C -3,6 °C 12,9 km/h (3 Bft)
05.12.2023 00:50 22,2 °C -1,0 °C 45 % 86 % 1008,6 hPa 0,0 l/m² 10,9 km/h (2 Bft) O 90 ° 0 min 0 W/m² -3,0 °C -5,3 °C 14,5 km/h (3 Bft)
05.12.2023 00:52 22,2 °C -1,1 °C 45 % 86 % 1008,6 hPa 0,0 l/m² 8,2 km/h (2 Bft) O 88 ° 0 min 0 W/m² -3,1 °C -3,0 °C 11,3 km/h (2 Bft)
05.12.2023 00:53 22,2 °C -1,1 °C 45 % 86 % 1008,6 hPa 0,0 l/m² 8,9 km/h (2 Bft) O 90 ° 0 min 0 W/m² -3,1 °C -3,7 °C 12,9 km/h (3 Bft)
05.12.2023 00:54 22,2 °C -1,1 °C 45 % 86 % 1008,6 hPa 0,0 l/m² 9,7 km/h (2 Bft) O 83 ° 0 min 0 W/m² -3,1 °C -4,4 °C 11,3 km/h (2 Bft)
05.12.2023 00:55 22,2 °C -1,1 °C 45 % 86 % 1008,6 hPa 0,0 l/m² 11,5 km/h (2 Bft) O 88 ° 0 min 0 W/m² -3,1 °C -5,9 °C 16,1 km/h (3 Bft)
05.12.2023 00:56 22,2 °C -1,1 °C 45 % 86 % 1008,6 hPa 0,0 l/m² 6,9 km/h (2 Bft) O 97 ° 0 min 0 W/m² -3,1 °C -1,6 °C 11,3 km/h (2 Bft)
05.12.2023 00:57 22,2 °C -1,1 °C 45 % 86 % 1008,6 hPa 0,0 l/m² 9,6 km/h (2 Bft) O 88 ° 0 min 0 W/m² -3,1 °C -4,3 °C 12,9 km/h (3 Bft)
05.12.2023 00:58 22,2 °C -1,1 °C 45 % 86 % 1008,5 hPa 0,0 l/m² 10,8 km/h (2 Bft) O 92 ° 0 min 0 W/m² -3,1 °C -5,3 °C 12,9 km/h (3 Bft)
05.12.2023 00:59 22,2 °C -1,1 °C 45 % 86 % 1008,5 hPa 0,0 l/m² 10,6 km/h (2 Bft) O 89 ° 0 min 0 W/m² -3,1 °C -5,2 °C 12,9 km/h (3 Bft)
05.12.2023 01:00 22,2 °C -1,1 °C 45 % 86 % 1008,5 hPa 0,0 l/m² 8,6 km/h (2 Bft) O 87 ° 0 min 0 W/m² -3,1 °C -3,4 °C 11,3 km/h (2 Bft)
05.12.2023 01:01 22,1 °C -1,1 °C 45 % 86 % 1008,5 hPa 0,0 l/m² 8,0 km/h (2 Bft) O-NO 70 ° 0 min 0 W/m² -3,1 °C -2,8 °C 11,3 km/h (2 Bft)
05.12.2023 01:02 22,2 °C -1,1 °C 45 % 86 % 1008,5 hPa 0,0 l/m² 8,5 km/h (2 Bft) O-NO 76 ° 0 min 0 W/m² -3,1 °C -3,3 °C 11,3 km/h (2 Bft)
05.12.2023 01:03 22,2 °C -1,1 °C 45 % 86 % 1008,5 hPa 0,0 l/m² 10,4 km/h (2 Bft) O 81 ° 0 min 0 W/m² -3,1 °C -5,0 °C 12,9 km/h (3 Bft)
05.12.2023 01:04 22,2 °C -1,1 °C 45 % 86 % 1008,5 hPa 0,0 l/m² 9,7 km/h (2 Bft) O 88 ° 0 min 0 W/m² -3,1 °C -4,4 °C 11,3 km/h (2 Bft)
05.12.2023 01:05 22,1 °C -1,1 °C 45 % 86 % 1008,4 hPa 0,0 l/m² 11,7 km/h (2 Bft) O 81 ° 0 min 0 W/m² -3,1 °C -6,0 °C 12,9 km/h (3 Bft)
05.12.2023 01:06 22,2 °C -1,1 °C 45 % 86 % 1008,4 hPa 0,0 l/m² 10,3 km/h (2 Bft) O 89 ° 0 min 0 W/m² -3,1 °C -4,9 °C 14,5 km/h (3 Bft)
05.12.2023 01:07 22,2 °C -1,2 °C 45 % 86 % 1008,4 hPa 0,0 l/m² 10,9 km/h (2 Bft) O 90 ° 0 min 0 W/m² -3,2 °C -5,5 °C 12,9 km/h (3 Bft)
05.12.2023 01:08 22,2 °C -1,2 °C 45 % 86 % 1008,5 hPa 0,0 l/m² 7,7 km/h (2 Bft) O-NO 67 ° 0 min 0 W/m² -3,2 °C -2,6 °C 11,3 km/h (2 Bft)
05.12.2023 01:09 22,2 °C -1,1 °C 45 % 86 % 1008,3 hPa 0,0 l/m² 11,1 km/h (2 Bft) O 84 ° 0 min 0 W/m² -3,1 °C -5,6 °C 12,9 km/h (3 Bft)
05.12.2023 01:11 22,2 °C -1,2 °C 45 % 86 % 1008,4 hPa 0,0 l/m² 9,8 km/h (2 Bft) O-NO 77 ° 0 min 0 W/m² -3,2 °C -4,6 °C 12,9 km/h (3 Bft)
05.12.2023 01:13 22,2 °C -1,2 °C 45 % 86 % 1008,3 hPa 0,0 l/m² 11,4 km/h (2 Bft) O 89 ° 0 min 0 W/m² -3,2 °C -5,9 °C 14,5 km/h (3 Bft)
05.12.2023 01:14 22,2 °C -1,2 °C 45 % 86 % 1008,3 hPa 0,0 l/m² 8,6 km/h (2 Bft) O 91 ° 0 min 0 W/m² -3,2 °C -3,5 °C 11,3 km/h (2 Bft)
05.12.2023 01:15 22,1 °C -1,2 °C 45 % 86 % 1008,3 hPa 0,0 l/m² 10,4 km/h (2 Bft) O 80 ° 0 min 0 W/m² -3,2 °C -5,1 °C 12,9 km/h (3 Bft)
05.12.2023 01:16 22,2 °C -1,2 °C 45 % 86 % 1008,4 hPa 0,0 l/m² 7,7 km/h (2 Bft) O 93 ° 0 min 0 W/m² -3,2 °C -2,6 °C 11,3 km/h (2 Bft)
05.12.2023 01:17 22,1 °C -1,2 °C 45 % 86 % 1008,5 hPa 0,0 l/m² 7,9 km/h (2 Bft) O 86 ° 0 min 0 W/m² -3,2 °C -2,8 °C 11,3 km/h (2 Bft)
05.12.2023 01:18 22,1 °C -1,2 °C 45 % 86 % 1008,4 hPa 0,0 l/m² 7,6 km/h (2 Bft) O 87 ° 0 min 0 W/m² -3,2 °C -2,5 °C 11,3 km/h (2 Bft)
05.12.2023 01:19 22,1 °C -1,2 °C 45 % 86 % 1008,3 hPa 0,0 l/m² 7,1 km/h (2 Bft) O 88 ° 0 min 0 W/m² -3,2 °C -2,0 °C 11,3 km/h (2 Bft)
05.12.2023 01:20 22,2 °C -1,2 °C 45 % 86 % 1008,4 hPa 0,0 l/m² 10,5 km/h (2 Bft) O 84 ° 0 min 0 W/m² -3,2 °C -5,2 °C 14,5 km/h (3 Bft)
05.12.2023 01:22 22,1 °C -1,3 °C 45 % 86 % 1008,4 hPa 0,0 l/m² 9,5 km/h (2 Bft) O 86 ° 0 min 0 W/m² -3,3 °C -4,4 °C 12,9 km/h (3 Bft)
05.12.2023 01:23 22,1 °C -1,3 °C 45 % 86 % 1008,4 hPa 0,0 l/m² 8,4 km/h (2 Bft) O 82 ° 0 min 0 W/m² -3,3 °C -3,4 °C 12,9 km/h (3 Bft)
05.12.2023 01:24 22,1 °C -1,3 °C 45 % 86 % 1008,5 hPa 0,0 l/m² 7,6 km/h (2 Bft) O-NO 63 ° 0 min 0 W/m² -3,3 °C -2,6 °C 9,7 km/h (2 Bft)
05.12.2023 01:25 22,1 °C -1,2 °C 45 % 86 % 1008,4 hPa 0,0 l/m² 8,1 km/h (2 Bft) O 80 ° 0 min 0 W/m² -3,2 °C -3,0 °C 11,3 km/h (2 Bft)
05.12.2023 01:26 22,1 °C -1,3 °C 45 % 86 % 1008,3 hPa 0,0 l/m² 9,2 km/h (2 Bft) O 80 ° 0 min 0 W/m² -3,3 °C -4,2 °C 11,3 km/h (2 Bft)
05.12.2023 01:27 22,1 °C -1,3 °C 45 % 86 % 1008,3 hPa 0,0 l/m² 9,4 km/h (2 Bft) O 80 ° 0 min 0 W/m² -3,3 °C -4,4 °C 11,3 km/h (2 Bft)
05.12.2023 01:28 22,2 °C -1,2 °C 45 % 86 % 1008,3 hPa 0,0 l/m² 7,9 km/h (2 Bft) O-NO 59 ° 0 min 0 W/m² -3,2 °C -2,8 °C 12,9 km/h (3 Bft)
05.12.2023 01:29 22,1 °C -1,3 °C 45 % 86 % 1008,2 hPa 0,0 l/m² 8,8 km/h (2 Bft) O-NO 77 ° 0 min 0 W/m² -3,3 °C -3,8 °C 11,3 km/h (2 Bft)
05.12.2023 01:31 22,1 °C -1,2 °C 45 % 86 % 1008,1 hPa 0,0 l/m² 8,6 km/h (2 Bft) O 80 ° 0 min 0 W/m² -3,2 °C -3,5 °C 12,9 km/h (3 Bft)
05.12.2023 01:33 22,1 °C -1,2 °C 45 % 86 % 1008,1 hPa 0,0 l/m² 8,5 km/h (2 Bft) O-NO 78 ° 0 min 0 W/m² -3,2 °C -3,4 °C 12,9 km/h (3 Bft)
05.12.2023 01:34 22,1 °C -1,2 °C 45 % 86 % 1008,1 hPa 0,0 l/m² 7,6 km/h (2 Bft) O 80 ° 0 min 0 W/m² -3,2 °C -2,5 °C 11,3 km/h (2 Bft)
05.12.2023 01:35 22,1 °C -1,2 °C 45 % 86 % 1008,1 hPa 0,0 l/m² 8,8 km/h (2 Bft) O-NO 67 ° 0 min 0 W/m² -3,2 °C -3,7 °C 11,3 km/h (2 Bft)
05.12.2023 01:36 22,1 °C -1,2 °C 45 % 86 % 1008,1 hPa 0,0 l/m² 8,1 km/h (2 Bft) O 88 ° 0 min 0 W/m² -3,2 °C -3,0 °C 11,3 km/h (2 Bft)
05.12.2023 01:37 22,1 °C -1,2 °C 45 % 86 % 1008,2 hPa 0,0 l/m² 9,2 km/h (2 Bft) O 89 ° 0 min 0 W/m² -3,2 °C -4,1 °C 12,9 km/h (3 Bft)
05.12.2023 01:38 22,1 °C -1,2 °C 45 % 86 % 1008,2 hPa 0,0 l/m² 9,7 km/h (2 Bft) O-NO 69 ° 0 min 0 W/m² -3,2 °C -4,5 °C 12,9 km/h (3 Bft)
05.12.2023 01:39 22,1 °C -1,2 °C 45 % 86 % 1008,1 hPa 0,0 l/m² 9,7 km/h (2 Bft) O 84 ° 0 min 0 W/m² -3,2 °C -4,5 °C 14,5 km/h (3 Bft)
05.12.2023 01:41 22,1 °C -1,2 °C 45 % 86 % 1008,1 hPa 0,0 l/m² 9,7 km/h (2 Bft) O-NO 70 ° 0 min 0 W/m² -3,2 °C -4,5 °C 14,5 km/h (3 Bft)
05.12.2023 01:43 22,1 °C -1,2 °C 45 % 86 % 1008,1 hPa 0,0 l/m² 9,9 km/h (2 Bft) O-NO 73 ° 0 min 0 W/m² -3,2 °C -4,7 °C 12,9 km/h (3 Bft)
05.12.2023 01:44 22,1 °C -1,2 °C 45 % 86 % 1008,1 hPa 0,0 l/m² 8,4 km/h (2 Bft) O-NO 74 ° 0 min 0 W/m² -3,2 °C -3,3 °C 12,9 km/h (3 Bft)
05.12.2023 01:45 22,1 °C -1,2 °C 45 % 86 % 1008,0 hPa 0,0 l/m² 8,4 km/h (2 Bft) O-NO 78 ° 0 min 0 W/m² -3,2 °C -3,3 °C 11,3 km/h (2 Bft)
05.12.2023 01:46 22,1 °C -1,2 °C 45 % 86 % 1008,0 hPa 0,0 l/m² 10,0 km/h (2 Bft) O 84 ° 0 min 0 W/m² -3,2 °C -4,8 °C 14,5 km/h (3 Bft)
05.12.2023 01:47 22,1 °C -1,2 °C 45 % 86 % 1008,0 hPa 0,0 l/m² 9,3 km/h (2 Bft) O 88 ° 0 min 0 W/m² -3,2 °C -4,2 °C 12,9 km/h (3 Bft)
05.12.2023 01:48 22,1 °C -1,2 °C 45 % 86 % 1008,0 hPa 0,0 l/m² 8,2 km/h (2 Bft) O 88 ° 0 min 0 W/m² -3,2 °C -3,1 °C 12,9 km/h (3 Bft)
05.12.2023 01:49 22,1 °C -1,2 °C 45 % 86 % 1008,1 hPa 0,0 l/m² 9,4 km/h (2 Bft) O 82 ° 0 min 0 W/m² -3,2 °C -4,2 °C 12,9 km/h (3 Bft)
05.12.2023 01:51 22,1 °C -1,2 °C 45 % 86 % 1008,0 hPa 0,0 l/m² 10,1 km/h (2 Bft) O 85 ° 0 min 0 W/m² -3,2 °C -4,9 °C 12,9 km/h (3 Bft)
05.12.2023 01:53 22,1 °C -1,1 °C 45 % 86 % 1008,1 hPa 0,0 l/m² 11,3 km/h (2 Bft) O 81 ° 0 min 0 W/m² -3,1 °C -5,7 °C 14,5 km/h (3 Bft)
05.12.2023 01:54 22,1 °C -1,1 °C 45 % 86 % 1008,0 hPa 0,0 l/m² 7,7 km/h (2 Bft) O 86 ° 0 min 0 W/m² -3,1 °C -2,5 °C 9,7 km/h (2 Bft)
05.12.2023 01:55 22,1 °C -1,1 °C 45 % 86 % 1008,1 hPa 0,0 l/m² 8,0 km/h (2 Bft) O 79 ° 0 min 0 W/m² -3,1 °C -2,8 °C 11,3 km/h (2 Bft)
05.12.2023 01:56 22,1 °C -1,1 °C 45 % 86 % 1008,1 hPa 0,0 l/m² 9,3 km/h (2 Bft) O-NO 60 ° 0 min 0 W/m² -3,1 °C -4,0 °C 12,9 km/h (3 Bft)
05.12.2023 01:57 22,1 °C -1,1 °C 45 % 86 % 1008,1 hPa 0,0 l/m² 11,3 km/h (2 Bft) O 86 ° 0 min 0 W/m² -3,1 °C -5,7 °C 14,5 km/h (3 Bft)
05.12.2023 01:58 22,1 °C -1,1 °C 45 % 86 % 1008,1 hPa 0,0 l/m² 10,9 km/h (2 Bft) O 82 ° 0 min 0 W/m² -3,1 °C -5,4 °C 12,9 km/h (3 Bft)
05.12.2023 01:59 22,1 °C -1,1 °C 45 % 86 % 1008,0 hPa 0,0 l/m² 10,9 km/h (2 Bft) O-NO 71 ° 0 min 0 W/m² -3,1 °C -5,4 °C 12,9 km/h (3 Bft)
05.12.2023 02:00 22,1 °C -1,1 °C 45 % 86 % 1008,1 hPa 0,0 l/m² 8,4 km/h (2 Bft) O 86 ° 0 min 0 W/m² -3,1 °C -3,2 °C 11,3 km/h (2 Bft)
05.12.2023 02:01 22,1 °C -1,1 °C 45 % 86 % 1008,1 hPa 0,0 l/m² 11,3 km/h (2 Bft) O 79 ° 0 min 0 W/m² -3,1 °C -5,7 °C 14,5 km/h (3 Bft)
05.12.2023 02:02 22,1 °C -1,1 °C 45 % 86 % 1008,1 hPa 0,0 l/m² 5,7 km/h (2 Bft) O 90 ° 0 min 0 W/m² -3,1 °C -1,1 °C 11,3 km/h (2 Bft)
05.12.2023 02:03 22,1 °C -1,1 °C 45 % 86 % 1008,1 hPa 0,0 l/m² 7,6 km/h (2 Bft) O 90 ° 0 min 0 W/m² -3,1 °C -2,4 °C 9,7 km/h (2 Bft)
05.12.2023 02:04 22,1 °C -1,1 °C 45 % 86 % 1008,1 hPa 0,0 l/m² 10,0 km/h (2 Bft) O 80 ° 0 min 0 W/m² -3,1 °C -4,7 °C 12,9 km/h (3 Bft)
05.12.2023 02:05 22,1 °C -1,1 °C 45 % 86 % 1008,1 hPa 0,0 l/m² 9,2 km/h (2 Bft) O 84 ° 0 min 0 W/m² -3,1 °C -4,0 °C 12,9 km/h (3 Bft)
05.12.2023 02:06 22,1 °C -1,1 °C 45 % 86 % 1008,0 hPa 0,0 l/m² 7,8 km/h (2 Bft) O 88 ° 0 min 0 W/m² -3,1 °C -2,6 °C 11,3 km/h (2 Bft)
05.12.2023 02:07 22,1 °C -1,1 °C 45 % 86 % 1008,0 hPa 0,0 l/m² 9,1 km/h (2 Bft) O-NO 76 ° 0 min 0 W/m² -3,1 °C -3,9 °C 11,3 km/h (2 Bft)
05.12.2023 02:08 22,1 °C -1,1 °C 45 % 86 % 1008,0 hPa 0,0 l/m² 9,3 km/h (2 Bft) O 90 ° 0 min 0 W/m² -3,1 °C -4,0 °C 12,9 km/h (3 Bft)
05.12.2023 02:09 22,1 °C -1,1 °C 45 % 86 % 1008,1 hPa 0,0 l/m² 9,7 km/h (2 Bft) O 88 ° 0 min 0 W/m² -3,1 °C -4,4 °C 12,9 km/h (3 Bft)
05.12.2023 02:11 22,1 °C -1,1 °C 45 % 86 % 1008,0 hPa 0,0 l/m² 7,3 km/h (2 Bft) O 97 ° 0 min 0 W/m² -3,1 °C -2,1 °C 11,3 km/h (2 Bft)
05.12.2023 02:13 22,1 °C -1,1 °C 45 % 86 % 1008,2 hPa 0,0 l/m² 7,3 km/h (2 Bft) O-SO 106 ° 0 min 0 W/m² -3,1 °C -2,1 °C 11,3 km/h (2 Bft)
05.12.2023 02:14 22,1 °C -1,1 °C 45 % 86 % 1008,3 hPa 0,0 l/m² 7,6 km/h (2 Bft) O 96 ° 0 min 0 W/m² -3,1 °C -2,4 °C 9,7 km/h (2 Bft)
05.12.2023 02:15 22,1 °C -1,0 °C 45 % 86 % 1008,2 hPa 0,0 l/m² 9,0 km/h (2 Bft) O 81 ° 0 min 0 W/m² -3,0 °C -3,7 °C 11,3 km/h (2 Bft)
05.12.2023 02:16 22,1 °C -1,0 °C 45 % 86 % 1008,2 hPa 0,0 l/m² 9,7 km/h (2 Bft) O 92 ° 0 min 0 W/m² -3,0 °C -4,3 °C 11,3 km/h (2 Bft)
05.12.2023 02:17 22,1 °C -1,0 °C 45 % 87 % 1008,1 hPa 0,0 l/m² 11,1 km/h (2 Bft) O 80 ° 0 min 0 W/m² -2,9 °C -5,5 °C 12,9 km/h (3 Bft)
05.12.2023 02:18 22,1 °C -1,0 °C 45 % 87 % 1008,1 hPa 0,0 l/m² 12,0 km/h (2 Bft) O 88 ° 0 min 0 W/m² -2,9 °C -6,2 °C 14,5 km/h (3 Bft)
05.12.2023 02:19 22,1 °C -0,9 °C 45 % 87 % 1008,0 hPa 0,0 l/m² 11,3 km/h (2 Bft) O 84 ° 0 min 0 W/m² -2,8 °C -5,5 °C 14,5 km/h (3 Bft)
05.12.2023 02:21 22,1 °C -1,0 °C 45 % 87 % 1008,0 hPa 0,0 l/m² 11,2 km/h (2 Bft) O-NO 78 ° 0 min 0 W/m² -2,9 °C -5,5 °C 14,5 km/h (3 Bft)
05.12.2023 02:23 22,1 °C -0,9 °C 45 % 87 % 1007,9 hPa 0,0 l/m² 10,8 km/h (2 Bft) O 84 ° 0 min 0 W/m² -2,8 °C -5,1 °C 14,5 km/h (3 Bft)
05.12.2023 02:24 22,1 °C -1,0 °C 45 % 87 % 1008,0 hPa 0,0 l/m² 14,0 km/h (3 Bft) O 88 ° 0 min 0 W/m² -2,9 °C -7,6 °C 17,7 km/h (3 Bft)
05.12.2023 02:25 22,1 °C -1,0 °C 45 % 87 % 1008,0 hPa 0,0 l/m² 13,1 km/h (3 Bft) O 84 ° 0 min 0 W/m² -2,9 °C -6,9 °C 14,5 km/h (3 Bft)
05.12.2023 02:26 22,1 °C -1,0 °C 45 % 87 % 1008,0 hPa 0,0 l/m² 12,3 km/h (2 Bft) O 91 ° 0 min 0 W/m² -2,9 °C -6,4 °C 14,5 km/h (3 Bft)
05.12.2023 02:27 22,1 °C -1,0 °C 45 % 87 % 1008,0 hPa 0,0 l/m² 13,0 km/h (3 Bft) O 83 ° 0 min 0 W/m² -2,9 °C -6,9 °C 16,1 km/h (3 Bft)
05.12.2023 02:28 22,1 °C -1,0 °C 45 % 87 % 1008,0 hPa 0,0 l/m² 10,1 km/h (2 Bft) O 85 ° 0 min 0 W/m² -2,9 °C -4,6 °C 12,9 km/h (3 Bft)
05.12.2023 02:29 22,1 °C -0,9 °C 45 % 87 % 1008,0 hPa 0,0 l/m² 12,0 km/h (2 Bft) O-NO 67 ° 0 min 0 W/m² -2,8 °C -6,0 °C 14,5 km/h (3 Bft)
05.12.2023 02:31 22,1 °C -1,0 °C 45 % 87 % 1008,0 hPa 0,0 l/m² 12,2 km/h (2 Bft) O 86 ° 0 min 0 W/m² -2,9 °C -6,3 °C 16,1 km/h (3 Bft)
05.12.2023 02:32 22,1 °C -1,0 °C 45 % 87 % 1007,9 hPa 0,0 l/m² 13,3 km/h (3 Bft) O 92 ° 0 min 0 W/m² -2,9 °C -7,1 °C 14,5 km/h (3 Bft)
05.12.2023 02:33 22,1 °C -1,0 °C 45 % 87 % 1007,9 hPa 0,0 l/m² 13,4 km/h (3 Bft) O-NO 75 ° 0 min 0 W/m² -2,9 °C -7,2 °C 16,1 km/h (3 Bft)
05.12.2023 02:34 22,1 °C -1,0 °C 45 % 87 % 1007,9 hPa 0,0 l/m² 12,5 km/h (2 Bft) O 86 ° 0 min 0 W/m² -2,9 °C -6,5 °C 16,1 km/h (3 Bft)
05.12.2023 02:35 22,1 °C -1,0 °C 45 % 87 % 1007,9 hPa 0,0 l/m² 12,1 km/h (2 Bft) O 86 ° 0 min 0 W/m² -2,9 °C -6,2 °C 14,5 km/h (3 Bft)
05.12.2023 02:36 22,1 °C -0,9 °C 45 % 87 % 1007,9 hPa 0,0 l/m² 12,8 km/h (3 Bft) O 100 ° 0 min 0 W/m² -2,8 °C -6,6 °C 16,1 km/h (3 Bft)
05.12.2023 02:37 22,1 °C -1,0 °C 45 % 87 % 1007,8 hPa 0,0 l/m² 13,0 km/h (3 Bft) O 92 ° 0 min 0 W/m² -2,9 °C -6,9 °C 14,5 km/h (3 Bft)
05.12.2023 02:38 22,1 °C -1,0 °C 45 % 87 % 1007,8 hPa 0,0 l/m² 10,9 km/h (2 Bft) O 82 ° 0 min 0 W/m² -2,9 °C -5,3 °C 14,5 km/h (3 Bft)
05.12.2023 02:39 22,1 °C -1,0 °C 45 % 87 % 1007,8 hPa 0,0 l/m² 13,3 km/h (3 Bft) O 88 ° 0 min 0 W/m² -2,9 °C -7,1 °C 16,1 km/h (3 Bft)
05.12.2023 02:41 22,1 °C -0,9 °C 45 % 87 % 1007,8 hPa 0,0 l/m² 13,5 km/h (3 Bft) O 90 ° 0 min 0 W/m² -2,8 °C -7,1 °C 16,1 km/h (3 Bft)
05.12.2023 02:43 22,1 °C -0,9 °C 45 % 87 % 1007,7 hPa 0,0 l/m² 12,2 km/h (2 Bft) O 84 ° 0 min 0 W/m² -2,8 °C -6,2 °C 14,5 km/h (3 Bft)
05.12.2023 02:44 22,1 °C -0,9 °C 45 % 87 % 1007,7 hPa 0,0 l/m² 13,3 km/h (3 Bft) O-NO 78 ° 0 min 0 W/m² -2,8 °C -7,0 °C 14,5 km/h (3 Bft)
05.12.2023 02:45 22,1 °C -0,9 °C 45 % 87 % 1007,8 hPa 0,0 l/m² 11,7 km/h (2 Bft) O 101 ° 0 min 0 W/m² -2,8 °C -5,8 °C 12,9 km/h (3 Bft)
05.12.2023 02:46 22,1 °C -0,9 °C 45 % 87 % 1007,8 hPa 0,0 l/m² 10,1 km/h (2 Bft) O 88 ° 0 min 0 W/m² -2,8 °C -4,5 °C 12,9 km/h (3 Bft)
05.12.2023 02:47 22,1 °C -0,9 °C 45 % 87 % 1007,7 hPa 0,0 l/m² 9,9 km/h (2 Bft) O 83 ° 0 min 0 W/m² -2,8 °C -4,4 °C 11,3 km/h (2 Bft)
05.12.2023 02:48 22,1 °C -0,9 °C 45 % 87 % 1007,7 hPa 0,0 l/m² 10,6 km/h (2 Bft) O 90 ° 0 min 0 W/m² -2,8 °C -4,9 °C 12,9 km/h (3 Bft)
05.12.2023 02:49 22,1 °C -0,9 °C 45 % 87 % 1007,8 hPa 0,0 l/m² 9,9 km/h (2 Bft) O 92 ° 0 min 0 W/m² -2,8 °C -4,4 °C 12,9 km/h (3 Bft)
05.12.2023 02:51 22,1 °C -0,9 °C 45 % 87 % 1007,7 hPa 0,0 l/m² 11,1 km/h (2 Bft) O 95 ° 0 min 0 W/m² -2,8 °C -5,3 °C 14,5 km/h (3 Bft)
05.12.2023 02:53 22,1 °C -0,9 °C 45 % 86 % 1007,7 hPa 0,0 l/m² 9,1 km/h (2 Bft) O 90 ° 0 min 0 W/m² -2,9 °C -3,6 °C 11,3 km/h (2 Bft)
05.12.2023 02:54 22,1 °C -0,9 °C 45 % 86 % 1007,8 hPa 0,0 l/m² 7,0 km/h (2 Bft) O-NO 78 ° 0 min 0 W/m² -2,9 °C -1,5 °C 9,7 km/h (2 Bft)
05.12.2023 02:55 22,1 °C -0,9 °C 45 % 86 % 1007,8 hPa 0,0 l/m² 7,5 km/h (2 Bft) O 86 ° 0 min 0 W/m² -2,9 °C -2,1 °C 11,3 km/h (2 Bft)
05.12.2023 02:57 22,1 °C -0,9 °C 45 % 86 % 1007,7 hPa 0,0 l/m² 7,4 km/h (2 Bft) O 93 ° 0 min 0 W/m² -2,9 °C -2,0 °C 12,9 km/h (3 Bft)
05.12.2023 02:58 22,1 °C -0,9 °C 45 % 86 % 1007,7 hPa 0,0 l/m² 10,6 km/h (2 Bft) O 88 ° 0 min 0 W/m² -2,9 °C -4,9 °C 12,9 km/h (3 Bft)
05.12.2023 02:59 22,1 °C -0,9 °C 45 % 86 % 1007,7 hPa 0,0 l/m² 8,5 km/h (2 Bft) O 86 ° 0 min 0 W/m² -2,9 °C -3,1 °C 11,3 km/h (2 Bft)
05.12.2023 03:00 22,1 °C -0,9 °C 45 % 86 % 1007,7 hPa 0,0 l/m² 9,7 km/h (2 Bft) O 90 ° 0 min 0 W/m² -2,9 °C -4,2 °C 11,3 km/h (2 Bft)
05.12.2023 03:07 22,1 °C -0,9 °C 45 % 86 % 1007,7 hPa 0,0 l/m² 10,7 km/h (2 Bft) O 94 ° 0 min 0 W/m² -2,9 °C -5,0 °C 14,5 km/h (3 Bft)
05.12.2023 03:08 22,1 °C -0,9 °C 45 % 86 % 1007,7 hPa 0,0 l/m² 10,5 km/h (2 Bft) O 85 ° 0 min 0 W/m² -2,9 °C -4,9 °C 14,5 km/h (3 Bft)
05.12.2023 03:09 22,1 °C -0,9 °C 45 % 86 % 1007,7 hPa 0,0 l/m² 10,7 km/h (2 Bft) O 79 ° 0 min 0 W/m² -2,9 °C -5,0 °C 16,1 km/h (3 Bft)
05.12.2023 03:11 22,1 °C -0,8 °C 45 % 86 % 1007,7 hPa 0,0 l/m² 12,2 km/h (2 Bft) O 84 ° 0 min 0 W/m² -2,8 °C -6,1 °C 14,5 km/h (3 Bft)
05.12.2023 03:12 22,1 °C -0,8 °C 45 % 86 % 1007,6 hPa 0,0 l/m² 10,1 km/h (2 Bft) O 90 ° 0 min 0 W/m² -2,8 °C -4,4 °C 12,9 km/h (3 Bft)
05.12.2023 03:13 22,1 °C -0,8 °C 45 % 86 % 1007,6 hPa 0,0 l/m² 11,4 km/h (2 Bft) O 98 ° 0 min 0 W/m² -2,8 °C -5,5 °C 14,5 km/h (3 Bft)
05.12.2023 03:16 22,1 °C -0,8 °C 45 % 86 % 1007,5 hPa 0,0 l/m² 9,5 km/h (2 Bft) O 88 ° 0 min 0 W/m² -2,8 °C -3,9 °C 14,5 km/h (3 Bft)
05.12.2023 03:18 22,1 °C -0,8 °C 45 % 86 % 1007,5 hPa 0,0 l/m² 9,0 km/h (2 Bft) O 90 ° 0 min 0 W/m² -2,8 °C -3,4 °C 12,9 km/h (3 Bft)
05.12.2023 03:20 22,1 °C -0,8 °C 45 % 86 % 1007,5 hPa 0,0 l/m² 8,4 km/h (2 Bft) O 84 ° 0 min 0 W/m² -2,8 °C -2,9 °C 14,5 km/h (3 Bft)
05.12.2023 03:21 22,1 °C -0,8 °C 45 % 86 % 1007,5 hPa 0,0 l/m² 10,1 km/h (2 Bft) O 94 ° 0 min 0 W/m² -2,8 °C -4,4 °C 12,9 km/h (3 Bft)
05.12.2023 03:22 22,1 °C -0,8 °C 45 % 86 % 1007,4 hPa 0,0 l/m² 8,1 km/h (2 Bft) O 87 ° 0 min 0 W/m² -2,8 °C -2,6 °C 12,9 km/h (3 Bft)
05.12.2023 03:23 22,1 °C -0,8 °C 45 % 86 % 1007,6 hPa 0,0 l/m² 9,7 km/h (2 Bft) O 86 ° 0 min 0 W/m² -2,8 °C -4,1 °C 12,9 km/h (3 Bft)
05.12.2023 03:24 22,1 °C -0,8 °C 45 % 86 % 1007,4 hPa 0,0 l/m² 10,7 km/h (2 Bft) O 92 ° 0 min 0 W/m² -2,8 °C -4,9 °C 12,9 km/h (3 Bft)
05.12.2023 03:26 22,1 °C -0,7 °C 45 % 86 % 1007,5 hPa 0,0 l/m² 9,0 km/h (2 Bft) O 88 ° 0 min 0 W/m² -2,7 °C -3,3 °C 12,9 km/h (3 Bft)
05.12.2023 03:28 22,1 °C -0,7 °C 45 % 86 % 1007,5 hPa 0,0 l/m² 9,7 km/h (2 Bft) O 89 ° 0 min 0 W/m² -2,7 °C -4,0 °C 12,9 km/h (3 Bft)
05.12.2023 03:30 22,1 °C -0,7 °C 45 % 86 % 1007,4 hPa 0,0 l/m² 10,2 km/h (2 Bft) O 95 ° 0 min 0 W/m² -2,7 °C -4,4 °C 14,5 km/h (3 Bft)
05.12.2023 03:31 22,1 °C -0,7 °C 45 % 86 % 1007,5 hPa 0,0 l/m² 6,1 km/h (2 Bft) O 82 ° 0 min 0 W/m² -2,7 °C -0,7 °C 9,7 km/h (2 Bft)
05.12.2023 03:32 22,1 °C -0,7 °C 45 % 86 % 1007,5 hPa 0,0 l/m² 9,9 km/h (2 Bft) O 92 ° 0 min 0 W/m² -2,7 °C -4,1 °C 12,9 km/h (3 Bft)
05.12.2023 03:33 22,1 °C -0,7 °C 45 % 86 % 1007,5 hPa 0,0 l/m² 10,6 km/h (2 Bft) O 90 ° 0 min 0 W/m² -2,7 °C -4,7 °C 12,9 km/h (3 Bft)
05.12.2023 03:34 22,1 °C -0,7 °C 45 % 86 % 1007,5 hPa 0,0 l/m² 12,5 km/h (2 Bft) O 94 ° 0 min 0 W/m² -2,7 °C -6,2 °C 14,5 km/h (3 Bft)
05.12.2023 03:36 22,2 °C -0,7 °C 45 % 86 % 1007,5 hPa 0,0 l/m² 10,9 km/h (2 Bft) O 94 ° 0 min 0 W/m² -2,7 °C -5,0 °C 16,1 km/h (3 Bft)
05.12.2023 03:38 22,1 °C -0,6 °C 45 % 86 % 1007,5 hPa 0,0 l/m² 10,4 km/h (2 Bft) O 96 ° 0 min 0 W/m² -2,6 °C -4,4 °C 14,5 km/h (3 Bft)
05.12.2023 03:40 22,1 °C -0,6 °C 45 % 86 % 1007,5 hPa 0,0 l/m² 11,2 km/h (2 Bft) O 98 ° 0 min 0 W/m² -2,6 °C -5,1 °C 14,5 km/h (3 Bft)
05.12.2023 03:41 22,1 °C -0,6 °C 45 % 86 % 1007,4 hPa 0,0 l/m² 11,0 km/h (2 Bft) O 90 ° 0 min 0 W/m² -2,6 °C -4,9 °C 12,9 km/h (3 Bft)
05.12.2023 03:42 22,1 °C -0,6 °C 45 % 86 % 1007,5 hPa 0,0 l/m² 10,5 km/h (2 Bft) O 101 ° 0 min 0 W/m² -2,6 °C -4,5 °C 12,9 km/h (3 Bft)
05.12.2023 03:43 22,1 °C -0,6 °C 45 % 86 % 1007,5 hPa 0,0 l/m² 11,0 km/h (2 Bft) O 92 ° 0 min 0 W/m² -2,6 °C -4,9 °C 14,5 km/h (3 Bft)
05.12.2023 03:45 22,1 °C -0,6 °C 45 % 86 % 1007,4 hPa 0,0 l/m² 11,0 km/h (2 Bft) O 89 ° 0 min 0 W/m² -2,6 °C -4,9 °C 16,1 km/h (3 Bft)
05.12.2023 03:46 22,1 °C -0,6 °C 45 % 86 % 1007,3 hPa 0,0 l/m² 12,9 km/h (3 Bft) O 88 ° 0 min 0 W/m² -2,6 °C -6,3 °C 14,5 km/h (3 Bft)
05.12.2023 03:47 22,1 °C -0,6 °C 45 % 86 % 1007,3 hPa 0,0 l/m² 12,1 km/h (2 Bft) O 95 ° 0 min 0 W/m² -2,6 °C -5,8 °C 16,1 km/h (3 Bft)
05.12.2023 03:48 22,1 °C -0,5 °C 45 % 86 % 1007,3 hPa 0,0 l/m² 11,2 km/h (2 Bft) O-SO 105 ° 0 min 0 W/m² -2,5 °C -5,0 °C 14,5 km/h (3 Bft)
05.12.2023 03:50 22,1 °C -0,6 °C 45 % 86 % 1007,3 hPa 0,0 l/m² 11,8 km/h (2 Bft) O 89 ° 0 min 0 W/m² -2,6 °C -5,5 °C 16,1 km/h (3 Bft)
05.12.2023 03:51 22,1 °C -0,5 °C 45 % 86 % 1007,4 hPa 0,0 l/m² 11,6 km/h (2 Bft) O 85 ° 0 min 0 W/m² -2,5 °C -5,3 °C 14,5 km/h (3 Bft)
05.12.2023 03:52 22,1 °C -0,5 °C 45 % 86 % 1007,4 hPa 0,0 l/m² 11,7 km/h (2 Bft) O 86 ° 0 min 0 W/m² -2,5 °C -5,4 °C 16,1 km/h (3 Bft)
05.12.2023 03:53 22,1 °C -0,5 °C 45 % 86 % 1007,2 hPa 0,0 l/m² 10,0 km/h (2 Bft) O 88 ° 0 min 0 W/m² -2,5 °C -4,0 °C 16,1 km/h (3 Bft)
05.12.2023 03:54 22,1 °C -0,5 °C 45 % 86 % 1007,2 hPa 0,0 l/m² 8,2 km/h (2 Bft) O-SO 111 ° 0 min 0 W/m² -2,5 °C -2,4 °C 11,3 km/h (2 Bft)
05.12.2023 03:56 22,1 °C -0,5 °C 45 % 86 % 1007,3 hPa 0,0 l/m² 9,0 km/h (2 Bft) O-SO 106 ° 0 min 0 W/m² -2,5 °C -3,1 °C 16,1 km/h (3 Bft)
05.12.2023 03:58 22,1 °C -0,5 °C 45 % 86 % 1007,2 hPa 0,0 l/m² 8,3 km/h (2 Bft) O 96 ° 0 min 0 W/m² -2,5 °C -2,5 °C 14,5 km/h (3 Bft)
05.12.2023 04:00 22,1 °C -0,4 °C 45 % 86 % 1007,2 hPa 0,0 l/m² 10,2 km/h (2 Bft) O 90 ° 0 min 0 W/m² -2,4 °C -4,1 °C 14,5 km/h (3 Bft)
05.12.2023 04:01 22,1 °C -0,4 °C 45 % 86 % 1007,2 hPa 0,0 l/m² 10,8 km/h (2 Bft) O 91 ° 0 min 0 W/m² -2,4 °C -4,5 °C 12,9 km/h (3 Bft)
05.12.2023 04:02 22,1 °C -0,4 °C 45 % 86 % 1007,2 hPa 0,0 l/m² 10,0 km/h (2 Bft) O 79 ° 0 min 0 W/m² -2,4 °C -3,9 °C 12,9 km/h (3 Bft)
05.12.2023 04:03 22,1 °C -0,4 °C 45 % 86 % 1007,2 hPa 0,0 l/m² 13,8 km/h (3 Bft) O 101 ° 0 min 0 W/m² -2,4 °C -6,7 °C 19,3 km/h (3 Bft)
05.12.2023 04:04 22,1 °C -0,4 °C 45 % 86 % 1007,2 hPa 0,0 l/m² 13,2 km/h (3 Bft) O 92 ° 0 min 0 W/m² -2,4 °C -6,3 °C 16,1 km/h (3 Bft)
05.12.2023 04:06 22,1 °C -0,4 °C 45 % 86 % 1007,2 hPa 0,0 l/m² 12,7 km/h (3 Bft) O-SO 108 ° 0 min 0 W/m² -2,4 °C -6,0 °C 16,1 km/h (3 Bft)
05.12.2023 04:08 22,1 °C -0,4 °C 45 % 85 % 1007,1 hPa 0,0 l/m² 15,5 km/h (3 Bft) O 91 ° 0 min 0 W/m² -2,6 °C -7,8 °C 20,9 km/h (4 Bft)
05.12.2023 04:10 22,1 °C -0,4 °C 45 % 85 % 1007,2 hPa 0,0 l/m² 13,4 km/h (3 Bft) O-SO 109 ° 0 min 0 W/m² -2,6 °C -6,4 °C 17,7 km/h (3 Bft)
05.12.2023 04:11 22,1 °C -0,4 °C 45 % 85 % 1007,2 hPa 0,0 l/m² 11,8 km/h (2 Bft) O 99 ° 0 min 0 W/m² -2,6 °C -5,3 °C 17,7 km/h (3 Bft)
05.12.2023 04:12 22,1 °C -0,4 °C 45 % 85 % 1007,1 hPa 0,0 l/m² 14,3 km/h (3 Bft) O 93 ° 0 min 0 W/m² -2,6 °C -7,0 °C 19,3 km/h (3 Bft)
05.12.2023 04:13 22,1 °C -0,4 °C 45 % 85 % 1007,1 hPa 0,0 l/m² 15,1 km/h (3 Bft) O-SO 102 ° 0 min 0 W/m² -2,6 °C -7,5 °C 19,3 km/h (3 Bft)
05.12.2023 04:14 22,1 °C -0,4 °C 45 % 85 % 1007,1 hPa 0,0 l/m² 12,6 km/h (3 Bft) O 91 ° 0 min 0 W/m² -2,6 °C -5,9 °C 17,7 km/h (3 Bft)
05.12.2023 04:15 22,1 °C -0,4 °C 45 % 85 % 1007,1 hPa 0,0 l/m² 13,0 km/h (3 Bft) O 82 ° 0 min 0 W/m² -2,6 °C -6,2 °C 17,7 km/h (3 Bft)
05.12.2023 04:17 22,1 °C -0,4 °C 45 % 85 % 1007,0 hPa 0,0 l/m² 13,6 km/h (3 Bft) O-SO 117 ° 0 min 0 W/m² -2,6 °C -6,6 °C 17,7 km/h (3 Bft)
05.12.2023 04:19 22,1 °C -0,4 °C 45 % 85 % 1007,1 hPa 0,0 l/m² 14,1 km/h (3 Bft) O 90 ° 0 min 0 W/m² -2,6 °C -6,9 °C 17,7 km/h (3 Bft)
05.12.2023 04:21 22,1 °C -0,3 °C 45 % 86 % 1007,1 hPa 0,0 l/m² 14,2 km/h (3 Bft) O 90 ° 0 min 0 W/m² -2,3 °C -6,8 °C 17,7 km/h (3 Bft)
05.12.2023 04:22 22,1 °C -0,3 °C 45 % 86 % 1007,0 hPa 0,0 l/m² 11,4 km/h (2 Bft) O 98 ° 0 min 0 W/m² -2,3 °C -4,9 °C 14,5 km/h (3 Bft)
05.12.2023 04:23 22,1 °C -0,3 °C 45 % 86 % 1007,0 hPa 0,0 l/m² 12,6 km/h (3 Bft) O 96 ° 0 min 0 W/m² -2,3 °C -5,8 °C 14,5 km/h (3 Bft)
05.12.2023 04:25 22,1 °C -0,3 °C 45 % 86 % 1007,0 hPa 0,0 l/m² 10,9 km/h (2 Bft) O 95 ° 0 min 0 W/m² -2,3 °C -4,5 °C 14,5 km/h (3 Bft)
05.12.2023 04:27 22,1 °C -0,3 °C 45 % 85 % 1007,1 hPa 0,0 l/m² 11,3 km/h (2 Bft) O 98 ° 0 min 0 W/m² -2,5 °C -4,8 °C 17,7 km/h (3 Bft)
05.12.2023 04:29 22,1 °C -0,3 °C 45 % 85 % 1007,0 hPa 0,0 l/m² 13,6 km/h (3 Bft) O 90 ° 0 min 0 W/m² -2,5 °C -6,5 °C 17,7 km/h (3 Bft)
05.12.2023 04:31 22,1 °C -0,3 °C 45 % 85 % 1007,1 hPa 0,0 l/m² 12,9 km/h (3 Bft) O 90 ° 0 min 0 W/m² -2,5 °C -6,0 °C 17,7 km/h (3 Bft)
05.12.2023 04:32 22,1 °C -0,3 °C 45 % 85 % 1007,1 hPa 0,0 l/m² 13,9 km/h (3 Bft) O 94 ° 0 min 0 W/m² -2,5 °C -6,7 °C 17,7 km/h (3 Bft)
05.12.2023 04:33 22,1 °C -0,3 °C 45 % 85 % 1007,1 hPa 0,0 l/m² 12,4 km/h (2 Bft) O 82 ° 0 min 0 W/m² -2,5 °C -5,6 °C 14,5 km/h (3 Bft)
05.12.2023 04:36 22,1 °C -0,3 °C 45 % 85 % 1007,1 hPa 0,0 l/m² 13,3 km/h (3 Bft) O 81 ° 0 min 0 W/m² -2,5 °C -6,3 °C 17,7 km/h (3 Bft)
05.12.2023 04:38 22,1 °C -0,3 °C 45 % 85 % 1007,1 hPa 0,0 l/m² 12,7 km/h (3 Bft) O 94 ° 0 min 0 W/m² -2,5 °C -5,8 °C 16,1 km/h (3 Bft)
05.12.2023 04:40 22,1 °C -0,3 °C 45 % 85 % 1007,0 hPa 0,0 l/m² 15,4 km/h (3 Bft) O-NO 76 ° 0 min 0 W/m² -2,5 °C -7,6 °C 19,3 km/h (3 Bft)
05.12.2023 04:41 22,1 °C -0,3 °C 45 % 85 % 1007,0 hPa 0,0 l/m² 14,6 km/h (3 Bft) O-SO 119 ° 0 min 0 W/m² -2,5 °C -7,1 °C 19,3 km/h (3 Bft)
05.12.2023 04:42 22,1 °C -0,3 °C 45 % 85 % 1007,1 hPa 0,0 l/m² 12,2 km/h (2 Bft) O 88 ° 0 min 0 W/m² -2,5 °C -5,5 °C 12,9 km/h (3 Bft)
05.12.2023 04:43 22,1 °C -0,3 °C 45 % 85 % 1007,1 hPa 0,0 l/m² 13,0 km/h (3 Bft) O-SO 122 ° 0 min 0 W/m² -2,5 °C -6,1 °C 17,7 km/h (3 Bft)
05.12.2023 04:46 22,1 °C -0,3 °C 45 % 85 % 1007,1 hPa 0,0 l/m² 10,5 km/h (2 Bft) O-SO 106 ° 0 min 0 W/m² -2,5 °C -4,2 °C 16,1 km/h (3 Bft)
05.12.2023 04:48 22,1 °C -0,3 °C 45 % 85 % 1007,0 hPa 0,0 l/m² 12,2 km/h (2 Bft) O-SO 105 ° 0 min 0 W/m² -2,5 °C -5,5 °C 19,3 km/h (3 Bft)
05.12.2023 04:50 22,1 °C -0,3 °C 45 % 85 % 1007,0 hPa 0,0 l/m² 12,6 km/h (3 Bft) O 101 ° 0 min 0 W/m² -2,5 °C -5,8 °C 19,3 km/h (3 Bft)
05.12.2023 04:51 22,1 °C -0,3 °C 45 % 85 % 1006,9 hPa 0,0 l/m² 12,2 km/h (2 Bft) SO 130 ° 0 min 0 W/m² -2,5 °C -5,5 °C 17,7 km/h (3 Bft)
05.12.2023 04:52 22,1 °C -0,3 °C 45 % 85 % 1006,9 hPa 0,0 l/m² 14,1 km/h (3 Bft) O-SO 113 ° 0 min 0 W/m² -2,5 °C -6,8 °C 20,9 km/h (4 Bft)
05.12.2023 04:53 22,1 °C -0,3 °C 45 % 85 % 1006,9 hPa 0,0 l/m² 12,0 km/h (2 Bft) O-SO 118 ° 0 min 0 W/m² -2,5 °C -5,3 °C 16,1 km/h (3 Bft)
05.12.2023 04:56 22,1 °C -0,3 °C 45 % 84 % 1006,9 hPa 0,0 l/m² 10,6 km/h (2 Bft) O 88 ° 0 min 0 W/m² -2,7 °C -4,3 °C 14,5 km/h (3 Bft)
05.12.2023 04:58 22,1 °C -0,3 °C 45 % 84 % 1007,1 hPa 0,0 l/m² 10,9 km/h (2 Bft) O-SO 110 ° 0 min 0 W/m² -2,7 °C -4,5 °C 14,5 km/h (3 Bft)
05.12.2023 05:00 22,1 °C -0,3 °C 45 % 84 % 1007,1 hPa 0,0 l/m² 11,9 km/h (2 Bft) O-SO 109 ° 0 min 0 W/m² -2,7 °C -5,3 °C 16,1 km/h (3 Bft)
05.12.2023 05:01 22,1 °C -0,3 °C 45 % 84 % 1007,2 hPa 0,0 l/m² 7,2 km/h (2 Bft) SO 128 ° 0 min 0 W/m² -2,7 °C -1,1 °C 11,3 km/h (2 Bft)
05.12.2023 05:02 22,1 °C -0,3 °C 45 % 84 % 1007,1 hPa 0,0 l/m² 5,7 km/h (2 Bft) O-SO 109 ° 0 min 0 W/m² -2,7 °C -0,3 °C 8,0 km/h (2 Bft)
05.12.2023 05:03 22,1 °C -0,3 °C 45 % 84 % 1007,1 hPa 0,0 l/m² 11,2 km/h (2 Bft) O-SO 107 ° 0 min 0 W/m² -2,7 °C -4,7 °C 14,5 km/h (3 Bft)
05.12.2023 05:05 22,1 °C -0,3 °C 45 % 84 % 1007,1 hPa 0,0 l/m² 11,2 km/h (2 Bft) SO 128 ° 0 min 0 W/m² -2,7 °C -4,7 °C 16,1 km/h (3 Bft)
05.12.2023 05:07 22,1 °C -0,3 °C 45 % 84 % 1007,0 hPa 0,0 l/m² 12,3 km/h (2 Bft) O-SO 117 ° 0 min 0 W/m² -2,7 °C -5,6 °C 16,1 km/h (3 Bft)
05.12.2023 05:09 22,1 °C -0,3 °C 45 % 85 % 1007,1 hPa 0,0 l/m² 10,7 km/h (2 Bft) O-SO 109 ° 0 min 0 W/m² -2,5 °C -4,4 °C 16,1 km/h (3 Bft)
05.12.2023 05:11 22,1 °C -0,3 °C 45 % 85 % 1007,0 hPa 0,0 l/m² 14,1 km/h (3 Bft) O-SO 114 ° 0 min 0 W/m² -2,5 °C -6,8 °C 22,5 km/h (4 Bft)
05.12.2023 05:12 22,1 °C -0,3 °C 45 % 84 % 1007,1 hPa 0,0 l/m² 14,8 km/h (3 Bft) O 86 ° 0 min 0 W/m² -2,7 °C -7,2 °C 17,7 km/h (3 Bft)
05.12.2023 05:13 22,1 °C -0,3 °C 45 % 84 % 1007,1 hPa 0,0 l/m² 12,2 km/h (2 Bft) O-SO 117 ° 0 min 0 W/m² -2,7 °C -5,5 °C 16,1 km/h (3 Bft)
05.12.2023 05:16 22,1 °C -0,3 °C 45 % 84 % 1007,0 hPa 0,0 l/m² 17,6 km/h (3 Bft) O-SO 118 ° 0 min 0 W/m² -2,7 °C -8,8 °C 24,1 km/h (4 Bft)
05.12.2023 05:18 22,1 °C -0,3 °C 45 % 85 % 1007,0 hPa 0,0 l/m² 13,6 km/h (3 Bft) O-SO 105 ° 0 min 0 W/m² -2,5 °C -6,5 °C 16,1 km/h (3 Bft)
05.12.2023 05:20 22,1 °C -0,4 °C 45 % 85 % 1007,0 hPa 0,0 l/m² 13,5 km/h (3 Bft) SO 137 ° 0 min 0 W/m² -2,6 °C -6,5 °C 17,7 km/h (3 Bft)
05.12.2023 05:21 22,1 °C -0,4 °C 45 % 85 % 1007,1 hPa 0,0 l/m² 16,2 km/h (3 Bft) O-SO 123 ° 0 min 0 W/m² -2,6 °C -8,2 °C 22,5 km/h (4 Bft)
05.12.2023 05:22 22,1 °C -0,4 °C 45 % 85 % 1007,0 hPa 0,0 l/m² 13,3 km/h (3 Bft) SO 126 ° 0 min 0 W/m² -2,6 °C -6,4 °C 20,9 km/h (4 Bft)
05.12.2023 05:23 22,1 °C -0,4 °C 45 % 85 % 1007,0 hPa 0,0 l/m² 13,8 km/h (3 Bft) SO 126 ° 0 min 0 W/m² -2,6 °C -6,7 °C 17,7 km/h (3 Bft)
05.12.2023 05:26 22,1 °C -0,4 °C 45 % 85 % 1007,1 hPa 0,0 l/m² 17,0 km/h (3 Bft) O-SO 109 ° 0 min 0 W/m² -2,6 °C -8,6 °C 24,1 km/h (4 Bft)
05.12.2023 05:28 22,1 °C -0,4 °C 45 % 85 % 1007,0 hPa 0,0 l/m² 14,8 km/h (3 Bft) O-SO 113 ° 0 min 0 W/m² -2,6 °C -7,3 °C 22,5 km/h (4 Bft)
05.12.2023 05:30 22,1 °C -0,5 °C 45 % 86 % 1007,1 hPa 0,0 l/m² 18,3 km/h (3 Bft) SO 125 ° 0 min 0 W/m² -2,5 °C -9,4 °C 22,5 km/h (4 Bft)
05.12.2023 05:31 22,1 °C -0,5 °C 45 % 86 % 1007,0 hPa 0,0 l/m² 16,7 km/h (3 Bft) O-SO 117 ° 0 min 0 W/m² -2,5 °C -8,6 °C 19,3 km/h (3 Bft)
05.12.2023 05:32 22,1 °C -0,5 °C 45 % 86 % 1007,0 hPa 0,0 l/m² 14,8 km/h (3 Bft) O 101 ° 0 min 0 W/m² -2,5 °C -7,5 °C 19,3 km/h (3 Bft)
05.12.2023 05:33 22,1 °C -0,6 °C 45 % 86 % 1007,0 hPa 0,0 l/m² 13,1 km/h (3 Bft) O-SO 109 ° 0 min 0 W/m² -2,6 °C -6,5 °C 17,7 km/h (3 Bft)
05.12.2023 05:36 22,1 °C -0,6 °C 45 % 86 % 1007,0 hPa 0,0 l/m² 17,2 km/h (3 Bft) O-SO 117 ° 0 min 0 W/m² -2,6 °C -9,0 °C 24,1 km/h (4 Bft)
05.12.2023 05:38 22,1 °C -0,6 °C 45 % 86 % 1007,1 hPa 0,0 l/m² 19,1 km/h (3 Bft) O-SO 114 ° 0 min 0 W/m² -2,6 °C -10,0 °C 24,1 km/h (4 Bft)
05.12.2023 05:40 22,1 °C -0,6 °C 45 % 87 % 1007,1 hPa 0,0 l/m² 15,4 km/h (3 Bft) O-SO 109 ° 0 min 0 W/m² -2,5 °C -8,0 °C 20,9 km/h (4 Bft)
05.12.2023 05:41 22,1 °C -0,7 °C 45 % 87 % 1007,0 hPa 0,0 l/m² 17,2 km/h (3 Bft) O-SO 117 ° 0 min 0 W/m² -2,6 °C -9,1 °C 20,9 km/h (4 Bft)
05.12.2023 05:42 22,1 °C -0,7 °C 45 % 87 % 1007,0 hPa 0,0 l/m² 15,4 km/h (3 Bft) O-SO 117 ° 0 min 0 W/m² -2,6 °C -8,1 °C 19,3 km/h (3 Bft)
05.12.2023 05:43 22,1 °C -0,7 °C 45 % 87 % 1007,0 hPa 0,0 l/m² 13,8 km/h (3 Bft) O-SO 122 ° 0 min 0 W/m² -2,6 °C -7,1 °C 17,7 km/h (3 Bft)
05.12.2023 05:45 22,1 °C -0,7 °C 45 % 87 % 1007,0 hPa 0,0 l/m² 13,3 km/h (3 Bft) O-SO 107 ° 0 min 0 W/m² -2,6 °C -6,7 °C 20,9 km/h (4 Bft)
05.12.2023 05:47 22,1 °C -0,7 °C 45 % 87 % 1006,9 hPa 0,0 l/m² 13,5 km/h (3 Bft) O-SO 115 ° 0 min 0 W/m² -2,6 °C -6,9 °C 19,3 km/h (3 Bft)
05.12.2023 05:49 22,1 °C -0,7 °C 45 % 88 % 1006,9 hPa 0,0 l/m² 15,7 km/h (3 Bft) O-SO 123 ° 0 min 0 W/m² -2,4 °C -8,3 °C 20,9 km/h (4 Bft)
05.12.2023 05:51 22,1 °C -0,8 °C 45 % 88 % 1006,9 hPa 0,0 l/m² 13,3 km/h (3 Bft) O-SO 105 ° 0 min 0 W/m² -2,5 °C -6,8 °C 19,3 km/h (3 Bft)
05.12.2023 05:52 22,2 °C -0,8 °C 45 % 88 % 1007,0 hPa 0,0 l/m² 11,2 km/h (2 Bft) O-SO 106 ° 0 min 0 W/m² -2,5 °C -5,3 °C 12,9 km/h (3 Bft)
05.12.2023 05:53 22,2 °C -0,8 °C 45 % 88 % 1007,0 hPa 0,0 l/m² 11,5 km/h (2 Bft) O-SO 104 ° 0 min 0 W/m² -2,5 °C -5,5 °C 14,5 km/h (3 Bft)
05.12.2023 05:55 22,1 °C -0,8 °C 45 % 88 % 1007,0 hPa 0,0 l/m² 16,1 km/h (3 Bft) O 82 ° 0 min 0 W/m² -2,5 °C -8,6 °C 19,3 km/h (3 Bft)
05.12.2023 05:56 22,1 °C -0,8 °C 45 % 88 % 1006,9 hPa 0,0 l/m² 14,8 km/h (3 Bft) O-SO 109 ° 0 min 0 W/m² -2,5 °C -7,8 °C 19,3 km/h (3 Bft)
05.12.2023 05:58 22,1 °C -0,8 °C 45 % 88 % 1006,9 hPa 0,0 l/m² 14,3 km/h (3 Bft) O-SO 103 ° 0 min 0 W/m² -2,5 °C -7,5 °C 19,3 km/h (3 Bft)
05.12.2023 06:00 22,1 °C -0,8 °C 45 % 88 % 1007,0 hPa 0,0 l/m² 15,1 km/h (3 Bft) O-SO 115 ° 0 min 0 W/m² -2,5 °C -8,0 °C 19,3 km/h (3 Bft)
05.12.2023 06:01 22,2 °C -0,8 °C 45 % 88 % 1006,8 hPa 0,0 l/m² 13,6 km/h (3 Bft) O 92 ° 0 min 0 W/m² -2,5 °C -7,0 °C 17,7 km/h (3 Bft)
05.12.2023 06:02 22,1 °C -0,9 °C 45 % 88 % 1006,9 hPa 0,0 l/m² 14,9 km/h (3 Bft) O-SO 112 ° 0 min 0 W/m² -2,6 °C -8,0 °C 19,3 km/h (3 Bft)
05.12.2023 06:03 22,1 °C -0,9 °C 45 % 88 % 1006,9 hPa 0,0 l/m² 16,0 km/h (3 Bft) O-SO 121 ° 0 min 0 W/m² -2,6 °C -8,7 °C 20,9 km/h (4 Bft)
05.12.2023 06:06 22,1 °C -0,8 °C 45 % 89 % 1006,9 hPa 0,0 l/m² 13,6 km/h (3 Bft) O-SO 115 ° 0 min 0 W/m² -2,4 °C -7,0 °C 22,5 km/h (4 Bft)
05.12.2023 06:08 22,1 °C -0,8 °C 45 % 89 % 1006,9 hPa 0,0 l/m² 12,2 km/h (2 Bft) O-SO 110 ° 0 min 0 W/m² -2,4 °C -6,1 °C 17,7 km/h (3 Bft)
05.12.2023 06:10 22,1 °C -0,9 °C 45 % 89 % 1006,9 hPa 0,0 l/m² 15,7 km/h (3 Bft) O 97 ° 0 min 0 W/m² -2,5 °C -8,5 °C 20,9 km/h (4 Bft)
05.12.2023 06:11 22,1 °C -0,9 °C 45 % 89 % 1006,9 hPa 0,0 l/m² 12,4 km/h (2 Bft) O-SO 104 ° 0 min 0 W/m² -2,5 °C -6,3 °C 16,1 km/h (3 Bft)
05.12.2023 06:12 22,1 °C -0,9 °C 45 % 89 % 1006,8 hPa 0,0 l/m² 13,3 km/h (3 Bft) SO 126 ° 0 min 0 W/m² -2,5 °C -7,0 °C 16,1 km/h (3 Bft)
05.12.2023 06:13 22,1 °C -0,9 °C 45 % 89 % 1006,8 hPa 0,0 l/m² 11,6 km/h (2 Bft) O-SO 119 ° 0 min 0 W/m² -2,5 °C -5,7 °C 14,5 km/h (3 Bft)
05.12.2023 06:15 22,1 °C -0,9 °C 45 % 89 % 1006,8 hPa 0,0 l/m² 11,2 km/h (2 Bft) O-SO 108 ° 0 min 0 W/m² -2,5 °C -5,4 °C 14,5 km/h (3 Bft)
05.12.2023 06:17 22,1 °C -0,9 °C 45 % 90 % 1006,9 hPa 0,0 l/m² 11,8 km/h (2 Bft) O-SO 102 ° 0 min 0 W/m² -2,3 °C -5,9 °C 16,1 km/h (3 Bft)
05.12.2023 06:19 22,1 °C -1,0 °C 45 % 90 % 1006,8 hPa 0,0 l/m² 13,4 km/h (3 Bft) O-SO 119 ° 0 min 0 W/m² -2,4 °C -7,2 °C 17,7 km/h (3 Bft)
05.12.2023 06:21 22,1 °C -1,0 °C 45 % 90 % 1006,7 hPa 0,0 l/m² 9,9 km/h (2 Bft) O 89 ° 0 min 0 W/m² -2,4 °C -4,5 °C 14,5 km/h (3 Bft)
05.12.2023 06:22 22,1 °C -1,0 °C 45 % 90 % 1006,8 hPa 0,0 l/m² 14,5 km/h (3 Bft) O-SO 109 ° 0 min 0 W/m² -2,4 °C -7,9 °C 17,7 km/h (3 Bft)
05.12.2023 06:23 22,2 °C -1,0 °C 45 % 90 % 1006,8 hPa 0,0 l/m² 12,6 km/h (3 Bft) O 92 ° 0 min 0 W/m² -2,4 °C -6,6 °C 14,5 km/h (3 Bft)
05.12.2023 06:26 22,1 °C -1,0 °C 45 % 90 % 1006,8 hPa 0,0 l/m² 15,0 km/h (3 Bft) O-SO 103 ° 0 min 0 W/m² -2,4 °C -8,2 °C 20,9 km/h (4 Bft)
05.12.2023 06:28 22,1 °C -1,0 °C 45 % 90 % 1006,7 hPa 0,0 l/m² 14,2 km/h (3 Bft) O-SO 109 ° 0 min 0 W/m² -2,4 °C -7,7 °C 19,3 km/h (3 Bft)
05.12.2023 06:30 22,1 °C -1,0 °C 45 % 90 % 1006,8 hPa 0,0 l/m² 14,3 km/h (3 Bft) O-NO 72 ° 0 min 0 W/m² -2,4 °C -7,7 °C 19,3 km/h (3 Bft)
05.12.2023 06:31 22,1 °C -1,0 °C 45 % 90 % 1006,7 hPa 0,0 l/m² 12,7 km/h (3 Bft) O 93 ° 0 min 0 W/m² -2,4 °C -6,7 °C 17,7 km/h (3 Bft)
05.12.2023 06:32 22,1 °C -1,0 °C 45 % 90 % 1006,8 hPa 0,0 l/m² 10,5 km/h (2 Bft) O-SO 108 ° 0 min 0 W/m² -2,4 °C -5,0 °C 12,9 km/h (3 Bft)
05.12.2023 06:33 22,1 °C -0,9 °C 45 % 90 % 1006,8 hPa 0,0 l/m² 14,6 km/h (3 Bft) SO 130 ° 0 min 0 W/m² -2,3 °C -7,8 °C 19,3 km/h (3 Bft)
05.12.2023 06:36 22,1 °C -1,0 °C 45 % 90 % 1006,8 hPa 0,0 l/m² 13,6 km/h (3 Bft) O-SO 102 ° 0 min 0 W/m² -2,4 °C -7,3 °C 20,9 km/h (4 Bft)
05.12.2023 06:38 22,2 °C -1,0 °C 45 % 90 % 1006,8 hPa 0,0 l/m² 13,1 km/h (3 Bft) O 99 ° 0 min 0 W/m² -2,4 °C -6,9 °C 16,1 km/h (3 Bft)
05.12.2023 06:40 22,1 °C -1,0 °C 45 % 90 % 1006,8 hPa 0,0 l/m² 12,0 km/h (2 Bft) O-SO 111 ° 0 min 0 W/m² -2,4 °C -6,2 °C 16,1 km/h (3 Bft)
05.12.2023 06:41 22,1 °C -1,0 °C 45 % 90 % 1006,8 hPa 0,0 l/m² 11,3 km/h (2 Bft) SO 128 ° 0 min 0 W/m² -2,4 °C -5,6 °C 14,5 km/h (3 Bft)
05.12.2023 06:42 22,1 °C -1,0 °C 45 % 90 % 1006,8 hPa 0,0 l/m² 9,8 km/h (2 Bft) O-SO 123 ° 0 min 0 W/m² -2,4 °C -4,4 °C 12,9 km/h (3 Bft)
05.12.2023 06:43 22,1 °C -1,0 °C 45 % 90 % 1006,8 hPa 0,0 l/m² 16,3 km/h (3 Bft) O 93 ° 0 min 0 W/m² -2,4 °C -9,0 °C 22,5 km/h (4 Bft)
05.12.2023 06:45 22,1 °C -1,0 °C 45 % 90 % 1006,7 hPa 0,0 l/m² 13,2 km/h (3 Bft) O-SO 107 ° 0 min 0 W/m² -2,4 °C -7,0 °C 17,7 km/h (3 Bft)
05.12.2023 06:46 22,1 °C -0,9 °C 45 % 90 % 1006,7 hPa 0,0 l/m² 14,5 km/h (3 Bft) O-SO 113 ° 0 min 0 W/m² -2,3 °C -7,8 °C 17,7 km/h (3 Bft)
05.12.2023 06:47 22,1 °C -1,0 °C 45 % 90 % 1006,7 hPa 0,0 l/m² 14,1 km/h (3 Bft) O 82 ° 0 min 0 W/m² -2,4 °C -7,6 °C 17,7 km/h (3 Bft)
05.12.2023 06:49 22,1 °C -1,0 °C 45 % 90 % 1006,8 hPa 0,0 l/m² 13,3 km/h (3 Bft) O 88 ° 0 min 0 W/m² -2,4 °C -7,1 °C 17,7 km/h (3 Bft)
05.12.2023 06:50 22,1 °C -1,0 °C 45 % 90 % 1006,8 hPa 0,0 l/m² 14,9 km/h (3 Bft) O-SO 107 ° 0 min 0 W/m² -2,4 °C -8,1 °C 19,3 km/h (3 Bft)
05.12.2023 06:51 22,1 °C -1,0 °C 45 % 91 % 1006,8 hPa 0,0 l/m² 16,6 km/h (3 Bft) O 94 ° 0 min 0 W/m² -2,3 °C -9,1 °C 19,3 km/h (3 Bft)
05.12.2023 06:52 22,1 °C -0,9 °C 45 % 91 % 1006,8 hPa 0,0 l/m² 17,1 km/h (3 Bft) O 84 ° 0 min 0 W/m² -2,2 °C -9,3 °C 22,5 km/h (4 Bft)
05.12.2023 06:53 22,1 °C -1,0 °C 45 % 91 % 1006,7 hPa 0,0 l/m² 18,0 km/h (3 Bft) SO 130 ° 0 min 0 W/m² -2,3 °C -9,9 °C 24,1 km/h (4 Bft)
05.12.2023 06:54 22,1 °C -0,9 °C 45 % 91 % 1006,7 hPa 0,0 l/m² 20,1 km/h (4 Bft) O 93 ° 0 min 0 W/m² -2,2 °C -10,8 °C 24,1 km/h (4 Bft)
05.12.2023 06:56 22,1 °C -1,0 °C 45 % 91 % 1006,7 hPa 0,0 l/m² 19,2 km/h (3 Bft) O-SO 109 ° 0 min 0 W/m² -2,3 °C -10,5 °C 25,7 km/h (4 Bft)
05.12.2023 06:58 22,1 °C -0,9 °C 45 % 91 % 1006,7 hPa 0,0 l/m² 16,4 km/h (3 Bft) O-SO 121 ° 0 min 0 W/m² -2,2 °C -8,9 °C 20,9 km/h (4 Bft)
05.12.2023 07:00 22,1 °C -0,9 °C 45 % 91 % 1006,7 hPa 0,0 l/m² 15,6 km/h (3 Bft) O-SO 109 ° 0 min 0 W/m² -2,2 °C -8,4 °C 24,1 km/h (4 Bft)
05.12.2023 07:01 22,1 °C -0,9 °C 45 % 91 % 1006,8 hPa 0,0 l/m² 15,5 km/h (3 Bft) O-SO 103 ° 0 min 0 W/m² -2,2 °C -8,4 °C 20,9 km/h (4 Bft)
05.12.2023 07:02 22,1 °C -0,9 °C 45 % 91 % 1006,8 hPa 0,0 l/m² 13,7 km/h (3 Bft) O-SO 111 ° 0 min 0 W/m² -2,2 °C -7,2 °C 17,7 km/h (3 Bft)
05.12.2023 07:03 22,1 °C -0,9 °C 45 % 91 % 1006,7 hPa 0,0 l/m² 15,2 km/h (3 Bft) O-SO 113 ° 0 min 0 W/m² -2,2 °C -8,2 °C 17,7 km/h (3 Bft)
05.12.2023 07:04 22,1 °C -0,9 °C 45 % 91 % 1006,7 hPa 0,0 l/m² 17,0 km/h (3 Bft) SO 129 ° 0 min 0 W/m² -2,2 °C -9,2 °C 20,9 km/h (4 Bft)
05.12.2023 07:06 22,1 °C -0,9 °C 45 % 91 % 1006,7 hPa 0,0 l/m² 15,9 km/h (3 Bft) O-SO 109 ° 0 min 0 W/m² -2,2 °C -8,6 °C 20,9 km/h (4 Bft)
05.12.2023 07:08 22,1 °C -0,9 °C 45 % 91 % 1006,6 hPa 0,0 l/m² 18,9 km/h (3 Bft) O-SO 121 ° 0 min 0 W/m² -2,2 °C -10,3 °C 25,7 km/h (4 Bft)
05.12.2023 07:10 22,1 °C -0,9 °C 45 % 91 % 1006,6 hPa 0,0 l/m² 17,0 km/h (3 Bft) O 98 ° 0 min 0 W/m² -2,2 °C -9,2 °C 22,5 km/h (4 Bft)
05.12.2023 07:11 22,1 °C -0,8 °C 45 % 91 % 1006,6 hPa 0,0 l/m² 19,6 km/h (3 Bft) O-SO 111 ° 0 min 0 W/m² -2,1 °C -10,5 °C 22,5 km/h (4 Bft)
05.12.2023 07:12 22,1 °C -0,8 °C 45 % 90 % 1006,6 hPa 0,0 l/m² 16,4 km/h (3 Bft) O 94 ° 0 min 0 W/m² -2,2 °C -8,8 °C 19,3 km/h (3 Bft)
05.12.2023 07:15 22,1 °C -0,8 °C 45 % 91 % 1006,7 hPa 0,0 l/m² 15,4 km/h (3 Bft) O-SO 113 ° 0 min 0 W/m² -2,1 °C -8,2 °C 22,5 km/h (4 Bft)
05.12.2023 07:17 22,1 °C -0,8 °C 45 % 91 % 1006,7 hPa 0,0 l/m² 14,3 km/h (3 Bft) O-SO 121 ° 0 min 0 W/m² -2,1 °C -7,5 °C 20,9 km/h (4 Bft)
05.12.2023 07:19 22,1 °C -0,7 °C 45 % 91 % 1006,7 hPa 0,0 l/m² 14,1 km/h (3 Bft) O 97 ° 0 min 0 W/m² -2,0 °C -7,3 °C 17,7 km/h (3 Bft)
05.12.2023 07:20 22,1 °C -0,7 °C 45 % 91 % 1006,7 hPa 0,0 l/m² 15,3 km/h (3 Bft) O-SO 105 ° 0 min 0 W/m² -2,0 °C -8,0 °C 20,9 km/h (4 Bft)
05.12.2023 07:21 22,1 °C -0,7 °C 45 % 91 % 1006,7 hPa 0,0 l/m² 22,2 km/h (4 Bft) O-SO 103 ° 0 min 0 W/m² -2,0 °C -11,5 °C 27,4 km/h (5 Bft)
05.12.2023 07:22 22,1 °C -0,7 °C 45 % 91 % 1006,7 hPa 0,0 l/m² 18,5 km/h (3 Bft) O-SO 104 ° 0 min 0 W/m² -2,0 °C -9,8 °C 24,1 km/h (4 Bft)
05.12.2023 07:23 22,1 °C -0,7 °C 45 % 91 % 1006,6 hPa 0,0 l/m² 14,5 km/h (3 Bft) O-SO 105 ° 0 min 0 W/m² -2,0 °C -7,5 °C 17,7 km/h (3 Bft)
05.12.2023 07:24 22,1 °C -0,7 °C 45 % 91 % 1006,7 hPa 0,0 l/m² 15,4 km/h (3 Bft) O 98 ° 0 min 0 W/m² -2,0 °C -8,1 °C 19,3 km/h (3 Bft)
05.12.2023 07:26 22,1 °C -0,6 °C 45 % 91 % 1006,7 hPa 0,0 l/m² 15,7 km/h (3 Bft) O-SO 121 ° 0 min 0 W/m² -1,9 °C -8,1 °C 20,9 km/h (4 Bft)
05.12.2023 07:28 22,1 °C -0,7 °C 45 % 91 % 1006,7 hPa 0,0 l/m² 14,0 km/h (3 Bft) O-SO 104 ° 0 min 0 W/m² -2,0 °C -7,2 °C 17,7 km/h (3 Bft)
05.12.2023 07:30 22,1 °C -0,7 °C 45 % 91 % 1006,7 hPa 0,0 l/m² 12,4 km/h (2 Bft) O 97 ° 0 min 0 W/m² -2,0 °C -6,1 °C 19,3 km/h (3 Bft)
05.12.2023 07:31 22,1 °C -0,6 °C 45 % 91 % 1006,7 hPa 0,0 l/m² 15,3 km/h (3 Bft) O-SO 114 ° 0 min 0 W/m² -1,9 °C -7,9 °C 20,9 km/h (4 Bft)
05.12.2023 07:32 22,1 °C -0,6 °C 45 % 90 % 1006,7 hPa 0,0 l/m² 12,9 km/h (3 Bft) O-SO 102 ° 0 min 0 W/m² -2,0 °C -6,3 °C 14,5 km/h (3 Bft)
05.12.2023 07:33 22,1 °C -0,6 °C 45 % 91 % 1006,7 hPa 0,0 l/m² 10,0 km/h (2 Bft) O-SO 112 ° 0 min 0 W/m² -1,9 °C -4,1 °C 12,9 km/h (3 Bft)
05.12.2023 07:36 22,1 °C -0,6 °C 45 % 90 % 1006,7 hPa 0,0 l/m² 14,5 km/h (3 Bft) O-SO 104 ° 0 min 0 W/m² -2,0 °C -7,4 °C 22,5 km/h (4 Bft)
05.12.2023 07:38 22,1 °C -0,6 °C 45 % 90 % 1006,7 hPa 0,0 l/m² 15,5 km/h (3 Bft) O 92 ° 0 min 0 W/m² -2,0 °C -8,0 °C 19,3 km/h (3 Bft)
05.12.2023 07:40 22,1 °C -0,6 °C 45 % 90 % 1006,7 hPa 0,0 l/m² 13,9 km/h (3 Bft) O-SO 105 ° 0 min 0 W/m² -2,0 °C -7,0 °C 22,5 km/h (4 Bft)
05.12.2023 07:41 22,1 °C -0,6 °C 45 % 90 % 1006,7 hPa 0,0 l/m² 13,6 km/h (3 Bft) O 87 ° 0 min 0 W/m² -2,0 °C -6,8 °C 16,1 km/h (3 Bft)
05.12.2023 07:42 22,1 °C -0,6 °C 45 % 90 % 1006,8 hPa 0,0 l/m² 12,2 km/h (2 Bft) O-SO 103 ° 0 min 0 W/m² -2,0 °C -5,8 °C 16,1 km/h (3 Bft)
05.12.2023 07:43 22,1 °C -0,5 °C 45 % 90 % 1006,8 hPa 0,0 l/m² 12,6 km/h (3 Bft) O-SO 105 ° 0 min 0 W/m² -1,9 °C -6,0 °C 16,1 km/h (3 Bft)
05.12.2023 07:46 22,1 °C -0,5 °C 45 % 90 % 1006,8 hPa 0,0 l/m² 11,6 km/h (2 Bft) O-SO 115 ° 0 min 0 W/m² -1,9 °C -5,3 °C 16,1 km/h (3 Bft)
05.12.2023 07:48 22,1 °C -0,4 °C 45 % 90 % 1006,8 hPa 0,0 l/m² 12,1 km/h (2 Bft) SO 130 ° 0 min 0 W/m² -1,8 °C -5,5 °C 17,7 km/h (3 Bft)
05.12.2023 07:50 22,1 °C -0,4 °C 45 % 90 % 1006,7 hPa 0,0 l/m² 12,6 km/h (3 Bft) O 100 ° 0 min 0 W/m² -1,8 °C -5,9 °C 19,3 km/h (3 Bft)
05.12.2023 07:51 22,1 °C -0,4 °C 45 % 90 % 1006,7 hPa 0,0 l/m² 15,0 km/h (3 Bft) O 97 ° 0 min 0 W/m² -1,8 °C -7,5 °C 17,7 km/h (3 Bft)
05.12.2023 07:52 22,1 °C -0,4 °C 45 % 90 % 1006,7 hPa 0,0 l/m² 11,9 km/h (2 Bft) O-SO 115 ° 0 min 0 W/m² -1,8 °C -5,4 °C 17,7 km/h (3 Bft)
05.12.2023 07:53 22,1 °C -0,4 °C 45 % 90 % 1006,7 hPa 0,0 l/m² 12,8 km/h (3 Bft) O-SO 109 ° 0 min 0 W/m² -1,8 °C -6,0 °C 16,1 km/h (3 Bft)
05.12.2023 07:56 22,1 °C -0,4 °C 45 % 91 % 1006,8 hPa 0,0 l/m² 12,9 km/h (3 Bft) O-SO 107 ° 0 min 0 W/m² -1,7 °C -6,1 °C 20,9 km/h (4 Bft)
05.12.2023 07:58 22,1 °C -0,4 °C 45 % 91 % 1006,7 hPa 0,0 l/m² 13,7 km/h (3 Bft) O 90 ° 0 min 0 W/m² -1,7 °C -6,6 °C 19,3 km/h (3 Bft)
05.12.2023 08:00 22,1 °C -0,4 °C 45 % 91 % 1006,8 hPa 0,0 l/m² 13,8 km/h (3 Bft) O 86 ° 0 min 5 W/m² -1,7 °C -6,7 °C 19,3 km/h (3 Bft)
05.12.2023 08:01 22,1 °C -0,4 °C 45 % 91 % 1006,7 hPa 0,0 l/m² 10,8 km/h (2 Bft) O-SO 111 ° 0 min 5 W/m² -1,7 °C -4,5 °C 16,1 km/h (3 Bft)
05.12.2023 08:02 22,1 °C -0,4 °C 45 % 91 % 1006,7 hPa 0,0 l/m² 12,0 km/h (2 Bft) O 99 ° 0 min 5 W/m² -1,7 °C -5,5 °C 14,5 km/h (3 Bft)
05.12.2023 08:03 22,1 °C -0,4 °C 45 % 91 % 1006,8 hPa 0,0 l/m² 14,3 km/h (3 Bft) O-SO 109 ° 0 min 5 W/m² -1,7 °C -7,0 °C 17,7 km/h (3 Bft)
05.12.2023 08:05 22,1 °C -0,4 °C 45 % 91 % 1006,8 hPa 0,0 l/m² 12,2 km/h (2 Bft) O 79 ° 0 min 7 W/m² -1,7 °C -5,6 °C 16,1 km/h (3 Bft)
05.12.2023 08:06 22,1 °C -0,4 °C 45 % 91 % 1006,8 hPa 0,0 l/m² 11,1 km/h (2 Bft) O-SO 106 ° 0 min 7 W/m² -1,7 °C -4,8 °C 12,9 km/h (3 Bft)
05.12.2023 08:08 22,1 °C -0,4 °C 45 % 91 % 1006,8 hPa 0,0 l/m² 13,9 km/h (3 Bft) O-SO 116 ° 0 min 9 W/m² -1,7 °C -6,8 °C 17,7 km/h (3 Bft)
05.12.2023 08:10 22,1 °C -0,4 °C 45 % 91 % 1006,9 hPa 0,0 l/m² 13,3 km/h (3 Bft) O 86 ° 0 min 9 W/m² -1,7 °C -6,4 °C 17,7 km/h (3 Bft)
05.12.2023 08:11 22,1 °C -0,4 °C 45 % 91 % 1006,8 hPa 0,0 l/m² 13,8 km/h (3 Bft) O-SO 105 ° 0 min 9 W/m² -1,7 °C -6,7 °C 16,1 km/h (3 Bft)
05.12.2023 08:12 22,1 °C -0,4 °C 45 % 91 % 1006,8 hPa 0,0 l/m² 9,9 km/h (2 Bft) O-SO 107 ° 0 min 9 W/m² -1,7 °C -3,8 °C 12,9 km/h (3 Bft)
05.12.2023 08:13 22,1 °C -0,4 °C 45 % 91 % 1006,8 hPa 0,0 l/m² 8,9 km/h (2 Bft) O-SO 121 ° 0 min 9 W/m² -1,7 °C -2,9 °C 11,3 km/h (2 Bft)
05.12.2023 08:16 22,1 °C -0,4 °C 45 % 91 % 1006,8 hPa 0,0 l/m² 14,2 km/h (3 Bft) O-SO 107 ° 0 min 11 W/m² -1,7 °C -7,0 °C 19,3 km/h (3 Bft)
05.12.2023 08:18 22,1 °C -0,3 °C 45 % 91 % 1006,8 hPa 0,0 l/m² 16,5 km/h (3 Bft) O-SO 109 ° 0 min 11 W/m² -1,6 °C -8,2 °C 22,5 km/h (4 Bft)
05.12.2023 08:20 22,1 °C -0,3 °C 45 % 91 % 1006,8 hPa 0,0 l/m² 13,5 km/h (3 Bft) O 100 ° 0 min 11 W/m² -1,6 °C -6,4 °C 19,3 km/h (3 Bft)
05.12.2023 08:21 22,1 °C -0,3 °C 45 % 91 % 1006,8 hPa 0,0 l/m² 12,6 km/h (3 Bft) O-SO 112 ° 0 min 12 W/m² -1,6 °C -5,8 °C 16,1 km/h (3 Bft)
05.12.2023 08:22 22,1 °C -0,3 °C 45 % 91 % 1006,9 hPa 0,0 l/m² 15,0 km/h (3 Bft) O-SO 106 ° 0 min 12 W/m² -1,6 °C -7,3 °C 17,7 km/h (3 Bft)
05.12.2023 08:23 22,1 °C -0,3 °C 45 % 91 % 1006,9 hPa 0,0 l/m² 15,5 km/h (3 Bft) O-SO 117 ° 0 min 12 W/m² -1,6 °C -7,6 °C 17,7 km/h (3 Bft)
05.12.2023 08:25 22,1 °C -0,3 °C 45 % 91 % 1006,8 hPa 0,0 l/m² 13,5 km/h (3 Bft) O 97 ° 0 min 12 W/m² -1,6 °C -6,4 °C 17,7 km/h (3 Bft)
05.12.2023 08:26 22,1 °C -0,3 °C 45 % 91 % 1006,8 hPa 0,0 l/m² 13,2 km/h (3 Bft) O-SO 102 ° 0 min 12 W/m² -1,6 °C -6,2 °C 17,7 km/h (3 Bft)
05.12.2023 08:28 22,1 °C -0,3 °C 45 % 91 % 1006,9 hPa 0,0 l/m² 14,2 km/h (3 Bft) O-SO 103 ° 0 min 14 W/m² -1,6 °C -6,8 °C 19,3 km/h (3 Bft)
05.12.2023 08:30 22,1 °C -0,3 °C 45 % 91 % 1006,8 hPa 0,0 l/m² 12,1 km/h (2 Bft) O 101 ° 0 min 14 W/m² -1,6 °C -5,4 °C 17,7 km/h (3 Bft)
05.12.2023 08:31 22,1 °C -0,3 °C 45 % 91 % 1006,8 hPa 0,0 l/m² 12,5 km/h (2 Bft) O 92 ° 0 min 14 W/m² -1,6 °C -5,7 °C 16,1 km/h (3 Bft)
05.12.2023 08:32 22,1 °C -0,2 °C 45 % 91 % 1006,8 hPa 0,0 l/m² 15,3 km/h (3 Bft) O 97 ° 0 min 14 W/m² -1,5 °C -7,4 °C 19,3 km/h (3 Bft)
05.12.2023 08:33 22,1 °C -0,3 °C 45 % 91 % 1006,8 hPa 0,0 l/m² 11,7 km/h (2 Bft) O 92 ° 0 min 14 W/m² -1,6 °C -5,1 °C 14,5 km/h (3 Bft)
05.12.2023 08:35 22,1 °C -0,3 °C 45 % 91 % 1006,8 hPa 0,0 l/m² 14,0 km/h (3 Bft) O-SO 104 ° 0 min 16 W/m² -1,6 °C -6,7 °C 17,7 km/h (3 Bft)
05.12.2023 08:36 22,1 °C -0,3 °C 45 % 91 % 1006,9 hPa 0,0 l/m² 13,6 km/h (3 Bft) O 81 ° 0 min 16 W/m² -1,6 °C -6,5 °C 19,3 km/h (3 Bft)
05.12.2023 08:38 22,1 °C -0,3 °C 45 % 91 % 1006,8 hPa 0,0 l/m² 16,4 km/h (3 Bft) O 97 ° 0 min 16 W/m² -1,6 °C -8,2 °C 22,5 km/h (4 Bft)
05.12.2023 08:40 22,1 °C -0,2 °C 45 % 91 % 1006,8 hPa 0,0 l/m² 17,5 km/h (3 Bft) O-SO 105 ° 0 min 16 W/m² -1,5 °C -8,6 °C 24,1 km/h (4 Bft)
05.12.2023 08:41 22,1 °C -0,2 °C 45 % 91 % 1006,8 hPa 0,0 l/m² 15,9 km/h (3 Bft) O-SO 106 ° 0 min 16 W/m² -1,5 °C -7,8 °C 17,7 km/h (3 Bft)
05.12.2023 08:42 22,1 °C -0,2 °C 45 % 91 % 1006,9 hPa 0,0 l/m² 15,0 km/h (3 Bft) O-SO 106 ° 0 min 18 W/m² -1,5 °C -7,2 °C 19,3 km/h (3 Bft)
05.12.2023 08:43 22,1 °C -0,2 °C 45 % 91 % 1006,9 hPa 0,0 l/m² 12,9 km/h (3 Bft) O 98 ° 0 min 18 W/m² -1,5 °C -5,9 °C 16,1 km/h (3 Bft)
05.12.2023 08:45 22,1 °C -0,2 °C 45 % 91 % 1006,9 hPa 0,0 l/m² 13,5 km/h (3 Bft) O 90 ° 0 min 19 W/m² -1,5 °C -6,3 °C 19,3 km/h (3 Bft)
05.12.2023 08:46 22,1 °C -0,2 °C 45 % 91 % 1006,8 hPa 0,0 l/m² 12,7 km/h (3 Bft) O 95 ° 0 min 19 W/m² -1,5 °C -5,7 °C 16,1 km/h (3 Bft)
05.12.2023 08:48 22,1 °C -0,2 °C 45 % 91 % 1006,9 hPa 0,0 l/m² 12,4 km/h (2 Bft) O 101 ° 0 min 21 W/m² -1,5 °C -5,5 °C 19,3 km/h (3 Bft)
05.12.2023 08:50 22,1 °C -0,2 °C 45 % 91 % 1006,9 hPa 0,0 l/m² 13,5 km/h (3 Bft) O-SO 107 ° 0 min 23 W/m² -1,5 °C -6,3 °C 17,7 km/h (3 Bft)
05.12.2023 08:52 22,2 °C -0,2 °C 45 % 91 % 1006,9 hPa 0,0 l/m² 11,9 km/h (2 Bft) O 88 ° 0 min 25 W/m² -1,5 °C -5,2 °C 17,7 km/h (3 Bft)
05.12.2023 08:54 22,1 °C -0,2 °C 45 % 91 % 1007,0 hPa 0,0 l/m² 11,0 km/h (2 Bft) O 95 ° 0 min 26 W/m² -1,5 °C -4,5 °C 16,1 km/h (3 Bft)
05.12.2023 08:56 22,1 °C -0,2 °C 45 % 91 % 1006,9 hPa 0,0 l/m² 9,5 km/h (2 Bft) O 89 ° 0 min 28 W/m² -1,5 °C -3,2 °C 14,5 km/h (3 Bft)
05.12.2023 08:58 22,1 °C -0,2 °C 45 % 91 % 1006,8 hPa 0,0 l/m² 13,9 km/h (3 Bft) O 83 ° 0 min 32 W/m² -1,5 °C -6,5 °C 19,3 km/h (3 Bft)
05.12.2023 09:00 22,1 °C -0,1 °C 45 % 91 % 1006,8 hPa 0,0 l/m² 14,8 km/h (3 Bft) O 87 ° 0 min 32 W/m² -1,4 °C -7,0 °C 17,7 km/h (3 Bft)
05.12.2023 09:02 22,1 °C -0,1 °C 45 % 91 % 1006,9 hPa 0,0 l/m² 13,4 km/h (3 Bft) O 88 ° 0 min 32 W/m² -1,4 °C -6,1 °C 17,7 km/h (3 Bft)
05.12.2023 09:04 22,1 °C -0,1 °C 45 % 91 % 1006,9 hPa 0,0 l/m² 14,5 km/h (3 Bft) O 93 ° 0 min 32 W/m² -1,4 °C -6,8 °C 19,3 km/h (3 Bft)
05.12.2023 09:06 22,1 °C -0,1 °C 45 % 91 % 1006,8 hPa 0,0 l/m² 12,6 km/h (3 Bft) O 98 ° 0 min 33 W/m² -1,4 °C -5,5 °C 14,5 km/h (3 Bft)
05.12.2023 09:08 22,1 °C -0,1 °C 45 % 91 % 1006,8 hPa 0,0 l/m² 14,2 km/h (3 Bft) O 101 ° 0 min 33 W/m² -1,4 °C -6,6 °C 17,7 km/h (3 Bft)
05.12.2023 09:10 22,2 °C -0,1 °C 45 % 91 % 1006,8 hPa 0,0 l/m² 13,6 km/h (3 Bft) O-SO 107 ° 0 min 35 W/m² -1,4 °C -6,2 °C 17,7 km/h (3 Bft)
05.12.2023 09:12 22,2 °C -0,1 °C 45 % 91 % 1006,8 hPa 0,0 l/m² 13,6 km/h (3 Bft) O-SO 103 ° 0 min 37 W/m² -1,4 °C -6,2 °C 17,7 km/h (3 Bft)
05.12.2023 09:14 22,1 °C -0,1 °C 45 % 91 % 1006,9 hPa 0,0 l/m² 13,7 km/h (3 Bft) O 84 ° 0 min 40 W/m² -1,4 °C -6,3 °C 17,7 km/h (3 Bft)
05.12.2023 09:16 22,2 °C 0,0 °C 45 % 91 % 1006,9 hPa 0,0 l/m² 15,1 km/h (3 Bft) O 86 ° 0 min 42 W/m² -1,3 °C -7,0 °C 17,7 km/h (3 Bft)
05.12.2023 09:18 22,2 °C 0,0 °C 46 % 91 % 1006,8 hPa 0,0 l/m² 16,5 km/h (3 Bft) O 88 ° 0 min 44 W/m² -1,3 °C -7,8 °C 22,5 km/h (4 Bft)
05.12.2023 09:20 22,2 °C 0,1 °C 46 % 91 % 1006,9 hPa 0,0 l/m² 14,5 km/h (3 Bft) O 89 ° 0 min 47 W/m² -1,2 °C -6,6 °C 19,3 km/h (3 Bft)
05.12.2023 09:22 22,2 °C 0,1 °C 46 % 91 % 1006,8 hPa 0,0 l/m² 14,2 km/h (3 Bft) O 94 ° 0 min 51 W/m² -1,2 °C -6,4 °C 17,7 km/h (3 Bft)
05.12.2023 09:24 22,2 °C 0,1 °C 46 % 91 % 1006,9 hPa 0,0 l/m² 14,8 km/h (3 Bft) O 89 ° 0 min 51 W/m² -1,2 °C -6,7 °C 20,9 km/h (4 Bft)
05.12.2023 09:26 22,2 °C 0,1 °C 46 % 91 % 1006,9 hPa 0,0 l/m² 14,5 km/h (3 Bft) O 86 ° 2 min 53 W/m² -1,2 °C -6,6 °C 17,7 km/h (3 Bft)
05.12.2023 09:28 22,2 °C 0,1 °C 46 % 91 % 1006,9 hPa 0,0 l/m² 14,1 km/h (3 Bft) O 81 ° 2 min 53 W/m² -1,2 °C -6,3 °C 19,3 km/h (3 Bft)
05.12.2023 09:30 22,2 °C 0,2 °C 46 % 91 % 1006,9 hPa 0,0 l/m² 15,9 km/h (3 Bft) O-SO 103 ° 2 min 56 W/m² -1,1 °C -7,3 °C 20,9 km/h (4 Bft)
05.12.2023 09:32 22,2 °C 0,2 °C 46 % 91 % 1006,9 hPa 0,0 l/m² 13,7 km/h (3 Bft) O 92 ° 2 min 58 W/m² -1,1 °C -5,9 °C 19,3 km/h (3 Bft)
05.12.2023 09:34 22,2 °C 0,2 °C 46 % 91 % 1006,9 hPa 0,0 l/m² 14,9 km/h (3 Bft) O 96 ° 2 min 62 W/m² -1,1 °C -6,7 °C 20,9 km/h (4 Bft)
05.12.2023 09:36 22,2 °C 0,2 °C 46 % 91 % 1006,8 hPa 0,0 l/m² 17,2 km/h (3 Bft) O 98 ° 2 min 63 W/m² -1,1 °C -8,0 °C 22,5 km/h (4 Bft)
05.12.2023 09:38 22,2 °C 0,2 °C 46 % 91 % 1006,8 hPa 0,0 l/m² 15,9 km/h (3 Bft) O 81 ° 2 min 69 W/m² -1,1 °C -7,3 °C 19,3 km/h (3 Bft)
05.12.2023 09:40 22,2 °C 0,2 °C 46 % 91 % 1006,9 hPa 0,0 l/m² 16,6 km/h (3 Bft) O 90 ° 2 min 72 W/m² -1,1 °C -7,7 °C 19,3 km/h (3 Bft)
05.12.2023 09:42 22,3 °C 0,2 °C 46 % 91 % 1006,9 hPa 0,0 l/m² 16,2 km/h (3 Bft) O 85 ° 2 min 76 W/m² -1,1 °C -7,4 °C 20,9 km/h (4 Bft)
05.12.2023 09:44 22,3 °C 0,2 °C 46 % 91 % 1006,9 hPa 0,0 l/m² 13,4 km/h (3 Bft) O 86 ° 2 min 84 W/m² -1,1 °C -5,7 °C 17,7 km/h (3 Bft)
05.12.2023 09:46 22,3 °C 0,3 °C 46 % 91 % 1006,9 hPa 0,0 l/m² 16,4 km/h (3 Bft) O-NO 71 ° 2 min 90 W/m² -1,0 °C -7,4 °C 22,5 km/h (4 Bft)
05.12.2023 09:47 22,3 °C 0,3 °C 46 % 91 % 1006,9 hPa 0,0 l/m² 16,0 km/h (3 Bft) O 94 ° 1 min 91 W/m² -1,0 °C -7,2 °C 17,7 km/h (3 Bft)
05.12.2023 09:49 22,2 °C 0,3 °C 46 % 91 % 1006,9 hPa 0,0 l/m² 17,3 km/h (3 Bft) O 84 ° 2 min 98 W/m² -1,0 °C -7,9 °C 22,5 km/h (4 Bft)
05.12.2023 09:51 22,3 °C 0,3 °C 46 % 91 % 1006,9 hPa 0,0 l/m² 19,1 km/h (3 Bft) O 90 ° 2 min 100 W/m² -1,0 °C -8,8 °C 24,1 km/h (4 Bft)
05.12.2023 09:53 22,3 °C 0,3 °C 46 % 91 % 1006,9 hPa 0,0 l/m² 17,8 km/h (3 Bft) O 92 ° 2 min 98 W/m² -1,0 °C -8,2 °C 22,5 km/h (4 Bft)
05.12.2023 09:55 22,3 °C 0,3 °C 46 % 91 % 1007,0 hPa 0,0 l/m² 16,0 km/h (3 Bft) O 86 ° 2 min 95 W/m² -1,0 °C -7,2 °C 19,3 km/h (3 Bft)
05.12.2023 09:57 22,3 °C 0,4 °C 46 % 91 % 1007,0 hPa 0,0 l/m² 16,7 km/h (3 Bft) O 93 ° 2 min 95 W/m² -0,9 °C -7,5 °C 20,9 km/h (4 Bft)
05.12.2023 09:59 22,3 °C 0,4 °C 45 % 91 % 1007,0 hPa 0,0 l/m² 16,0 km/h (3 Bft) O 90 ° 2 min 97 W/m² -0,9 °C -7,1 °C 20,9 km/h (4 Bft)
05.12.2023 10:01 22,2 °C 0,4 °C 45 % 91 % 1007,0 hPa 0,0 l/m² 18,6 km/h (3 Bft) O 89 ° 2 min 102 W/m² -0,9 °C -8,4 °C 22,5 km/h (4 Bft)
05.12.2023 10:03 22,3 °C 0,4 °C 45 % 91 % 1006,9 hPa 0,0 l/m² 16,7 km/h (3 Bft) O 83 ° 2 min 104 W/m² -0,9 °C -7,5 °C 19,3 km/h (3 Bft)
05.12.2023 10:05 22,3 °C 0,4 °C 45 % 91 % 1006,9 hPa 0,0 l/m² 16,9 km/h (3 Bft) O 90 ° 2 min 105 W/m² -0,9 °C -7,6 °C 19,3 km/h (3 Bft)
05.12.2023 10:07 22,2 °C 0,5 °C 45 % 91 % 1006,9 hPa 0,0 l/m² 17,1 km/h (3 Bft) O 89 ° 2 min 111 W/m² -0,8 °C -7,6 °C 22,5 km/h (4 Bft)
05.12.2023 10:09 22,2 °C 0,4 °C 45 % 91 % 1006,9 hPa 0,0 l/m² 14,3 km/h (3 Bft) O 81 ° 2 min 120 W/m² -0,9 °C -6,1 °C 16,1 km/h (3 Bft)
05.12.2023 10:11 22,3 °C 0,6 °C 45 % 91 % 1007,0 hPa 0,0 l/m² 15,9 km/h (3 Bft) O 92 ° 2 min 125 W/m² -0,7 °C -6,8 °C 19,3 km/h (3 Bft)
05.12.2023 10:13 22,3 °C 0,6 °C 45 % 91 % 1007,0 hPa 0,0 l/m² 14,0 km/h (3 Bft) O-SO 105 ° 2 min 118 W/m² -0,7 °C -5,6 °C 17,7 km/h (3 Bft)
05.12.2023 10:15 22,2 °C 0,6 °C 45 % 91 % 1007,0 hPa 0,0 l/m² 12,5 km/h (2 Bft) O 97 ° 2 min 118 W/m² -0,7 °C -4,7 °C 16,1 km/h (3 Bft)
05.12.2023 10:17 22,3 °C 0,7 °C 45 % 91 % 1007,1 hPa 0,0 l/m² 12,1 km/h (2 Bft) O 94 ° 2 min 120 W/m² -0,6 °C -4,3 °C 16,1 km/h (3 Bft)
05.12.2023 10:19 22,3 °C 0,7 °C 45 % 91 % 1007,0 hPa 0,0 l/m² 11,4 km/h (2 Bft) O 96 ° 2 min 116 W/m² -0,6 °C -3,8 °C 16,1 km/h (3 Bft)
05.12.2023 10:21 22,2 °C 0,7 °C 45 % 91 % 1007,1 hPa 0,0 l/m² 11,0 km/h (2 Bft) O 91 ° 2 min 109 W/m² -0,6 °C -3,5 °C 14,5 km/h (3 Bft)
05.12.2023 10:22 22,3 °C 0,8 °C 45 % 91 % 1007,1 hPa 0,0 l/m² 11,9 km/h (2 Bft) O-SO 111 ° 1 min 105 W/m² -0,5 °C -4,0 °C 14,5 km/h (3 Bft)
05.12.2023 10:23 22,3 °C 0,8 °C 45 % 91 % 1007,1 hPa 0,0 l/m² 10,7 km/h (2 Bft) O 95 ° 1 min 102 W/m² -0,5 °C -3,1 °C 14,5 km/h (3 Bft)
05.12.2023 10:25 22,2 °C 0,8 °C 46 % 91 % 1007,1 hPa 0,0 l/m² 12,9 km/h (3 Bft) O-SO 103 ° 2 min 91 W/m² -0,5 °C -4,7 °C 16,1 km/h (3 Bft)
05.12.2023 10:27 22,3 °C 0,8 °C 46 % 91 % 1007,1 hPa 0,0 l/m² 12,1 km/h (2 Bft) O 84 ° 2 min 90 W/m² -0,5 °C -4,2 °C 16,1 km/h (3 Bft)
05.12.2023 10:29 22,3 °C 0,8 °C 46 % 91 % 1007,0 hPa 0,0 l/m² 15,2 km/h (3 Bft) O 86 ° 2 min 86 W/m² -0,5 °C -6,1 °C 17,7 km/h (3 Bft)
05.12.2023 10:31 22,3 °C 0,8 °C 46 % 91 % 1007,1 hPa 0,0 l/m² 13,7 km/h (3 Bft) O 98 ° 2 min 86 W/m² -0,5 °C -5,2 °C 17,7 km/h (3 Bft)
05.12.2023 10:33 22,3 °C 0,8 °C 46 % 91 % 1007,0 hPa 0,0 l/m² 11,7 km/h (2 Bft) O 96 ° 2 min 90 W/m² -0,5 °C -3,9 °C 16,1 km/h (3 Bft)
05.12.2023 10:35 22,3 °C 0,8 °C 46 % 91 % 1007,1 hPa 0,0 l/m² 10,3 km/h (2 Bft) O 91 ° 2 min 93 W/m² -0,5 °C -2,8 °C 16,1 km/h (3 Bft)
05.12.2023 10:37 22,3 °C 0,8 °C 46 % 91 % 1007,0 hPa 0,0 l/m² 11,1 km/h (2 Bft) O-SO 105 ° 2 min 100 W/m² -0,5 °C -3,4 °C 14,5 km/h (3 Bft)
05.12.2023 10:39 22,2 °C 0,8 °C 46 % 91 % 1007,0 hPa 0,0 l/m² 14,8 km/h (3 Bft) O-SO 118 ° 2 min 102 W/m² -0,5 °C -5,9 °C 22,5 km/h (4 Bft)
05.12.2023 10:41 22,3 °C 0,8 °C 46 % 91 % 1007,1 hPa 0,0 l/m² 10,6 km/h (2 Bft) O 88 ° 2 min 104 W/m² -0,5 °C -3,0 °C 14,5 km/h (3 Bft)
05.12.2023 10:43 22,3 °C 0,9 °C 46 % 91 % 1007,1 hPa 0,0 l/m² 11,3 km/h (2 Bft) O 88 ° 2 min 107 W/m² -0,4 °C -3,5 °C 16,1 km/h (3 Bft)
05.12.2023 10:45 22,3 °C 0,9 °C 46 % 91 % 1007,1 hPa 0,0 l/m² 13,3 km/h (3 Bft) O-NO 63 ° 2 min 113 W/m² -0,4 °C -4,8 °C 16,1 km/h (3 Bft)
05.12.2023 10:47 22,3 °C 0,9 °C 46 % 91 % 1007,0 hPa 0,0 l/m² 15,7 km/h (3 Bft) N-NO 27 ° 2 min 120 W/m² -0,4 °C -6,3 °C 19,3 km/h (3 Bft)
05.12.2023 10:49 22,3 °C 1,0 °C 45 % 91 % 1007,0 hPa 0,0 l/m² 14,5 km/h (3 Bft) O 83 ° 2 min 128 W/m² -0,3 °C -5,5 °C 19,3 km/h (3 Bft)
05.12.2023 10:51 22,3 °C 1,1 °C 45 % 91 % 1007,1 hPa 0,0 l/m² 12,9 km/h (3 Bft) O 79 ° 2 min 132 W/m² -0,2 °C -4,3 °C 17,7 km/h (3 Bft)
05.12.2023 10:53 22,3 °C 1,1 °C 45 % 91 % 1007,0 hPa 0,0 l/m² 11,5 km/h (2 Bft) O 88 ° 2 min 137 W/m² -0,2 °C -3,4 °C 16,1 km/h (3 Bft)
05.12.2023 10:55 22,3 °C 1,1 °C 45 % 91 % 1007,1 hPa 0,0 l/m² 11,7 km/h (2 Bft) O 91 ° 2 min 142 W/m² -0,2 °C -3,5 °C 14,5 km/h (3 Bft)
05.12.2023 10:57 22,3 °C 1,1 °C 45 % 90 % 1007,1 hPa 0,0 l/m² 12,6 km/h (3 Bft) O 101 ° 2 min 141 W/m² -0,4 °C -4,1 °C 16,1 km/h (3 Bft)
05.12.2023 10:59 22,3 °C 1,1 °C 45 % 90 % 1007,0 hPa 0,0 l/m² 11,6 km/h (2 Bft) O 90 ° 2 min 135 W/m² -0,4 °C -3,5 °C 14,5 km/h (3 Bft)
05.12.2023 11:01 22,3 °C 1,1 °C 45 % 90 % 1007,1 hPa 0,0 l/m² 9,1 km/h (2 Bft) O 99 ° 2 min 128 W/m² -0,4 °C -1,5 °C 14,5 km/h (3 Bft)
05.12.2023 11:03 22,2 °C 1,2 °C 45 % 90 % 1007,1 hPa 0,0 l/m² 8,6 km/h (2 Bft) O 101 ° 2 min 125 W/m² -0,3 °C -0,9 °C 11,3 km/h (2 Bft)
05.12.2023 11:05 22,3 °C 1,2 °C 45 % 90 % 1007,1 hPa 0,0 l/m² 11,0 km/h (2 Bft) O 95 ° 2 min 125 W/m² -0,3 °C -2,9 °C 16,1 km/h (3 Bft)
05.12.2023 11:07 22,3 °C 1,2 °C 45 % 90 % 1007,1 hPa 0,0 l/m² 9,4 km/h (2 Bft) O 88 ° 2 min 125 W/m² -0,3 °C -1,6 °C 11,3 km/h (2 Bft)
05.12.2023 11:09 22,2 °C 1,2 °C 45 % 90 % 1007,0 hPa 0,0 l/m² 11,7 km/h (2 Bft) O 82 ° 2 min 125 W/m² -0,3 °C -3,4 °C 14,5 km/h (3 Bft)
05.12.2023 11:11 22,2 °C 1,2 °C 45 % 90 % 1006,9 hPa 0,0 l/m² 11,4 km/h (2 Bft) O 94 ° 2 min 125 W/m² -0,3 °C -3,2 °C 14,5 km/h (3 Bft)
05.12.2023 11:13 22,2 °C 1,2 °C 45 % 90 % 1007,0 hPa 0,0 l/m² 8,8 km/h (2 Bft) O 88 ° 2 min 127 W/m² -0,3 °C -1,1 °C 11,3 km/h (2 Bft)
05.12.2023 11:15 22,2 °C 1,3 °C 45 % 90 % 1007,0 hPa 0,0 l/m² 8,6 km/h (2 Bft) O 84 ° 2 min 127 W/m² -0,2 °C -0,8 °C 12,9 km/h (3 Bft)
05.12.2023 11:17 22,2 °C 1,2 °C 45 % 90 % 1006,9 hPa 0,0 l/m² 7,1 km/h (2 Bft) O 99 ° 2 min 125 W/m² -0,3 °C 0,5 °C 11,3 km/h (2 Bft)
05.12.2023 11:19 22,2 °C 1,2 °C 45 % 90 % 1006,9 hPa 0,0 l/m² 6,9 km/h (2 Bft) O-SO 107 ° 2 min 127 W/m² -0,3 °C 0,7 °C 9,7 km/h (2 Bft)
05.12.2023 11:21 22,2 °C 1,2 °C 45 % 90 % 1006,8 hPa 0,0 l/m² 8,9 km/h (2 Bft) O 84 ° 2 min 123 W/m² -0,3 °C -1,2 °C 11,3 km/h (2 Bft)
05.12.2023 11:23 22,2 °C 1,3 °C 46 % 90 % 1006,9 hPa 0,0 l/m² 9,9 km/h (2 Bft) O 86 ° 2 min 123 W/m² -0,2 °C -1,9 °C 14,5 km/h (3 Bft)
05.12.2023 11:24 22,2 °C 1,3 °C 45 % 90 % 1006,9 hPa 0,0 l/m² 7,7 km/h (2 Bft) O-NO 76 ° 1 min 121 W/m² -0,2 °C 0,0 °C 11,3 km/h (2 Bft)
05.12.2023 11:25 22,2 °C 1,3 °C 46 % 90 % 1006,8 hPa 0,0 l/m² 8,5 km/h (2 Bft) O 95 ° 1 min 120 W/m² -0,2 °C -0,7 °C 11,3 km/h (2 Bft)
05.12.2023 11:27 22,2 °C 1,3 °C 46 % 90 % 1006,8 hPa 0,0 l/m² 6,9 km/h (2 Bft) O 80 ° 2 min 127 W/m² -0,2 °C 0,8 °C 11,3 km/h (2 Bft)
05.12.2023 11:29 22,2 °C 1,3 °C 46 % 89 % 1006,9 hPa 0,0 l/m² 6,4 km/h (2 Bft) O 93 ° 2 min 132 W/m² -0,3 °C 1,3 °C 12,9 km/h (3 Bft)
05.12.2023 11:31 22,2 °C 1,3 °C 46 % 89 % 1006,9 hPa 0,0 l/m² 4,6 km/h (1 Bft) O 92 ° 2 min 137 W/m² -0,3 °C 1,3 °C 6,4 km/h (2 Bft)
05.12.2023 11:33 22,2 °C 1,3 °C 46 % 89 % 1006,8 hPa 0,0 l/m² 8,2 km/h (2 Bft) O 95 ° 2 min 137 W/m² -0,3 °C -0,5 °C 11,3 km/h (2 Bft)
05.12.2023 11:35 22,2 °C 1,4 °C 46 % 89 % 1006,8 hPa 0,0 l/m² 8,4 km/h (2 Bft) O 79 ° 2 min 139 W/m² -0,2 °C -0,5 °C 12,9 km/h (3 Bft)
05.12.2023 11:36 22,2 °C 1,4 °C 46 % 89 % 1006,8 hPa 0,0 l/m² 5,2 km/h (1 Bft) O 98 ° 1 min 149 W/m² -0,2 °C 1,4 °C 6,4 km/h (2 Bft)
05.12.2023 11:38 22,2 °C 1,4 °C 46 % 89 % 1006,9 hPa 0,0 l/m² 5,9 km/h (2 Bft) O 86 ° 2 min 169 W/m² -0,2 °C 1,4 °C 8,0 km/h (2 Bft)
05.12.2023 11:40 22,2 °C 1,4 °C 46 % 89 % 1006,8 hPa 0,0 l/m² 7,6 km/h (2 Bft) O 83 ° 2 min 188 W/m² -0,2 °C 0,2 °C 11,3 km/h (2 Bft)
05.12.2023 11:42 22,2 °C 1,6 °C 46 % 89 % 1006,9 hPa 0,0 l/m² 7,1 km/h (2 Bft) O 97 ° 2 min 181 W/m² -0,0 °C 0,9 °C 11,3 km/h (2 Bft)
05.12.2023 11:43 22,2 °C 1,5 °C 46 % 89 % 1006,8 hPa 0,0 l/m² 5,9 km/h (2 Bft) O 91 ° 1 min 176 W/m² -0,1 °C 1,5 °C 9,7 km/h (2 Bft)
05.12.2023 11:44 22,2 °C 1,6 °C 46 % 89 % 1006,8 hPa 0,0 l/m² 4,4 km/h (1 Bft) O 90 ° 1 min 165 W/m² -0,0 °C 1,6 °C 4,8 km/h (1 Bft)
05.12.2023 11:46 22,2 °C 1,6 °C 46 % 89 % 1006,9 hPa 0,0 l/m² 5,0 km/h (1 Bft) O 88 ° 2 min 146 W/m² -0,0 °C 1,6 °C 6,4 km/h (2 Bft)
05.12.2023 11:48 22,2 °C 1,6 °C 46 % 89 % 1006,9 hPa 0,0 l/m² 5,9 km/h (2 Bft) O 100 ° 2 min 142 W/m² -0,0 °C 1,6 °C 9,7 km/h (2 Bft)
05.12.2023 11:50 22,2 °C 1,6 °C 46 % 89 % 1006,9 hPa 0,0 l/m² 6,5 km/h (2 Bft) O 85 ° 2 min 148 W/m² -0,0 °C 1,5 °C 9,7 km/h (2 Bft)
05.12.2023 11:52 22,2 °C 1,6 °C 46 % 88 % 1006,9 hPa 0,0 l/m² 8,7 km/h (2 Bft) O-SO 106 ° 2 min 162 W/m² -0,2 °C -0,6 °C 12,9 km/h (3 Bft)
05.12.2023 11:53 22,2 °C 1,6 °C 46 % 89 % 1006,9 hPa 0,0 l/m² 9,8 km/h (2 Bft) O 87 ° 1 min 162 W/m² -0,0 °C -1,5 °C 12,9 km/h (3 Bft)
05.12.2023 11:54 22,2 °C 1,6 °C 46 % 89 % 1006,9 hPa 0,0 l/m² 7,4 km/h (2 Bft) O 88 ° 1 min 163 W/m² -0,0 °C 0,6 °C 11,3 km/h (2 Bft)
05.12.2023 11:56 22,2 °C 1,6 °C 46 % 88 % 1006,9 hPa 0,0 l/m² 10,3 km/h (2 Bft) O 91 ° 2 min 163 W/m² -0,2 °C -1,9 °C 14,5 km/h (3 Bft)
05.12.2023 11:58 22,2 °C 1,7 °C 46 % 88 % 1006,9 hPa 0,0 l/m² 12,3 km/h (2 Bft) O 84 ° 2 min 139 W/m² -0,1 °C -3,2 °C 14,5 km/h (3 Bft)
05.12.2023 12:00 22,2 °C 1,7 °C 46 % 88 % 1006,8 hPa 0,0 l/m² 11,3 km/h (2 Bft) O 86 ° 2 min 139 W/m² -0,1 °C -2,6 °C 14,5 km/h (3 Bft)
05.12.2023 12:02 22,2 °C 1,7 °C 46 % 88 % 1006,9 hPa 0,0 l/m² 9,6 km/h (2 Bft) O 88 ° 2 min 160 W/m² -0,1 °C -1,3 °C 11,3 km/h (2 Bft)
05.12.2023 12:03 22,2 °C 1,7 °C 46 % 88 % 1006,8 hPa 0,0 l/m² 9,8 km/h (2 Bft) O 87 ° 1 min 171 W/m² -0,1 °C -1,4 °C 12,9 km/h (3 Bft)
05.12.2023 12:04 22,2 °C 1,7 °C 46 % 88 % 1006,8 hPa 0,0 l/m² 12,2 km/h (2 Bft) O-SO 103 ° 1 min 162 W/m² -0,1 °C -3,2 °C 14,5 km/h (3 Bft)
05.12.2023 12:06 22,2 °C 1,7 °C 46 % 88 % 1006,8 hPa 0,0 l/m² 11,0 km/h (2 Bft) O 94 ° 2 min 146 W/m² -0,1 °C -2,3 °C 12,9 km/h (3 Bft)
05.12.2023 12:07 22,2 °C 1,7 °C 46 % 88 % 1006,8 hPa 0,0 l/m² 12,3 km/h (2 Bft) O-NO 74 ° 1 min 137 W/m² -0,1 °C -3,2 °C 16,1 km/h (3 Bft)
05.12.2023 12:08 22,2 °C 1,7 °C 46 % 88 % 1006,8 hPa 0,0 l/m² 12,6 km/h (3 Bft) O-NO 73 ° 1 min 128 W/m² -0,1 °C -3,4 °C 14,5 km/h (3 Bft)
05.12.2023 12:10 22,2 °C 1,7 °C 46 % 88 % 1006,7 hPa 0,0 l/m² 11,3 km/h (2 Bft) O 90 ° 2 min 113 W/m² -0,1 °C -2,6 °C 14,5 km/h (3 Bft)
05.12.2023 12:12 22,2 °C 1,8 °C 46 % 88 % 1006,8 hPa 0,0 l/m² 10,0 km/h (2 Bft) O 82 ° 2 min 104 W/m² 0,0 °C -1,5 °C 14,5 km/h (3 Bft)
05.12.2023 12:13 22,2 °C 1,8 °C 46 % 88 % 1006,7 hPa 0,0 l/m² 11,9 km/h (2 Bft) O 95 ° 1 min 118 W/m² 0,0 °C -2,9 °C 14,5 km/h (3 Bft)
05.12.2023 12:14 22,2 °C 1,8 °C 46 % 88 % 1006,7 hPa 0,0 l/m² 11,7 km/h (2 Bft) O 92 ° 1 min 118 W/m² 0,0 °C -2,7 °C 14,5 km/h (3 Bft)
05.12.2023 12:16 22,2 °C 1,8 °C 46 % 88 % 1006,8 hPa 0,0 l/m² 9,5 km/h (2 Bft) O 95 ° 2 min 142 W/m² 0,0 °C -1,1 °C 12,9 km/h (3 Bft)
05.12.2023 12:18 22,2 °C 1,8 °C 46 % 88 % 1006,8 hPa 0,0 l/m² 12,0 km/h (2 Bft) O 82 ° 2 min 162 W/m² 0,0 °C -2,9 °C 14,5 km/h (3 Bft)
05.12.2023 12:20 22,2 °C 1,8 °C 46 % 88 % 1006,7 hPa 0,0 l/m² 12,2 km/h (2 Bft) O 99 ° 2 min 179 W/m² 0,0 °C -3,1 °C 16,1 km/h (3 Bft)
05.12.2023 12:22 22,2 °C 1,8 °C 46 % 88 % 1006,8 hPa 0,0 l/m² 11,7 km/h (2 Bft) O 91 ° 2 min 195 W/m² 0,0 °C -2,7 °C 14,5 km/h (3 Bft)
05.12.2023 12:23 22,2 °C 1,8 °C 46 % 88 % 1006,8 hPa 0,0 l/m² 12,7 km/h (3 Bft) O 90 ° 1 min 202 W/m² 0,0 °C -3,4 °C 16,1 km/h (3 Bft)
05.12.2023 12:24 22,2 °C 1,9 °C 46 % 87 % 1006,8 hPa 0,0 l/m² 12,3 km/h (2 Bft) O 90 ° 1 min 207 W/m² -0,0 °C -3,0 °C 16,1 km/h (3 Bft)
05.12.2023 12:26 22,2 °C 1,9 °C 46 % 87 % 1006,8 hPa 0,0 l/m² 10,6 km/h (2 Bft) O-SO 109 ° 2 min 216 W/m² -0,0 °C -1,8 °C 12,9 km/h (3 Bft)
05.12.2023 12:28 22,2 °C 1,9 °C 46 % 87 % 1006,7 hPa 0,0 l/m² 10,2 km/h (2 Bft) O-SO 107 ° 2 min 207 W/m² -0,0 °C -1,5 °C 16,1 km/h (3 Bft)
05.12.2023 12:30 22,2 °C 1,9 °C 46 % 87 % 1006,6 hPa 0,2 l/m² 11,6 km/h (2 Bft) O 90 ° 2 min 188 W/m² -0,0 °C -2,5 °C 14,5 km/h (3 Bft)
05.12.2023 12:32 22,2 °C 1,9 °C 46 % 87 % 1006,7 hPa 0,0 l/m² 7,7 km/h (2 Bft) SO 130 ° 2 min 165 W/m² -0,0 °C 0,6 °C 12,9 km/h (3 Bft)
05.12.2023 12:34 22,2 °C 1,9 °C 46 % 87 % 1006,7 hPa 0,0 l/m² 10,1 km/h (2 Bft) O-SO 117 ° 2 min 148 W/m² -0,0 °C -1,4 °C 14,5 km/h (3 Bft)
05.12.2023 12:36 22,2 °C 2,0 °C 46 % 87 % 1006,7 hPa 0,0 l/m² 9,2 km/h (2 Bft) O 98 ° 2 min 139 W/m² 0,1 °C -0,6 °C 14,5 km/h (3 Bft)
05.12.2023 12:38 22,2 °C 2,0 °C 46 % 87 % 1006,8 hPa 0,2 l/m² 8,9 km/h (2 Bft) O-SO 108 ° 2 min 134 W/m² 0,1 °C -0,3 °C 11,3 km/h (2 Bft)
05.12.2023 12:40 22,2 °C 2,0 °C 46 % 87 % 1006,7 hPa 0,0 l/m² 6,5 km/h (2 Bft) O 88 ° 2 min 127 W/m² 0,1 °C 1,9 °C 9,7 km/h (2 Bft)
05.12.2023 12:42 22,2 °C 2,1 °C 46 % 87 % 1006,8 hPa 0,0 l/m² 10,2 km/h (2 Bft) O-SO 105 ° 2 min 123 W/m² 0,2 °C -1,3 °C 14,5 km/h (3 Bft)
05.12.2023 12:44 22,2 °C 2,1 °C 45 % 87 % 1006,7 hPa 0,0 l/m² 10,5 km/h (2 Bft) O 98 ° 2 min 118 W/m² 0,2 °C -1,5 °C 14,5 km/h (3 Bft)
05.12.2023 12:46 22,2 °C 2,1 °C 46 % 87 % 1006,7 hPa 0,0 l/m² 10,7 km/h (2 Bft) O 97 ° 2 min 113 W/m² 0,2 °C -1,7 °C 17,7 km/h (3 Bft)
05.12.2023 12:47 22,2 °C 2,1 °C 46 % 87 % 1006,7 hPa 0,2 l/m² 11,4 km/h (2 Bft) O-SO 117 ° 1 min 113 W/m² 0,2 °C -2,2 °C 16,1 km/h (3 Bft)
05.12.2023 12:48 22,1 °C 2,1 °C 45 % 87 % 1006,6 hPa 0,0 l/m² 9,9 km/h (2 Bft) O 98 ° 1 min 113 W/m² 0,2 °C -1,1 °C 14,5 km/h (3 Bft)
05.12.2023 12:50 22,1 °C 2,1 °C 45 % 87 % 1006,7 hPa 0,0 l/m² 12,2 km/h (2 Bft) O-SO 104 ° 2 min 114 W/m² 0,2 °C -2,7 °C 17,7 km/h (3 Bft)
05.12.2023 12:52 22,1 °C 2,1 °C 46 % 87 % 1006,8 hPa 0,0 l/m² 10,9 km/h (2 Bft) O-SO 121 ° 2 min 123 W/m² 0,2 °C -1,8 °C 16,1 km/h (3 Bft)
05.12.2023 12:54 22,1 °C 2,1 °C 45 % 86 % 1006,7 hPa 0,0 l/m² 8,2 km/h (2 Bft) O 101 ° 2 min 128 W/m² 0,0 °C 0,4 °C 14,5 km/h (3 Bft)
05.12.2023 12:56 22,1 °C 2,0 °C 45 % 87 % 1006,7 hPa 0,2 l/m² 10,4 km/h (2 Bft) O 99 ° 2 min 130 W/m² 0,1 °C -1,5 °C 14,5 km/h (3 Bft)
05.12.2023 12:58 22,1 °C 2,0 °C 45 % 87 % 1006,7 hPa 0,0 l/m² 12,9 km/h (3 Bft) O-SO 113 ° 2 min 121 W/m² 0,1 °C -3,3 °C 17,7 km/h (3 Bft)
05.12.2023 13:00 22,1 °C 2,0 °C 45 % 87 % 1006,5 hPa 0,0 l/m² 10,3 km/h (2 Bft) O 93 ° 2 min 114 W/m² 0,1 °C -1,5 °C 14,5 km/h (3 Bft)
05.12.2023 13:02 22,1 °C 2,0 °C 45 % 87 % 1006,6 hPa 0,0 l/m² 10,2 km/h (2 Bft) O 101 ° 2 min 107 W/m² 0,1 °C -1,4 °C 14,5 km/h (3 Bft)
05.12.2023 13:03 22,1 °C 2,0 °C 45 % 87 % 1006,6 hPa 0,0 l/m² 9,6 km/h (2 Bft) O 98 ° 1 min 107 W/m² 0,1 °C -0,9 °C 12,9 km/h (3 Bft)
05.12.2023 13:04 22,1 °C 2,0 °C 45 % 87 % 1006,6 hPa 0,0 l/m² 7,3 km/h (2 Bft) O 101 ° 1 min 107 W/m² 0,1 °C 1,1 °C 9,7 km/h (2 Bft)
05.12.2023 13:06 22,1 °C 2,0 °C 45 % 87 % 1006,6 hPa 0,2 l/m² 9,2 km/h (2 Bft) O 89 ° 2 min 107 W/m² 0,1 °C -0,6 °C 12,9 km/h (3 Bft)
05.12.2023 13:08 22,1 °C 2,0 °C 45 % 87 % 1006,6 hPa 0,0 l/m² 11,3 km/h (2 Bft) O 86 ° 2 min 107 W/m² 0,1 °C -2,2 °C 16,1 km/h (3 Bft)
05.12.2023 13:10 22,1 °C 2,0 °C 45 % 87 % 1006,6 hPa 0,0 l/m² 10,6 km/h (2 Bft) O-NO 76 ° 2 min 107 W/m² 0,1 °C -1,7 °C 14,5 km/h (3 Bft)
05.12.2023 13:12 22,1 °C 2,0 °C 45 % 87 % 1006,7 hPa 0,0 l/m² 12,2 km/h (2 Bft) O-SO 105 ° 2 min 104 W/m² 0,1 °C -2,8 °C 14,5 km/h (3 Bft)
05.12.2023 13:14 22,1 °C 2,0 °C 45 % 87 % 1006,6 hPa 0,0 l/m² 9,5 km/h (2 Bft) O 98 ° 2 min 102 W/m² 0,1 °C -0,8 °C 12,9 km/h (3 Bft)
05.12.2023 13:16 22,1 °C 2,0 °C 45 % 87 % 1006,7 hPa 0,2 l/m² 9,5 km/h (2 Bft) O 88 ° 2 min 100 W/m² 0,1 °C -0,8 °C 14,5 km/h (3 Bft)
05.12.2023 13:18 22,1 °C 2,0 °C 45 % 87 % 1006,7 hPa 0,0 l/m² 7,8 km/h (2 Bft) O 88 ° 2 min 100 W/m² 0,1 °C 0,6 °C 12,9 km/h (3 Bft)
05.12.2023 13:20 22,1 °C 2,1 °C 46 % 87 % 1006,7 hPa 0,0 l/m² 8,8 km/h (2 Bft) O 86 ° 2 min 97 W/m² 0,2 °C -0,2 °C 14,5 km/h (3 Bft)
05.12.2023 13:22 22,1 °C 2,1 °C 46 % 87 % 1006,7 hPa 0,0 l/m² 8,0 km/h (2 Bft) O 97 ° 2 min 95 W/m² 0,2 °C 0,6 °C 11,3 km/h (2 Bft)
05.12.2023 13:24 22,1 °C 2,1 °C 46 % 87 % 1006,7 hPa 0,0 l/m² 8,9 km/h (2 Bft) O 87 ° 2 min 95 W/m² 0,2 °C -0,2 °C 12,9 km/h (3 Bft)
05.12.2023 13:26 22,2 °C 2,1 °C 46 % 87 % 1006,7 hPa 0,2 l/m² 8,4 km/h (2 Bft) O 87 ° 2 min 91 W/m² 0,2 °C 0,2 °C 11,3 km/h (2 Bft)
05.12.2023 13:28 22,2 °C 2,1 °C 46 % 87 % 1006,7 hPa 0,0 l/m² 10,9 km/h (2 Bft) O 92 ° 2 min 95 W/m² 0,2 °C -1,8 °C 12,9 km/h (3 Bft)
05.12.2023 13:30 22,2 °C 2,1 °C 46 % 87 % 1006,7 hPa 0,0 l/m² 9,2 km/h (2 Bft) O 94 ° 2 min 97 W/m² 0,2 °C -0,5 °C 12,9 km/h (3 Bft)
05.12.2023 13:32 22,2 °C 2,1 °C 46 % 87 % 1006,7 hPa 0,0 l/m² 8,7 km/h (2 Bft) O 94 ° 2 min 102 W/m² 0,2 °C -0,1 °C 11,3 km/h (2 Bft)
05.12.2023 13:34 22,2 °C 2,0 °C 46 % 87 % 1006,7 hPa 0,2 l/m² 8,5 km/h (2 Bft) O 88 ° 2 min 107 W/m² 0,1 °C 0,0 °C 12,9 km/h (3 Bft)
05.12.2023 13:36 22,2 °C 2,0 °C 46 % 87 % 1006,7 hPa 0,0 l/m² 8,1 km/h (2 Bft) O 88 ° 2 min 114 W/m² 0,1 °C 0,4 °C 12,9 km/h (3 Bft)
05.12.2023 13:38 22,2 °C 1,9 °C 46 % 87 % 1006,7 hPa 0,0 l/m² 6,4 km/h (2 Bft) O-SO 111 ° 2 min 116 W/m² -0,0 °C 1,9 °C 9,7 km/h (2 Bft)
05.12.2023 13:40 22,2 °C 2,0 °C 46 % 87 % 1006,7 hPa 0,0 l/m² 5,6 km/h (2 Bft) O 92 ° 2 min 114 W/m² 0,1 °C 2,0 °C 11,3 km/h (2 Bft)
05.12.2023 13:42 22,2 °C 2,0 °C 46 % 87 % 1006,7 hPa 0,0 l/m² 7,6 km/h (2 Bft) O 98 ° 2 min 113 W/m² 0,1 °C 0,8 °C 9,7 km/h (2 Bft)
05.12.2023 13:44 22,2 °C 2,0 °C 46 % 87 % 1006,6 hPa 0,2 l/m² 7,7 km/h (2 Bft) O 99 ° 2 min 105 W/m² 0,1 °C 0,7 °C 11,3 km/h (2 Bft)
05.12.2023 13:46 22,2 °C 2,1 °C 46 % 87 % 1006,6 hPa 0,0 l/m² 8,2 km/h (2 Bft) O 93 ° 2 min 100 W/m² 0,2 °C 0,4 °C 11,3 km/h (2 Bft)
05.12.2023 13:48 22,2 °C 2,1 °C 46 % 87 % 1006,7 hPa 0,0 l/m² 7,9 km/h (2 Bft) O 93 ° 2 min 95 W/m² 0,2 °C 0,7 °C 12,9 km/h (3 Bft)
05.12.2023 13:50 22,2 °C 2,2 °C 46 % 87 % 1006,7 hPa 0,0 l/m² 6,9 km/h (2 Bft) O 95 ° 2 min 98 W/m² 0,3 °C 1,7 °C 9,7 km/h (2 Bft)
05.12.2023 13:52 22,2 °C 2,2 °C 46 % 87 % 1006,6 hPa 0,0 l/m² 8,6 km/h (2 Bft) O 92 ° 2 min 104 W/m² 0,3 °C 0,1 °C 11,3 km/h (2 Bft)
05.12.2023 13:54 22,2 °C 2,2 °C 46 % 87 % 1006,6 hPa 0,2 l/m² 7,2 km/h (2 Bft) O 94 ° 2 min 107 W/m² 0,3 °C 1,4 °C 12,9 km/h (3 Bft)
05.12.2023 13:56 22,2 °C 2,2 °C 46 % 87 % 1006,6 hPa 0,0 l/m² 7,9 km/h (2 Bft) O 83 ° 2 min 97 W/m² 0,3 °C 0,8 °C 12,9 km/h (3 Bft)
05.12.2023 13:58 22,2 °C 2,3 °C 46 % 87 % 1006,8 hPa 0,0 l/m² 6,3 km/h (2 Bft) O-SO 102 ° 2 min 84 W/m² 0,4 °C 2,3 °C 9,7 km/h (2 Bft)
05.12.2023 14:00 22,2 °C 2,3 °C 46 % 87 % 1006,6 hPa 0,0 l/m² 5,7 km/h (2 Bft) O 100 ° 2 min 79 W/m² 0,4 °C 2,3 °C 6,4 km/h (2 Bft)
05.12.2023 14:02 22,2 °C 2,3 °C 46 % 87 % 1006,6 hPa 0,2 l/m² 7,5 km/h (2 Bft) O 99 ° 2 min 76 W/m² 0,4 °C 1,2 °C 11,3 km/h (2 Bft)
05.12.2023 14:04 22,2 °C 2,3 °C 46 % 87 % 1006,7 hPa 0,0 l/m² 8,5 km/h (2 Bft) O 98 ° 2 min 72 W/m² 0,4 °C 0,3 °C 11,3 km/h (2 Bft)
05.12.2023 14:06 22,2 °C 2,3 °C 46 % 87 % 1006,7 hPa 0,0 l/m² 5,4 km/h (2 Bft) O-SO 105 ° 2 min 67 W/m² 0,4 °C 2,3 °C 6,4 km/h (2 Bft)
05.12.2023 14:08 22,2 °C 2,3 °C 46 % 87 % 1006,6 hPa 0,0 l/m² 7,9 km/h (2 Bft) O-SO 105 ° 2 min 63 W/m² 0,4 °C 0,9 °C 12,9 km/h (3 Bft)
05.12.2023 14:10 22,2 °C 2,3 °C 46 % 87 % 1006,6 hPa 0,0 l/m² 8,5 km/h (2 Bft) O 99 ° 2 min 63 W/m² 0,4 °C 0,3 °C 12,9 km/h (3 Bft)
05.12.2023 14:12 22,2 °C 2,3 °C 46 % 87 % 1006,6 hPa 0,2 l/m² 7,5 km/h (2 Bft) O 101 ° 2 min 63 W/m² 0,4 °C 1,2 °C 9,7 km/h (2 Bft)
05.12.2023 14:14 22,2 °C 2,3 °C 46 % 87 % 1006,6 hPa 0,0 l/m² 8,0 km/h (2 Bft) O 84 ° 2 min 62 W/m² 0,4 °C 0,8 °C 11,3 km/h (2 Bft)
05.12.2023 14:16 22,2 °C 2,3 °C 46 % 87 % 1006,7 hPa 0,0 l/m² 8,2 km/h (2 Bft) O 83 ° 2 min 62 W/m² 0,4 °C 0,6 °C 11,3 km/h (2 Bft)
05.12.2023 14:18 22,2 °C 2,3 °C 46 % 87 % 1006,7 hPa 0,0 l/m² 5,6 km/h (2 Bft) O 94 ° 2 min 62 W/m² 0,4 °C 2,3 °C 6,4 km/h (2 Bft)
05.12.2023 14:20 22,2 °C 2,3 °C 46 % 87 % 1006,6 hPa 0,0 l/m² 7,8 km/h (2 Bft) O-NO 74 ° 2 min 62 W/m² 0,4 °C 1,0 °C 11,3 km/h (2 Bft)
05.12.2023 14:22 22,2 °C 2,3 °C 46 % 87 % 1006,6 hPa 0,2 l/m² 6,5 km/h (2 Bft) O 83 ° 2 min 63 W/m² 0,4 °C 2,2 °C 11,3 km/h (2 Bft)
05.12.2023 14:24 22,2 °C 2,3 °C 46 % 87 % 1006,6 hPa 0,0 l/m² 6,0 km/h (2 Bft) O 81 ° 2 min 67 W/m² 0,4 °C 2,3 °C 9,7 km/h (2 Bft)
05.12.2023 14:26 22,2 °C 2,3 °C 46 % 87 % 1006,6 hPa 0,0 l/m² 5,4 km/h (2 Bft) O 82 ° 2 min 77 W/m² 0,4 °C 2,3 °C 8,0 km/h (2 Bft)
05.12.2023 14:28 22,2 °C 2,4 °C 46 % 87 % 1006,6 hPa 0,0 l/m² 6,4 km/h (2 Bft) O 80 ° 2 min 83 W/m² 0,5 °C 2,4 °C 9,7 km/h (2 Bft)
05.12.2023 14:30 22,2 °C 2,4 °C 46 % 87 % 1006,5 hPa 0,0 l/m² 7,8 km/h (2 Bft) O 80 ° 2 min 84 W/m² 0,5 °C 1,1 °C 11,3 km/h (2 Bft)
05.12.2023 14:32 22,1 °C 2,4 °C 46 % 87 % 1006,6 hPa 0,0 l/m² 7,1 km/h (2 Bft) O 85 ° 2 min 86 W/m² 0,5 °C 1,7 °C 11,3 km/h (2 Bft)
05.12.2023 14:33 22,2 °C 2,4 °C 46 % 87 % 1006,5 hPa 0,0 l/m² 9,4 km/h (2 Bft) O 88 ° 1 min 90 W/m² 0,5 °C -0,3 °C 12,9 km/h (3 Bft)
05.12.2023 14:34 22,2 °C 2,4 °C 46 % 87 % 1006,5 hPa 0,0 l/m² 9,9 km/h (2 Bft) O 90 ° 1 min 91 W/m² 0,5 °C -0,7 °C 11,3 km/h (2 Bft)
05.12.2023 14:36 22,2 °C 2,4 °C 46 % 87 % 1006,5 hPa 0,2 l/m² 7,8 km/h (2 Bft) O-NO 76 ° 2 min 95 W/m² 0,5 °C 1,1 °C 12,9 km/h (3 Bft)
05.12.2023 14:38 22,2 °C 2,4 °C 46 % 87 % 1006,6 hPa 0,0 l/m² 6,2 km/h (2 Bft) O 92 ° 2 min 86 W/m² 0,5 °C 2,4 °C 9,7 km/h (2 Bft)
05.12.2023 14:40 22,2 °C 2,4 °C 46 % 87 % 1006,5 hPa 0,0 l/m² 6,3 km/h (2 Bft) O 91 ° 2 min 76 W/m² 0,5 °C 2,4 °C 9,7 km/h (2 Bft)
05.12.2023 14:42 22,2 °C 2,4 °C 46 % 87 % 1006,6 hPa 0,0 l/m² 7,0 km/h (2 Bft) O 91 ° 2 min 65 W/m² 0,5 °C 1,8 °C 11,3 km/h (2 Bft)
05.12.2023 14:44 22,2 °C 2,4 °C 46 % 87 % 1006,6 hPa 0,0 l/m² 8,2 km/h (2 Bft) O 92 ° 2 min 56 W/m² 0,5 °C 0,7 °C 11,3 km/h (2 Bft)
05.12.2023 14:46 22,2 °C 2,4 °C 46 % 87 % 1006,5 hPa 0,2 l/m² 8,6 km/h (2 Bft) O 92 ° 2 min 56 W/m² 0,5 °C 0,3 °C 11,3 km/h (2 Bft)
05.12.2023 14:48 22,2 °C 2,4 °C 46 % 87 % 1006,6 hPa 0,0 l/m² 6,8 km/h (2 Bft) O 97 ° 2 min 53 W/m² 0,5 °C 2,0 °C 9,7 km/h (2 Bft)
05.12.2023 14:50 22,2 °C 2,4 °C 46 % 87 % 1006,6 hPa 0,0 l/m² 5,2 km/h (1 Bft) O 98 ° 0 min 51 W/m² 0,5 °C 2,4 °C 6,4 km/h (2 Bft)
05.12.2023 14:52 22,1 °C 2,4 °C 46 % 87 % 1006,6 hPa 0,0 l/m² 4,5 km/h (1 Bft) O 96 ° 0 min 51 W/m² 0,5 °C 2,4 °C 6,4 km/h (2 Bft)
05.12.2023 14:54 22,2 °C 2,4 °C 46 % 87 % 1006,6 hPa 0,0 l/m² 6,4 km/h (2 Bft) O 82 ° 0 min 49 W/m² 0,5 °C 2,4 °C 9,7 km/h (2 Bft)
05.12.2023 14:56 22,2 °C 2,4 °C 46 % 87 % 1006,6 hPa 0,2 l/m² 5,6 km/h (2 Bft) O 97 ° 0 min 47 W/m² 0,5 °C 2,4 °C 9,7 km/h (2 Bft)
05.12.2023 14:58 22,2 °C 2,4 °C 46 % 87 % 1006,6 hPa 0,0 l/m² 4,8 km/h (1 Bft) O 99 ° 0 min 47 W/m² 0,5 °C 2,4 °C 6,4 km/h (2 Bft)
05.12.2023 15:00 22,2 °C 2,4 °C 46 % 87 % 1006,6 hPa 0,0 l/m² 4,5 km/h (1 Bft) O 95 ° 0 min 47 W/m² 0,5 °C 2,4 °C 9,7 km/h (2 Bft)
05.12.2023 15:02 22,2 °C 2,4 °C 46 % 87 % 1006,6 hPa 0,0 l/m² 5,7 km/h (2 Bft) O 96 ° 0 min 47 W/m² 0,5 °C 2,4 °C 9,7 km/h (2 Bft)
05.12.2023 15:04 22,1 °C 2,4 °C 46 % 87 % 1006,6 hPa 0,0 l/m² 6,0 km/h (2 Bft) O 85 ° 0 min 47 W/m² 0,5 °C 2,4 °C 9,7 km/h (2 Bft)
05.12.2023 15:06 22,2 °C 2,4 °C 46 % 87 % 1006,7 hPa 0,0 l/m² 6,1 km/h (2 Bft) O 88 ° 0 min 47 W/m² 0,5 °C 2,4 °C 11,3 km/h (2 Bft)
05.12.2023 15:08 22,1 °C 2,4 °C 46 % 87 % 1006,7 hPa 0,2 l/m² 3,9 km/h (1 Bft) O 89 ° 0 min 46 W/m² 0,5 °C 2,4 °C 6,4 km/h (2 Bft)
05.12.2023 15:10 22,2 °C 2,4 °C 46 % 87 % 1006,7 hPa 0,0 l/m² 4,6 km/h (1 Bft) O-SO 105 ° 0 min 44 W/m² 0,5 °C 2,4 °C 6,4 km/h (2 Bft)
05.12.2023 15:12 22,2 °C 2,4 °C 46 % 87 % 1006,7 hPa 0,0 l/m² 4,9 km/h (1 Bft) O 86 ° 0 min 42 W/m² 0,5 °C 2,4 °C 8,0 km/h (2 Bft)
05.12.2023 15:14 22,1 °C 2,4 °C 46 % 88 % 1006,7 hPa 0,0 l/m² 5,2 km/h (1 Bft) O 84 ° 0 min 42 W/m² 0,6 °C 2,4 °C 6,4 km/h (2 Bft)
05.12.2023 15:16 22,1 °C 2,4 °C 46 % 88 % 1006,7 hPa 0,0 l/m² 4,8 km/h (1 Bft) O 84 ° 0 min 42 W/m² 0,6 °C 2,4 °C 6,4 km/h (2 Bft)
05.12.2023 15:18 22,1 °C 2,4 °C 46 % 88 % 1006,7 hPa 0,0 l/m² 5,7 km/h (2 Bft) O-NO 71 ° 0 min 42 W/m² 0,6 °C 2,4 °C 8,0 km/h (2 Bft)
05.12.2023 15:20 22,1 °C 2,5 °C 46 % 88 % 1006,7 hPa 0,0 l/m² 6,4 km/h (2 Bft) O 85 ° 0 min 40 W/m² 0,7 °C 2,5 °C 11,3 km/h (2 Bft)
05.12.2023 15:22 22,1 °C 2,5 °C 46 % 88 % 1006,8 hPa 0,2 l/m² 5,7 km/h (2 Bft) O 81 ° 0 min 42 W/m² 0,7 °C 2,5 °C 9,7 km/h (2 Bft)
05.12.2023 15:24 22,1 °C 2,4 °C 46 % 88 % 1006,7 hPa 0,0 l/m² 5,5 km/h (2 Bft) O 81 ° 0 min 39 W/m² 0,6 °C 2,4 °C 9,7 km/h (2 Bft)
05.12.2023 15:26 22,1 °C 2,4 °C 45 % 88 % 1006,8 hPa 0,0 l/m² 5,7 km/h (2 Bft) O 96 ° 0 min 37 W/m² 0,6 °C 2,4 °C 6,4 km/h (2 Bft)
05.12.2023 15:28 22,1 °C 2,5 °C 41 % 88 % 1006,7 hPa 0,0 l/m² 6,1 km/h (2 Bft) O 86 ° 0 min 40 W/m² 0,7 °C 2,5 °C 11,3 km/h (2 Bft)
05.12.2023 15:30 22,0 °C 2,5 °C 39 % 87 % 1006,7 hPa 0,0 l/m² 7,0 km/h (2 Bft) O 92 ° 0 min 44 W/m² 0,6 °C 1,9 °C 9,7 km/h (2 Bft)
05.12.2023 15:32 21,9 °C 2,4 °C 39 % 88 % 1006,7 hPa 0,0 l/m² 6,4 km/h (2 Bft) O 83 ° 0 min 42 W/m² 0,6 °C 2,4 °C 11,3 km/h (2 Bft)
05.12.2023 15:34 21,8 °C 2,4 °C 39 % 88 % 1006,7 hPa 0,2 l/m² 7,8 km/h (2 Bft) O 93 ° 0 min 39 W/m² 0,6 °C 1,1 °C 11,3 km/h (2 Bft)
05.12.2023 15:36 21,8 °C 2,5 °C 40 % 88 % 1006,7 hPa 0,0 l/m² 7,4 km/h (2 Bft) O 80 ° 0 min 40 W/m² 0,7 °C 1,5 °C 11,3 km/h (2 Bft)
05.12.2023 15:38 21,8 °C 2,4 °C 41 % 88 % 1006,8 hPa 0,0 l/m² 6,7 km/h (2 Bft) O 86 ° 0 min 35 W/m² 0,6 °C 2,1 °C 11,3 km/h (2 Bft)
05.12.2023 15:40 21,8 °C 2,4 °C 41 % 88 % 1006,8 hPa 0,0 l/m² 6,4 km/h (2 Bft) O 88 ° 0 min 32 W/m² 0,6 °C 2,4 °C 11,3 km/h (2 Bft)
05.12.2023 15:42 21,8 °C 2,4 °C 41 % 88 % 1006,8 hPa 0,0 l/m² 8,0 km/h (2 Bft) O 86 ° 0 min 30 W/m² 0,6 °C 0,9 °C 11,3 km/h (2 Bft)
05.12.2023 15:44 21,8 °C 2,4 °C 41 % 88 % 1006,8 hPa 0,0 l/m² 7,7 km/h (2 Bft) O 89 ° 0 min 28 W/m² 0,6 °C 1,1 °C 11,3 km/h (2 Bft)
05.12.2023 15:47 21,8 °C 2,4 °C 42 % 88 % 1006,7 hPa 0,0 l/m² 8,4 km/h (2 Bft) O 98 ° 0 min 21 W/m² 0,6 °C 0,5 °C 12,9 km/h (3 Bft)
05.12.2023 15:49 21,7 °C 2,4 °C 42 % 88 % 1006,8 hPa 0,2 l/m² 10,1 km/h (2 Bft) O 92 ° 0 min 19 W/m² 0,6 °C -0,9 °C 12,9 km/h (3 Bft)
05.12.2023 15:51 21,8 °C 2,4 °C 42 % 88 % 1006,8 hPa 0,0 l/m² 9,2 km/h (2 Bft) O 99 ° 0 min 18 W/m² 0,6 °C -0,2 °C 12,9 km/h (3 Bft)
05.12.2023 15:53 21,8 °C 2,4 °C 42 % 88 % 1006,9 hPa 0,0 l/m² 8,7 km/h (2 Bft) O 94 ° 0 min 16 W/m² 0,6 °C 0,3 °C 11,3 km/h (2 Bft)
05.12.2023 15:55 21,8 °C 2,4 °C 42 % 88 % 1006,8 hPa 0,0 l/m² 10,8 km/h (2 Bft) O-SO 104 ° 0 min 16 W/m² 0,6 °C -1,4 °C 12,9 km/h (3 Bft)
05.12.2023 15:57 21,8 °C 2,4 °C 42 % 88 % 1006,9 hPa 0,0 l/m² 11,2 km/h (2 Bft) O 94 ° 0 min 14 W/m² 0,6 °C -1,7 °C 14,5 km/h (3 Bft)
05.12.2023 15:59 21,8 °C 2,4 °C 43 % 88 % 1007,0 hPa 0,0 l/m² 11,6 km/h (2 Bft) O 84 ° 0 min 12 W/m² 0,6 °C -2,0 °C 14,5 km/h (3 Bft)
05.12.2023 16:01 21,8 °C 2,4 °C 43 % 88 % 1006,9 hPa 0,2 l/m² 11,3 km/h (2 Bft) O 85 ° 0 min 9 W/m² 0,6 °C -1,8 °C 14,5 km/h (3 Bft)
05.12.2023 16:03 21,8 °C 2,4 °C 43 % 88 % 1006,9 hPa 0,0 l/m² 9,1 km/h (2 Bft) O-NO 72 ° 0 min 7 W/m² 0,6 °C -0,1 °C 11,3 km/h (2 Bft)
05.12.2023 16:05 21,8 °C 2,4 °C 43 % 88 % 1006,9 hPa 0,0 l/m² 9,4 km/h (2 Bft) O 80 ° 0 min 5 W/m² 0,6 °C -0,3 °C 12,9 km/h (3 Bft)
05.12.2023 16:07 21,8 °C 2,4 °C 43 % 88 % 1006,9 hPa 0,0 l/m² 11,4 km/h (2 Bft) O 84 ° 0 min 0 W/m² 0,6 °C -1,8 °C 14,5 km/h (3 Bft)
05.12.2023 16:09 21,8 °C 2,4 °C 43 % 88 % 1006,9 hPa 0,0 l/m² 12,7 km/h (3 Bft) O 83 ° 0 min 0 W/m² 0,6 °C -2,7 °C 16,1 km/h (3 Bft)
05.12.2023 16:11 21,8 °C 2,3 °C 43 % 88 % 1006,9 hPa 0,0 l/m² 13,5 km/h (3 Bft) O 93 ° 0 min 0 W/m² 0,5 °C -3,3 °C 17,7 km/h (3 Bft)
05.12.2023 16:13 21,8 °C 2,4 °C 43 % 88 % 1007,0 hPa 0,0 l/m² 12,7 km/h (3 Bft) O 91 ° 0 min 0 W/m² 0,6 °C -2,7 °C 17,7 km/h (3 Bft)
05.12.2023 16:15 21,8 °C 2,4 °C 43 % 88 % 1007,0 hPa 0,2 l/m² 13,5 km/h (3 Bft) O 89 ° 0 min 0 W/m² 0,6 °C -3,2 °C 16,1 km/h (3 Bft)
05.12.2023 16:17 21,9 °C 2,4 °C 43 % 88 % 1007,0 hPa 0,0 l/m² 13,6 km/h (3 Bft) O 101 ° 0 min 0 W/m² 0,6 °C -3,3 °C 17,7 km/h (3 Bft)
05.12.2023 16:19 21,8 °C 2,4 °C 43 % 88 % 1007,0 hPa 0,0 l/m² 12,6 km/h (3 Bft) O 92 ° 0 min 0 W/m² 0,6 °C -2,6 °C 16,1 km/h (3 Bft)
05.12.2023 16:21 21,9 °C 2,4 °C 43 % 88 % 1007,0 hPa 0,0 l/m² 11,6 km/h (2 Bft) O-SO 103 ° 0 min 0 W/m² 0,6 °C -2,0 °C 14,5 km/h (3 Bft)
05.12.2023 16:23 21,9 °C 2,4 °C 43 % 88 % 1007,0 hPa 0,0 l/m² 8,6 km/h (2 Bft) O 86 ° 0 min 0 W/m² 0,6 °C 0,3 °C 11,3 km/h (2 Bft)
05.12.2023 16:25 21,9 °C 2,4 °C 43 % 88 % 1007,1 hPa 0,0 l/m² 11,4 km/h (2 Bft) O 94 ° 0 min 0 W/m² 0,6 °C -1,8 °C 14,5 km/h (3 Bft)
05.12.2023 16:27 21,9 °C 2,4 °C 43 % 88 % 1007,1 hPa 0,2 l/m² 10,2 km/h (2 Bft) O 92 ° 0 min 0 W/m² 0,6 °C -1,0 °C 14,5 km/h (3 Bft)
05.12.2023 16:29 21,9 °C 2,4 °C 43 % 88 % 1007,1 hPa 0,0 l/m² 9,3 km/h (2 Bft) O 82 ° 0 min 0 W/m² 0,6 °C -0,2 °C 12,9 km/h (3 Bft)
05.12.2023 16:31 21,9 °C 2,4 °C 43 % 88 % 1007,1 hPa 0,0 l/m² 10,7 km/h (2 Bft) O 96 ° 0 min 0 W/m² 0,6 °C -1,3 °C 14,5 km/h (3 Bft)
05.12.2023 16:33 21,9 °C 2,4 °C 43 % 88 % 1007,2 hPa 0,0 l/m² 6,8 km/h (2 Bft) O 96 ° 0 min 0 W/m² 0,6 °C 2,0 °C 12,9 km/h (3 Bft)
05.12.2023 16:35 21,8 °C 2,4 °C 43 % 88 % 1007,2 hPa 0,0 l/m² 6,3 km/h (2 Bft) O 80 ° 0 min 0 W/m² 0,6 °C 2,4 °C 11,3 km/h (2 Bft)
05.12.2023 16:37 21,9 °C 2,4 °C 44 % 88 % 1007,3 hPa 0,0 l/m² 6,6 km/h (2 Bft) O 94 ° 0 min 0 W/m² 0,6 °C 2,2 °C 11,3 km/h (2 Bft)
05.12.2023 16:39 21,9 °C 2,4 °C 44 % 89 % 1007,3 hPa 0,0 l/m² 4,6 km/h (1 Bft) O 94 ° 0 min 0 W/m² 0,8 °C 2,4 °C 6,4 km/h (2 Bft)
05.12.2023 16:41 21,9 °C 2,4 °C 44 % 89 % 1007,3 hPa 0,0 l/m² 6,4 km/h (2 Bft) O-NO 77 ° 0 min 0 W/m² 0,8 °C 2,4 °C 11,3 km/h (2 Bft)
05.12.2023 16:43 21,9 °C 2,4 °C 44 % 89 % 1007,3 hPa 0,2 l/m² 5,5 km/h (2 Bft) O 80 ° 0 min 0 W/m² 0,8 °C 2,4 °C 11,3 km/h (2 Bft)
05.12.2023 16:45 21,9 °C 2,4 °C 44 % 89 % 1007,3 hPa 0,0 l/m² 5,7 km/h (2 Bft) O 86 ° 0 min 0 W/m² 0,8 °C 2,4 °C 9,7 km/h (2 Bft)
05.12.2023 16:47 21,9 °C 2,4 °C 44 % 89 % 1007,3 hPa 0,0 l/m² 3,8 km/h (1 Bft) O-NO 77 ° 0 min 0 W/m² 0,8 °C 2,4 °C 6,4 km/h (2 Bft)
05.12.2023 16:49 21,9 °C 2,4 °C 44 % 88 % 1007,3 hPa 0,0 l/m² 3,7 km/h (1 Bft) O-NO 63 ° 0 min 0 W/m² 0,6 °C 2,4 °C 6,4 km/h (2 Bft)
05.12.2023 16:51 21,9 °C 2,4 °C 44 % 89 % 1007,3 hPa 0,0 l/m² 1,9 km/h (1 Bft) NO 55 ° 0 min 0 W/m² 0,8 °C 2,4 °C 4,8 km/h (1 Bft)
05.12.2023 16:53 21,9 °C 2,4 °C 44 % 89 % 1007,4 hPa 0,0 l/m² 1,3 km/h (1 Bft) N-NO 21 ° 0 min 0 W/m² 0,8 °C 2,4 °C 3,2 km/h (1 Bft)
05.12.2023 16:55 21,9 °C 2,4 °C 44 % 89 % 1007,4 hPa 0,0 l/m² 1,0 km/h (0 Bft) O-NO 62 ° 0 min 0 W/m² 0,8 °C 2,4 °C 4,8 km/h (1 Bft)
05.12.2023 16:57 21,9 °C 2,3 °C 44 % 89 % 1007,5 hPa 0,0 l/m² 1,4 km/h (1 Bft) NO 54 ° 0 min 0 W/m² 0,7 °C 2,3 °C 3,2 km/h (1 Bft)
05.12.2023 16:59 21,9 °C 2,3 °C 44 % 89 % 1007,4 hPa 0,0 l/m² 1,4 km/h (1 Bft) O-NO 66 ° 0 min 0 W/m² 0,7 °C 2,3 °C 4,8 km/h (1 Bft)
05.12.2023 17:01 21,8 °C 2,3 °C 44 % 89 % 1007,5 hPa 0,0 l/m² 3,4 km/h (1 Bft) O-NO 65 ° 0 min 0 W/m² 0,7 °C 2,3 °C 8,0 km/h (2 Bft)
05.12.2023 17:03 21,8 °C 2,3 °C 44 % 89 % 1007,4 hPa 0,0 l/m² 3,5 km/h (1 Bft) O-NO 70 ° 0 min 0 W/m² 0,7 °C 2,3 °C 6,4 km/h (2 Bft)
05.12.2023 17:05 21,8 °C 2,3 °C 44 % 89 % 1007,4 hPa 0,0 l/m² 3,9 km/h (1 Bft) O-NO 65 ° 0 min 0 W/m² 0,7 °C 2,3 °C 6,4 km/h (2 Bft)
05.12.2023 17:07 21,8 °C 2,3 °C 43 % 89 % 1007,4 hPa 0,0 l/m² 1,7 km/h (1 Bft) O-NO 61 ° 0 min 0 W/m² 0,7 °C 2,3 °C 3,2 km/h (1 Bft)
05.12.2023 17:09 21,8 °C 2,3 °C 43 % 89 % 1007,4 hPa 0,2 l/m² 1,5 km/h (1 Bft) O-NO 63 ° 0 min 0 W/m² 0,7 °C 2,3 °C 3,2 km/h (1 Bft)
05.12.2023 17:11 21,8 °C 2,2 °C 43 % 89 % 1007,5 hPa 0,0 l/m² 1,7 km/h (1 Bft) NO 49 ° 0 min 0 W/m² 0,6 °C 2,2 °C 3,2 km/h (1 Bft)
05.12.2023 17:13 21,8 °C 2,2 °C 43 % 89 % 1007,5 hPa 0,0 l/m² 4,0 km/h (1 Bft) NO 55 ° 0 min 0 W/m² 0,6 °C 2,2 °C 6,4 km/h (2 Bft)
05.12.2023 17:15 21,8 °C 2,2 °C 43 % 89 % 1007,5 hPa 0,0 l/m² 0,5 km/h (0 Bft) O-NO 57 ° 0 min 0 W/m² 0,6 °C 2,2 °C 3,2 km/h (1 Bft)
05.12.2023 17:17 21,8 °C 2,2 °C 43 % 89 % 1007,5 hPa 0,0 l/m² 1,4 km/h (1 Bft) O-NO 65 ° 0 min 0 W/m² 0,6 °C 2,2 °C 4,8 km/h (1 Bft)
05.12.2023 17:19 21,8 °C 2,2 °C 43 % 89 % 1007,6 hPa 0,0 l/m² 3,1 km/h (1 Bft) O-NO 71 ° 0 min 0 W/m² 0,6 °C 2,2 °C 6,4 km/h (2 Bft)
05.12.2023 17:21 21,8 °C 2,2 °C 43 % 89 % 1007,6 hPa 0,0 l/m² 3,1 km/h (1 Bft) O-NO 78 ° 0 min 0 W/m² 0,6 °C 2,2 °C 4,8 km/h (1 Bft)
05.12.2023 17:23 21,8 °C 2,2 °C 43 % 89 % 1007,5 hPa 0,0 l/m² 2,5 km/h (1 Bft) O 82 ° 0 min 0 W/m² 0,6 °C 2,2 °C 6,4 km/h (2 Bft)
05.12.2023 17:25 21,8 °C 2,2 °C 43 % 89 % 1007,6 hPa 0,0 l/m² 4,8 km/h (1 Bft) O 84 ° 0 min 0 W/m² 0,6 °C 2,2 °C 8,0 km/h (2 Bft)
05.12.2023 17:27 21,8 °C 2,1 °C 43 % 89 % 1007,7 hPa 0,0 l/m² 5,4 km/h (2 Bft) O 88 ° 0 min 0 W/m² 0,5 °C 2,1 °C 6,4 km/h (2 Bft)
05.12.2023 17:29 21,8 °C 2,1 °C 43 % 89 % 1007,6 hPa 0,0 l/m² 6,4 km/h (2 Bft) O 91 ° 0 min 0 W/m² 0,5 °C 2,1 °C 11,3 km/h (2 Bft)
05.12.2023 17:31 21,8 °C 2,1 °C 43 % 89 % 1007,6 hPa 0,0 l/m² 6,4 km/h (2 Bft) O 95 ° 0 min 0 W/m² 0,5 °C 2,1 °C 9,7 km/h (2 Bft)
05.12.2023 17:33 21,8 °C 2,1 °C 43 % 89 % 1007,6 hPa 0,0 l/m² 4,9 km/h (1 Bft) NO 42 ° 0 min 0 W/m² 0,5 °C 2,1 °C 6,4 km/h (2 Bft)
05.12.2023 17:35 21,8 °C 2,0 °C 43 % 89 % 1007,5 hPa 0,0 l/m² 4,9 km/h (1 Bft) O-NO 71 ° 0 min 0 W/m² 0,4 °C 2,0 °C 8,0 km/h (2 Bft)
05.12.2023 17:37 21,8 °C 2,1 °C 44 % 90 % 1007,6 hPa 0,0 l/m² 4,6 km/h (1 Bft) O 80 ° 0 min 0 W/m² 0,6 °C 2,1 °C 6,4 km/h (2 Bft)
05.12.2023 17:39 21,8 °C 2,0 °C 44 % 90 % 1007,6 hPa 0,0 l/m² 2,3 km/h (1 Bft) O-NO 72 ° 0 min 0 W/m² 0,5 °C 2,0 °C 6,4 km/h (2 Bft)
05.12.2023 17:41 21,9 °C 2,1 °C 44 % 90 % 1007,7 hPa 0,0 l/m² 2,4 km/h (1 Bft) O-NO 60 ° 0 min 0 W/m² 0,6 °C 2,1 °C 4,8 km/h (1 Bft)
05.12.2023 17:43 21,9 °C 2,1 °C 44 % 90 % 1007,7 hPa 0,0 l/m² 2,3 km/h (1 Bft) O-NO 72 ° 0 min 0 W/m² 0,6 °C 2,1 °C 6,4 km/h (2 Bft)
05.12.2023 17:45 21,9 °C 2,1 °C 44 % 90 % 1007,7 hPa 0,0 l/m² 1,4 km/h (1 Bft) O-NO 70 ° 0 min 0 W/m² 0,6 °C 2,1 °C 4,8 km/h (1 Bft)
05.12.2023 17:47 21,9 °C 2,1 °C 44 % 90 % 1007,6 hPa 0,0 l/m² 0,9 km/h (0 Bft) O-NO 59 ° 0 min 0 W/m² 0,6 °C 2,1 °C 4,8 km/h (1 Bft)
05.12.2023 17:49 21,9 °C 2,1 °C 44 % 90 % 1007,7 hPa 0,0 l/m² 2,6 km/h (1 Bft) O-NO 67 ° 0 min 0 W/m² 0,6 °C 2,1 °C 4,8 km/h (1 Bft)
05.12.2023 17:51 21,9 °C 2,1 °C 44 % 90 % 1007,6 hPa 0,2 l/m² 1,3 km/h (1 Bft) NO 51 ° 0 min 0 W/m² 0,6 °C 2,1 °C 4,8 km/h (1 Bft)
05.12.2023 17:53 21,9 °C 2,0 °C 44 % 90 % 1007,7 hPa 0,0 l/m² 0,1 km/h (0 Bft) NO 51 ° 0 min 0 W/m² 0,5 °C 2,0 °C 1,6 km/h (1 Bft)
05.12.2023 17:55 21,9 °C 2,0 °C 44 % 90 % 1007,7 hPa 0,0 l/m² 0,8 km/h (0 Bft) NO 55 ° 0 min 0 W/m² 0,5 °C 2,0 °C 3,2 km/h (1 Bft)
05.12.2023 17:57 21,9 °C 2,0 °C 44 % 90 % 1007,6 hPa 0,0 l/m² 0,8 km/h (0 Bft) O-NO 61 ° 0 min 0 W/m² 0,5 °C 2,0 °C 4,8 km/h (1 Bft)
05.12.2023 17:59 21,9 °C 2,0 °C 44 % 90 % 1007,7 hPa 0,0 l/m² 0,1 km/h (0 Bft) O-NO 61 ° 0 min 0 W/m² 0,5 °C 2,0 °C 1,6 km/h (1 Bft)
05.12.2023 18:01 21,9 °C 2,0 °C 44 % 90 % 1007,7 hPa 0,0 l/m² 0,2 km/h (0 Bft) O-NO 61 ° 0 min 0 W/m² 0,5 °C 2,0 °C 1,6 km/h (1 Bft)
05.12.2023 18:03 21,9 °C 2,0 °C 44 % 90 % 1007,7 hPa 0,0 l/m² 1,6 km/h (1 Bft) NO 35 ° 0 min 0 W/m² 0,5 °C 2,0 °C 3,2 km/h (1 Bft)
05.12.2023 18:05 21,9 °C 2,0 °C 44 % 90 % 1007,7 hPa 0,0 l/m² 2,7 km/h (1 Bft) N-NO 22 ° 0 min 0 W/m² 0,5 °C 2,0 °C 3,2 km/h (1 Bft)
05.12.2023 18:07 21,9 °C 1,9 °C 44 % 90 % 1007,8 hPa 0,0 l/m² 2,0 km/h (1 Bft) N-NO 30 ° 0 min 0 W/m² 0,4 °C 1,9 °C 4,8 km/h (1 Bft)
05.12.2023 18:09 21,9 °C 1,9 °C 44 % 90 % 1007,7 hPa 0,0 l/m² 2,5 km/h (1 Bft) NO 49 ° 0 min 0 W/m² 0,4 °C 1,9 °C 6,4 km/h (2 Bft)
05.12.2023 18:11 21,9 °C 1,9 °C 44 % 90 % 1007,8 hPa 0,0 l/m² 2,6 km/h (1 Bft) NO 39 ° 0 min 0 W/m² 0,4 °C 1,9 °C 6,4 km/h (2 Bft)
05.12.2023 18:13 21,9 °C 1,9 °C 44 % 90 % 1007,7 hPa 0,0 l/m² 3,3 km/h (1 Bft) NO 53 ° 0 min 0 W/m² 0,4 °C 1,9 °C 6,4 km/h (2 Bft)
05.12.2023 18:15 21,9 °C 1,9 °C 44 % 90 % 1007,7 hPa 0,0 l/m² 4,5 km/h (1 Bft) NO 44 ° 0 min 0 W/m² 0,4 °C 1,9 °C 6,4 km/h (2 Bft)
05.12.2023 18:17 21,9 °C 1,9 °C 44 % 90 % 1007,7 hPa 0,0 l/m² 2,6 km/h (1 Bft) N-NO 17 ° 0 min 0 W/m² 0,4 °C 1,9 °C 6,4 km/h (2 Bft)
05.12.2023 18:19 21,9 °C 1,9 °C 44 % 90 % 1007,7 hPa 0,0 l/m² 2,2 km/h (1 Bft) NO 41 ° 0 min 0 W/m² 0,4 °C 1,9 °C 3,2 km/h (1 Bft)
05.12.2023 18:21 21,9 °C 1,9 °C 44 % 90 % 1007,7 hPa 0,0 l/m² 2,0 km/h (1 Bft) N-NO 30 ° 0 min 0 W/m² 0,4 °C 1,9 °C 4,8 km/h (1 Bft)
05.12.2023 18:23 21,9 °C 1,9 °C 44 % 90 % 1007,6 hPa 0,0 l/m² 1,1 km/h (1 Bft) O-NO 60 ° 0 min 0 W/m² 0,4 °C 1,9 °C 3,2 km/h (1 Bft)
05.12.2023 18:25 21,9 °C 1,9 °C 44 % 90 % 1007,6 hPa 0,0 l/m² 1,7 km/h (1 Bft) NO 51 ° 0 min 0 W/m² 0,4 °C 1,9 °C 4,8 km/h (1 Bft)
05.12.2023 18:27 21,9 °C 1,8 °C 44 % 90 % 1007,7 hPa 0,0 l/m² 3,2 km/h (1 Bft) O-NO 67 ° 0 min 0 W/m² 0,3 °C 1,8 °C 4,8 km/h (1 Bft)
05.12.2023 18:29 21,9 °C 1,9 °C 44 % 90 % 1007,7 hPa 0,2 l/m² 1,7 km/h (1 Bft) NO 56 ° 0 min 0 W/m² 0,4 °C 1,9 °C 4,8 km/h (1 Bft)
05.12.2023 18:31 21,9 °C 1,8 °C 44 % 90 % 1007,7 hPa 0,0 l/m² 1,4 km/h (1 Bft) NO 46 ° 0 min 0 W/m² 0,3 °C 1,8 °C 4,8 km/h (1 Bft)
05.12.2023 18:33 21,9 °C 1,8 °C 44 % 90 % 1007,8 hPa 0,0 l/m² 1,6 km/h (1 Bft) NO 36 ° 0 min 0 W/m² 0,3 °C 1,8 °C 6,4 km/h (2 Bft)
05.12.2023 18:35 21,9 °C 1,8 °C 44 % 90 % 1007,8 hPa 0,0 l/m² 1,3 km/h (1 Bft) N-NO 32 ° 0 min 0 W/m² 0,3 °C 1,8 °C 3,2 km/h (1 Bft)
05.12.2023 18:37 21,9 °C 1,8 °C 44 % 91 % 1007,8 hPa 0,0 l/m² 0,3 km/h (0 Bft) N-NO 32 ° 0 min 0 W/m² 0,5 °C 1,8 °C 1,6 km/h (1 Bft)
05.12.2023 18:39 21,9 °C 1,8 °C 44 % 91 % 1007,8 hPa 0,0 l/m² 0,6 km/h (0 Bft) N-NO 30 ° 0 min 0 W/m² 0,5 °C 1,8 °C 1,6 km/h (1 Bft)
05.12.2023 18:41 21,9 °C 1,8 °C 44 % 91 % 1007,8 hPa 0,0 l/m² 1,8 km/h (1 Bft) NO 35 ° 0 min 0 W/m² 0,5 °C 1,8 °C 3,2 km/h (1 Bft)
05.12.2023 18:43 21,9 °C 1,8 °C 44 % 91 % 1007,7 hPa 0,0 l/m² 2,0 km/h (1 Bft) N-NO 32 ° 0 min 0 W/m² 0,5 °C 1,8 °C 3,2 km/h (1 Bft)
05.12.2023 18:45 21,9 °C 1,8 °C 44 % 91 % 1007,8 hPa 0,0 l/m² 2,7 km/h (1 Bft) N-NO 19 ° 0 min 0 W/m² 0,5 °C 1,8 °C 4,8 km/h (1 Bft)
05.12.2023 18:47 21,9 °C 1,8 °C 44 % 91 % 1007,8 hPa 0,0 l/m² 2,9 km/h (1 Bft) N-NO 30 ° 0 min 0 W/m² 0,5 °C 1,8 °C 4,8 km/h (1 Bft)
05.12.2023 18:49 21,9 °C 1,8 °C 44 % 91 % 1007,8 hPa 0,0 l/m² 1,1 km/h (1 Bft) N-NO 27 ° 0 min 0 W/m² 0,5 °C 1,8 °C 3,2 km/h (1 Bft)
05.12.2023 18:51 21,9 °C 1,8 °C 44 % 91 % 1007,9 hPa 0,0 l/m² 3,5 km/h (1 Bft) N-NO 24 ° 0 min 0 W/m² 0,5 °C 1,8 °C 4,8 km/h (1 Bft)
05.12.2023 18:53 21,9 °C 1,8 °C 44 % 91 % 1007,8 hPa 0,0 l/m² 2,9 km/h (1 Bft) N-NO 19 ° 0 min 0 W/m² 0,5 °C 1,8 °C 4,8 km/h (1 Bft)
05.12.2023 18:55 21,9 °C 1,9 °C 44 % 91 % 1007,9 hPa 0,0 l/m² 1,9 km/h (1 Bft) NO 38 ° 0 min 0 W/m² 0,6 °C 1,9 °C 3,2 km/h (1 Bft)
05.12.2023 18:57 21,9 °C 1,9 °C 44 % 91 % 1007,8 hPa 0,0 l/m² 0,7 km/h (0 Bft) NO 38 ° 0 min 0 W/m² 0,6 °C 1,9 °C 3,2 km/h (1 Bft)
05.12.2023 18:59 21,8 °C 1,9 °C 44 % 91 % 1008,0 hPa 0,0 l/m² 0,8 km/h (0 Bft) NO 38 ° 0 min 0 W/m² 0,6 °C 1,9 °C 3,2 km/h (1 Bft)
05.12.2023 19:01 21,9 °C 1,9 °C 44 % 91 % 1007,9 hPa 0,0 l/m² 0,3 km/h (0 Bft) NO 38 ° 0 min 0 W/m² 0,6 °C 1,9 °C 3,2 km/h (1 Bft)
05.12.2023 19:03 21,9 °C 1,9 °C 44 % 91 % 1007,9 hPa 0,0 l/m² 0,0 km/h (0 Bft) NO 38 ° 0 min 0 W/m² 0,6 °C 1,9 °C 0,0 km/h (0 Bft)
05.12.2023 19:05 21,9 °C 1,8 °C 44 % 91 % 1008,0 hPa 0,0 l/m² 0,5 km/h (0 Bft) NO 38 ° 0 min 0 W/m² 0,5 °C 1,8 °C 1,6 km/h (1 Bft)
05.12.2023 19:07 21,8 °C 1,9 °C 44 % 91 % 1008,0 hPa 0,0 l/m² 1,9 km/h (1 Bft) NO 38 ° 0 min 0 W/m² 0,6 °C 1,9 °C 4,8 km/h (1 Bft)
05.12.2023 19:09 21,8 °C 1,8 °C 43 % 91 % 1008,0 hPa 0,0 l/m² 1,1 km/h (1 Bft) NO 38 ° 0 min 0 W/m² 0,5 °C 1,8 °C 4,8 km/h (1 Bft)
05.12.2023 19:11 21,9 °C 1,8 °C 44 % 91 % 1008,0 hPa 0,0 l/m² 0,8 km/h (0 Bft) NO 38 ° 0 min 0 W/m² 0,5 °C 1,8 °C 3,2 km/h (1 Bft)
05.12.2023 19:13 21,9 °C 1,8 °C 44 % 91 % 1008,1 hPa 0,0 l/m² 1,8 km/h (1 Bft) NO 38 ° 0 min 0 W/m² 0,5 °C 1,8 °C 3,2 km/h (1 Bft)
05.12.2023 19:15 21,9 °C 1,8 °C 44 % 91 % 1008,0 hPa 0,0 l/m² 0,5 km/h (0 Bft) NO 38 ° 0 min 0 W/m² 0,5 °C 1,8 °C 3,2 km/h (1 Bft)
05.12.2023 19:17 21,8 °C 1,8 °C 44 % 91 % 1008,0 hPa 0,0 l/m² 0,4 km/h (0 Bft) NO 38 ° 0 min 0 W/m² 0,5 °C 1,8 °C 1,6 km/h (1 Bft)
05.12.2023 19:19 21,8 °C 1,8 °C 44 % 91 % 1008,0 hPa 0,0 l/m² 0,1 km/h (0 Bft) NO 38 ° 0 min 0 W/m² 0,5 °C 1,8 °C 1,6 km/h (1 Bft)
05.12.2023 19:21 21,8 °C 1,8 °C 44 % 91 % 1008,0 hPa 0,0 l/m² 0,6 km/h (0 Bft) NO 38 ° 0 min 0 W/m² 0,5 °C 1,8 °C 3,2 km/h (1 Bft)
05.12.2023 19:23 21,8 °C 1,8 °C 44 % 91 % 1008,0 hPa 0,0 l/m² 1,5 km/h (1 Bft) NO 38 ° 0 min 0 W/m² 0,5 °C 1,8 °C 3,2 km/h (1 Bft)
05.12.2023 19:25 21,8 °C 1,8 °C 44 % 91 % 1008,0 hPa 0,2 l/m² 0,3 km/h (0 Bft) NO 38 ° 0 min 0 W/m² 0,5 °C 1,8 °C 3,2 km/h (1 Bft)
05.12.2023 19:27 21,9 °C 1,8 °C 44 % 91 % 1008,1 hPa 0,0 l/m² 0,0 km/h (0 Bft) NO 38 ° 0 min 0 W/m² 0,5 °C 1,8 °C 0,0 km/h (0 Bft)
05.12.2023 19:29 21,8 °C 1,8 °C 44 % 91 % 1008,1 hPa 0,0 l/m² 0,0 km/h (0 Bft) NO 38 ° 0 min 0 W/m² 0,5 °C 1,8 °C 0,0 km/h (0 Bft)
05.12.2023 19:31 21,9 °C 1,8 °C 44 % 91 % 1008,2 hPa 0,0 l/m² 0,6 km/h (0 Bft) NO 38 ° 0 min 0 W/m² 0,5 °C 1,8 °C 1,6 km/h (1 Bft)
05.12.2023 19:33 21,9 °C 1,8 °C 44 % 91 % 1008,1 hPa 0,0 l/m² 0,6 km/h (0 Bft) NO 38 ° 0 min 0 W/m² 0,5 °C 1,8 °C 1,6 km/h (1 Bft)
05.12.2023 19:35 21,9 °C 1,8 °C 44 % 91 % 1008,2 hPa 0,0 l/m² 0,0 km/h (0 Bft) NO 38 ° 0 min 0 W/m² 0,5 °C 1,8 °C 0,0 km/h (0 Bft)
05.12.2023 19:37 21,9 °C 1,8 °C 44 % 91 % 1008,2 hPa 0,0 l/m² 0,0 km/h (0 Bft) NO 38 ° 0 min 0 W/m² 0,5 °C 1,8 °C 0,0 km/h (0 Bft)
05.12.2023 19:39 21,9 °C 1,7 °C 44 % 91 % 1008,3 hPa 0,0 l/m² 0,0 km/h (0 Bft) NO 38 ° 0 min 0 W/m² 0,4 °C 1,7 °C 0,0 km/h (0 Bft)
05.12.2023 19:41 21,8 °C 1,8 °C 43 % 91 % 1008,2 hPa 0,0 l/m² 0,0 km/h (0 Bft) NO 38 ° 0 min 0 W/m² 0,5 °C 1,8 °C 0,0 km/h (0 Bft)
05.12.2023 19:43 21,9 °C 1,7 °C 44 % 91 % 1008,3 hPa 0,0 l/m² 0,0 km/h (0 Bft) NO 38 ° 0 min 0 W/m² 0,4 °C 1,7 °C 0,0 km/h (0 Bft)
05.12.2023 19:45 21,9 °C 1,8 °C 43 % 91 % 1008,2 hPa 0,0 l/m² 0,0 km/h (0 Bft) NO 38 ° 0 min 0 W/m² 0,5 °C 1,8 °C 0,0 km/h (0 Bft)
05.12.2023 19:47 21,9 °C 1,8 °C 43 % 91 % 1008,2 hPa 0,0 l/m² 0,0 km/h (0 Bft) NO 38 ° 0 min 0 W/m² 0,5 °C 1,8 °C 0,0 km/h (0 Bft)
05.12.2023 19:49 21,9 °C 1,7 °C 43 % 91 % 1008,3 hPa 0,0 l/m² 0,0 km/h (0 Bft) NO 38 ° 0 min 0 W/m² 0,4 °C 1,7 °C 0,0 km/h (0 Bft)
05.12.2023 19:51 21,9 °C 1,8 °C 43 % 91 % 1008,3 hPa 0,0 l/m² 0,0 km/h (0 Bft) NO 38 ° 0 min 0 W/m² 0,5 °C 1,8 °C 0,0 km/h (0 Bft)
05.12.2023 19:53 21,9 °C 1,7 °C 43 % 91 % 1008,2 hPa 0,0 l/m² 0,0 km/h (0 Bft) NO 38 ° 0 min 0 W/m² 0,4 °C 1,7 °C 0,0 km/h (0 Bft)
05.12.2023 19:55 21,9 °C 1,7 °C 43 % 91 % 1008,3 hPa 0,0 l/m² 0,0 km/h (0 Bft) NO 38 ° 0 min 0 W/m² 0,4 °C 1,7 °C 0,0 km/h (0 Bft)
05.12.2023 19:57 21,9 °C 1,7 °C 43 % 91 % 1008,2 hPa 0,0 l/m² 0,5 km/h (0 Bft) NO 38 ° 0 min 0 W/m² 0,4 °C 1,7 °C 3,2 km/h (1 Bft)
05.12.2023 19:59 21,8 °C 1,7 °C 43 % 91 % 1008,2 hPa 0,0 l/m² 2,1 km/h (1 Bft) NO 38 ° 0 min 0 W/m² 0,4 °C 1,7 °C 3,2 km/h (1 Bft)
05.12.2023 20:01 21,9 °C 1,7 °C 43 % 91 % 1008,3 hPa 0,0 l/m² 0,7 km/h (0 Bft) NO 38 ° 0 min 0 W/m² 0,4 °C 1,7 °C 3,2 km/h (1 Bft)
05.12.2023 20:03 21,9 °C 1,7 °C 43 % 91 % 1008,3 hPa 0,0 l/m² 0,0 km/h (0 Bft) NO 38 ° 0 min 0 W/m² 0,4 °C 1,7 °C 0,0 km/h (0 Bft)
05.12.2023 20:05 21,8 °C 1,7 °C 43 % 91 % 1008,3 hPa 0,0 l/m² 1,7 km/h (1 Bft) NO 38 ° 0 min 0 W/m² 0,4 °C 1,7 °C 4,8 km/h (1 Bft)
05.12.2023 20:07 21,9 °C 1,7 °C 43 % 91 % 1008,3 hPa 0,0 l/m² 0,4 km/h (0 Bft) NO 38 ° 0 min 0 W/m² 0,4 °C 1,7 °C 1,6 km/h (1 Bft)
05.12.2023 20:09 21,8 °C 1,7 °C 43 % 91 % 1008,2 hPa 0,0 l/m² 0,7 km/h (0 Bft) NO 38 ° 0 min 0 W/m² 0,4 °C 1,7 °C 3,2 km/h (1 Bft)
05.12.2023 20:11 21,9 °C 1,7 °C 44 % 91 % 1008,2 hPa 0,0 l/m² 0,2 km/h (0 Bft) NO 38 ° 0 min 0 W/m² 0,4 °C 1,7 °C 1,6 km/h (1 Bft)
05.12.2023 20:13 21,8 °C 1,7 °C 44 % 92 % 1008,3 hPa 0,0 l/m² 0,7 km/h (0 Bft) NO 38 ° 0 min 0 W/m² 0,5 °C 1,7 °C 1,6 km/h (1 Bft)
05.12.2023 20:15 21,8 °C 1,7 °C 44 % 92 % 1008,3 hPa 0,0 l/m² 1,1 km/h (1 Bft) NO 38 ° 0 min 0 W/m² 0,5 °C 1,7 °C 3,2 km/h (1 Bft)
05.12.2023 20:17 21,8 °C 1,7 °C 44 % 92 % 1008,3 hPa 0,0 l/m² 0,9 km/h (0 Bft) NO 38 ° 0 min 0 W/m² 0,5 °C 1,7 °C 1,6 km/h (1 Bft)
05.12.2023 20:19 21,8 °C 1,6 °C 44 % 92 % 1008,3 hPa 0,0 l/m² 0,1 km/h (0 Bft) NO 38 ° 0 min 0 W/m² 0,4 °C 1,6 °C 1,6 km/h (1 Bft)
05.12.2023 20:21 21,8 °C 1,6 °C 44 % 92 % 1008,2 hPa 0,0 l/m² 0,6 km/h (0 Bft) NO 38 ° 0 min 0 W/m² 0,4 °C 1,6 °C 3,2 km/h (1 Bft)
05.12.2023 20:23 21,8 °C 1,6 °C 44 % 92 % 1008,3 hPa 0,0 l/m² 0,1 km/h (0 Bft) NO 38 ° 0 min 0 W/m² 0,4 °C 1,6 °C 1,6 km/h (1 Bft)
05.12.2023 20:25 21,8 °C 1,6 °C 44 % 92 % 1008,4 hPa 0,0 l/m² 1,4 km/h (1 Bft) NO 38 ° 0 min 0 W/m² 0,4 °C 1,6 °C 3,2 km/h (1 Bft)
05.12.2023 20:27 21,8 °C 1,6 °C 44 % 92 % 1008,3 hPa 0,0 l/m² 1,3 km/h (1 Bft) NO 38 ° 0 min 0 W/m² 0,4 °C 1,6 °C 3,2 km/h (1 Bft)
05.12.2023 20:29 21,8 °C 1,7 °C 44 % 92 % 1008,3 hPa 0,0 l/m² 2,2 km/h (1 Bft) NO 38 ° 0 min 0 W/m² 0,5 °C 1,7 °C 3,2 km/h (1 Bft)
05.12.2023 20:31 21,8 °C 1,6 °C 44 % 92 % 1008,3 hPa 0,0 l/m² 3,1 km/h (1 Bft) N-NO 29 ° 0 min 0 W/m² 0,4 °C 1,6 °C 6,4 km/h (2 Bft)
05.12.2023 20:33 21,8 °C 1,6 °C 44 % 92 % 1008,2 hPa 0,0 l/m² 2,6 km/h (1 Bft) N-NO 25 ° 0 min 0 W/m² 0,4 °C 1,6 °C 4,8 km/h (1 Bft)
05.12.2023 20:35 21,8 °C 1,6 °C 44 % 92 % 1008,4 hPa 0,2 l/m² 3,2 km/h (1 Bft) N-NO 22 ° 0 min 0 W/m² 0,4 °C 1,6 °C 4,8 km/h (1 Bft)
05.12.2023 20:37 21,8 °C 1,7 °C 44 % 92 % 1008,3 hPa 0,0 l/m² 2,2 km/h (1 Bft) NO 53 ° 0 min 0 W/m² 0,5 °C 1,7 °C 3,2 km/h (1 Bft)
05.12.2023 20:39 21,8 °C 1,7 °C 44 % 92 % 1008,3 hPa 0,0 l/m² 2,9 km/h (1 Bft) NO 42 ° 0 min 0 W/m² 0,5 °C 1,7 °C 4,8 km/h (1 Bft)
05.12.2023 20:41 21,8 °C 1,7 °C 44 % 92 % 1008,4 hPa 0,0 l/m² 2,1 km/h (1 Bft) NO 43 ° 0 min 0 W/m² 0,5 °C 1,7 °C 4,8 km/h (1 Bft)
05.12.2023 20:43 21,8 °C 1,7 °C 44 % 92 % 1008,4 hPa 0,0 l/m² 1,4 km/h (1 Bft) N-NO 32 ° 0 min 0 W/m² 0,5 °C 1,7 °C 3,2 km/h (1 Bft)
05.12.2023 20:45 21,8 °C 1,7 °C 44 % 92 % 1008,4 hPa 0,0 l/m² 2,6 km/h (1 Bft) NO 55 ° 0 min 0 W/m² 0,5 °C 1,7 °C 6,4 km/h (2 Bft)
05.12.2023 20:47 21,8 °C 1,7 °C 45 % 92 % 1008,3 hPa 0,0 l/m² 3,4 km/h (1 Bft) NO 39 ° 0 min 0 W/m² 0,5 °C 1,7 °C 4,8 km/h (1 Bft)
05.12.2023 20:49 21,8 °C 1,7 °C 45 % 92 % 1008,4 hPa 0,0 l/m² 2,0 km/h (1 Bft) NO 53 ° 0 min 0 W/m² 0,5 °C 1,7 °C 3,2 km/h (1 Bft)
05.12.2023 20:51 21,8 °C 1,7 °C 45 % 92 % 1008,3 hPa 0,0 l/m² 2,0 km/h (1 Bft) NO 54 ° 0 min 0 W/m² 0,5 °C 1,7 °C 4,8 km/h (1 Bft)
05.12.2023 20:53 21,8 °C 1,7 °C 45 % 92 % 1008,4 hPa 0,0 l/m² 1,2 km/h (1 Bft) O-NO 57 ° 0 min 0 W/m² 0,5 °C 1,7 °C 3,2 km/h (1 Bft)
05.12.2023 20:55 21,8 °C 1,7 °C 45 % 92 % 1008,3 hPa 0,0 l/m² 1,4 km/h (1 Bft) O-NO 57 ° 0 min 0 W/m² 0,5 °C 1,7 °C 3,2 km/h (1 Bft)
05.12.2023 20:57 21,8 °C 1,7 °C 45 % 92 % 1008,3 hPa 0,0 l/m² 3,9 km/h (1 Bft) O-NO 57 ° 0 min 0 W/m² 0,5 °C 1,7 °C 6,4 km/h (2 Bft)
05.12.2023 20:59 21,8 °C 1,7 °C 45 % 92 % 1008,3 hPa 0,0 l/m² 3,6 km/h (1 Bft) O 82 ° 0 min 0 W/m² 0,5 °C 1,7 °C 6,4 km/h (2 Bft)
05.12.2023 21:01 21,8 °C 1,7 °C 45 % 92 % 1008,3 hPa 0,0 l/m² 4,5 km/h (1 Bft) O-NO 65 ° 0 min 0 W/m² 0,5 °C 1,7 °C 6,4 km/h (2 Bft)
05.12.2023 21:03 21,8 °C 1,7 °C 45 % 92 % 1008,3 hPa 0,0 l/m² 3,2 km/h (1 Bft) O-NO 57 ° 0 min 0 W/m² 0,5 °C 1,7 °C 4,8 km/h (1 Bft)
05.12.2023 21:05 21,8 °C 1,7 °C 45 % 92 % 1008,3 hPa 0,0 l/m² 3,9 km/h (1 Bft) NO 52 ° 0 min 0 W/m² 0,5 °C 1,7 °C 6,4 km/h (2 Bft)
05.12.2023 21:07 21,8 °C 1,7 °C 45 % 92 % 1008,3 hPa 0,0 l/m² 4,2 km/h (1 Bft) O-NO 77 ° 0 min 0 W/m² 0,5 °C 1,7 °C 6,4 km/h (2 Bft)
05.12.2023 21:09 21,8 °C 1,7 °C 45 % 92 % 1008,2 hPa 0,0 l/m² 6,1 km/h (2 Bft) O 80 ° 0 min 0 W/m² 0,5 °C 1,7 °C 8,0 km/h (2 Bft)
05.12.2023 21:11 21,9 °C 1,7 °C 45 % 92 % 1008,3 hPa 0,0 l/m² 6,0 km/h (2 Bft) O 81 ° 0 min 0 W/m² 0,5 °C 1,7 °C 8,0 km/h (2 Bft)
05.12.2023 21:13 21,9 °C 1,7 °C 45 % 92 % 1008,3 hPa 0,0 l/m² 6,3 km/h (2 Bft) O 81 ° 0 min 0 W/m² 0,5 °C 1,7 °C 8,0 km/h (2 Bft)
05.12.2023 21:15 21,9 °C 1,7 °C 45 % 92 % 1008,3 hPa 0,0 l/m² 5,4 km/h (2 Bft) O 92 ° 0 min 0 W/m² 0,5 °C 1,7 °C 6,4 km/h (2 Bft)
05.12.2023 21:17 21,9 °C 1,7 °C 45 % 92 % 1008,4 hPa 0,0 l/m² 4,6 km/h (1 Bft) O-NO 65 ° 0 min 0 W/m² 0,5 °C 1,7 °C 6,4 km/h (2 Bft)
05.12.2023 21:19 21,9 °C 1,7 °C 45 % 92 % 1008,3 hPa 0,0 l/m² 4,4 km/h (1 Bft) O 79 ° 0 min 0 W/m² 0,5 °C 1,7 °C 6,4 km/h (2 Bft)
05.12.2023 21:21 21,9 °C 1,7 °C 45 % 92 % 1008,4 hPa 0,0 l/m² 4,6 km/h (1 Bft) O 82 ° 0 min 0 W/m² 0,5 °C 1,7 °C 8,0 km/h (2 Bft)
05.12.2023 21:23 21,9 °C 1,7 °C 45 % 92 % 1008,4 hPa 0,0 l/m² 4,6 km/h (1 Bft) O 96 ° 0 min 0 W/m² 0,5 °C 1,7 °C 9,7 km/h (2 Bft)
05.12.2023 21:25 21,9 °C 1,7 °C 45 % 92 % 1008,3 hPa 0,0 l/m² 4,1 km/h (1 Bft) O 84 ° 0 min 0 W/m² 0,5 °C 1,7 °C 6,4 km/h (2 Bft)
05.12.2023 21:27 21,9 °C 1,7 °C 45 % 92 % 1008,3 hPa 0,0 l/m² 4,0 km/h (1 Bft) O-NO 75 ° 0 min 0 W/m² 0,5 °C 1,7 °C 6,4 km/h (2 Bft)
05.12.2023 21:29 21,9 °C 1,7 °C 45 % 92 % 1008,3 hPa 0,0 l/m² 3,3 km/h (1 Bft) O-NO 66 ° 0 min 0 W/m² 0,5 °C 1,7 °C 4,8 km/h (1 Bft)
05.12.2023 21:31 21,9 °C 1,7 °C 45 % 92 % 1008,3 hPa 0,2 l/m² 2,3 km/h (1 Bft) O-NO 78 ° 0 min 0 W/m² 0,5 °C 1,7 °C 4,8 km/h (1 Bft)
05.12.2023 21:33 21,9 °C 1,8 °C 45 % 92 % 1008,3 hPa 0,0 l/m² 3,9 km/h (1 Bft) O-NO 72 ° 0 min 0 W/m² 0,6 °C 1,8 °C 6,4 km/h (2 Bft)
05.12.2023 21:35 21,9 °C 1,8 °C 45 % 92 % 1008,3 hPa 0,0 l/m² 3,9 km/h (1 Bft) O-NO 69 ° 0 min 0 W/m² 0,6 °C 1,8 °C 6,4 km/h (2 Bft)
05.12.2023 21:37 21,9 °C 1,8 °C 45 % 92 % 1008,2 hPa 0,0 l/m² 3,4 km/h (1 Bft) O-NO 69 ° 0 min 0 W/m² 0,6 °C 1,8 °C 6,4 km/h (2 Bft)
05.12.2023 21:39 21,9 °C 1,8 °C 45 % 92 % 1008,3 hPa 0,0 l/m² 3,5 km/h (1 Bft) O-NO 70 ° 0 min 0 W/m² 0,6 °C 1,8 °C 6,4 km/h (2 Bft)
05.12.2023 21:41 22,0 °C 1,8 °C 45 % 92 % 1008,3 hPa 0,0 l/m² 4,2 km/h (1 Bft) O-NO 63 ° 0 min 0 W/m² 0,6 °C 1,8 °C 6,4 km/h (2 Bft)
05.12.2023 21:43 21,9 °C 1,8 °C 45 % 92 % 1008,3 hPa 0,0 l/m² 2,6 km/h (1 Bft) O-NO 76 ° 0 min 0 W/m² 0,6 °C 1,8 °C 4,8 km/h (1 Bft)
05.12.2023 21:45 21,9 °C 1,8 °C 45 % 92 % 1008,4 hPa 0,0 l/m² 1,9 km/h (1 Bft) NO 55 ° 0 min 0 W/m² 0,6 °C 1,8 °C 4,8 km/h (1 Bft)
05.12.2023 21:47 22,0 °C 1,8 °C 45 % 92 % 1008,3 hPa 0,0 l/m² 1,7 km/h (1 Bft) O-NO 60 ° 0 min 0 W/m² 0,6 °C 1,8 °C 4,8 km/h (1 Bft)
05.12.2023 21:49 22,0 °C 1,8 °C 45 % 92 % 1008,4 hPa 0,0 l/m² 2,4 km/h (1 Bft) O-NO 74 ° 0 min 0 W/m² 0,6 °C 1,8 °C 4,8 km/h (1 Bft)
05.12.2023 21:51 22,0 °C 1,8 °C 45 % 92 % 1008,5 hPa 0,0 l/m² 1,9 km/h (1 Bft) O-NO 71 ° 0 min 0 W/m² 0,6 °C 1,8 °C 4,8 km/h (1 Bft)
05.12.2023 21:53 22,0 °C 1,8 °C 45 % 92 % 1008,4 hPa 0,0 l/m² 2,8 km/h (1 Bft) O-NO 67 ° 0 min 0 W/m² 0,6 °C 1,8 °C 4,8 km/h (1 Bft)
05.12.2023 21:55 22,0 °C 1,9 °C 45 % 92 % 1008,4 hPa 0,0 l/m² 3,4 km/h (1 Bft) O-NO 73 ° 0 min 0 W/m² 0,7 °C 1,9 °C 4,8 km/h (1 Bft)
05.12.2023 21:57 22,0 °C 1,9 °C 45 % 92 % 1008,5 hPa 0,0 l/m² 3,0 km/h (1 Bft) O-NO 73 ° 0 min 0 W/m² 0,7 °C 1,9 °C 4,8 km/h (1 Bft)
05.12.2023 21:59 22,1 °C 1,9 °C 45 % 92 % 1008,4 hPa 0,0 l/m² 4,4 km/h (1 Bft) O-NO 71 ° 0 min 0 W/m² 0,7 °C 1,9 °C 6,4 km/h (2 Bft)
05.12.2023 22:01 22,0 °C 1,9 °C 45 % 92 % 1008,5 hPa 0,0 l/m² 4,0 km/h (1 Bft) O 79 ° 0 min 0 W/m² 0,7 °C 1,9 °C 6,4 km/h (2 Bft)
05.12.2023 22:03 22,0 °C 1,9 °C 45 % 92 % 1008,4 hPa 0,0 l/m² 3,8 km/h (1 Bft) O 80 ° 0 min 0 W/m² 0,7 °C 1,9 °C 4,8 km/h (1 Bft)
05.12.2023 22:05 22,0 °C 1,8 °C 46 % 92 % 1008,4 hPa 0,0 l/m² 3,5 km/h (1 Bft) O 86 ° 0 min 0 W/m² 0,6 °C 1,8 °C 6,4 km/h (2 Bft)
05.12.2023 22:07 22,0 °C 1,8 °C 46 % 92 % 1008,4 hPa 0,0 l/m² 3,4 km/h (1 Bft) O-NO 78 ° 0 min 0 W/m² 0,6 °C 1,8 °C 4,8 km/h (1 Bft)
05.12.2023 22:09 22,0 °C 1,8 °C 46 % 92 % 1008,3 hPa 0,0 l/m² 3,3 km/h (1 Bft) O-NO 77 ° 0 min 0 W/m² 0,6 °C 1,8 °C 4,8 km/h (1 Bft)
05.12.2023 22:11 22,0 °C 1,8 °C 46 % 92 % 1008,3 hPa 0,0 l/m² 2,7 km/h (1 Bft) O-NO 67 ° 0 min 0 W/m² 0,6 °C 1,8 °C 3,2 km/h (1 Bft)
05.12.2023 22:13 22,1 °C 1,8 °C 46 % 92 % 1008,3 hPa 0,0 l/m² 1,7 km/h (1 Bft) O-NO 69 ° 0 min 0 W/m² 0,6 °C 1,8 °C 3,2 km/h (1 Bft)
05.12.2023 22:15 22,0 °C 1,8 °C 46 % 92 % 1008,3 hPa 0,0 l/m² 1,8 km/h (1 Bft) O-NO 69 ° 0 min 0 W/m² 0,6 °C 1,8 °C 3,2 km/h (1 Bft)
05.12.2023 22:17 22,1 °C 1,8 °C 46 % 92 % 1008,4 hPa 0,0 l/m² 1,8 km/h (1 Bft) O-NO 69 ° 0 min 0 W/m² 0,6 °C 1,8 °C 3,2 km/h (1 Bft)
05.12.2023 22:18 22,1 °C 1,8 °C 46 % 92 % 1008,4 hPa 0,0 l/m² 0,0 km/h (0 Bft) O-NO 69 ° 0 min 0 W/m² 0,6 °C 1,8 °C 0,0 km/h (0 Bft)
05.12.2023 22:19 22,1 °C 1,8 °C 46 % 92 % 1008,4 hPa 0,0 l/m² 0,5 km/h (0 Bft) O-NO 69 ° 0 min 0 W/m² 0,6 °C 1,8 °C 1,6 km/h (1 Bft)
05.12.2023 22:20 22,0 °C 1,8 °C 46 % 92 % 1008,3 hPa 0,0 l/m² 0,0 km/h (0 Bft) O-NO 69 ° 0 min 0 W/m² 0,6 °C 1,8 °C 0,0 km/h (0 Bft)
05.12.2023 22:21 22,0 °C 1,8 °C 46 % 92 % 1008,3 hPa 0,0 l/m² 0,0 km/h (0 Bft) O-NO 69 ° 0 min 0 W/m² 0,6 °C 1,8 °C 0,0 km/h (0 Bft)
05.12.2023 22:22 22,1 °C 1,8 °C 46 % 92 % 1008,3 hPa 0,0 l/m² 0,3 km/h (0 Bft) O-NO 69 ° 0 min 0 W/m² 0,6 °C 1,8 °C 1,6 km/h (1 Bft)
05.12.2023 22:23 22,1 °C 1,8 °C 46 % 92 % 1008,3 hPa 0,0 l/m² 0,5 km/h (0 Bft) O-NO 69 ° 0 min 0 W/m² 0,6 °C 1,8 °C 1,6 km/h (1 Bft)
05.12.2023 22:24 22,1 °C 1,8 °C 46 % 92 % 1008,3 hPa 0,0 l/m² 0,1 km/h (0 Bft) O-NO 69 ° 0 min 0 W/m² 0,6 °C 1,8 °C 1,6 km/h (1 Bft)
05.12.2023 22:25 22,0 °C 1,8 °C 46 % 92 % 1008,3 hPa 0,0 l/m² 1,2 km/h (1 Bft) O-NO 69 ° 0 min 0 W/m² 0,6 °C 1,8 °C 3,2 km/h (1 Bft)
05.12.2023 22:26 22,1 °C 1,8 °C 46 % 92 % 1008,3 hPa 0,0 l/m² 1,3 km/h (1 Bft) O-NO 69 ° 0 min 0 W/m² 0,6 °C 1,8 °C 3,2 km/h (1 Bft)
05.12.2023 22:27 22,1 °C 1,8 °C 46 % 92 % 1008,4 hPa 0,0 l/m² 2,5 km/h (1 Bft) O-NO 57 ° 0 min 0 W/m² 0,6 °C 1,8 °C 4,8 km/h (1 Bft)
05.12.2023 22:28 22,0 °C 1,8 °C 46 % 92 % 1008,4 hPa 0,0 l/m² 1,1 km/h (1 Bft) NO 55 ° 0 min 0 W/m² 0,6 °C 1,8 °C 3,2 km/h (1 Bft)
05.12.2023 22:29 22,0 °C 1,8 °C 46 % 92 % 1008,3 hPa 0,0 l/m² 2,3 km/h (1 Bft) O-NO 62 ° 0 min 0 W/m² 0,6 °C 1,8 °C 4,8 km/h (1 Bft)
05.12.2023 22:30 22,0 °C 1,8 °C 46 % 92 % 1008,3 hPa 0,0 l/m² 3,6 km/h (1 Bft) O-NO 57 ° 0 min 0 W/m² 0,6 °C 1,8 °C 6,4 km/h (2 Bft)
05.12.2023 22:31 22,0 °C 1,8 °C 46 % 92 % 1008,3 hPa 0,0 l/m² 2,1 km/h (1 Bft) O-NO 57 ° 0 min 0 W/m² 0,6 °C 1,8 °C 3,2 km/h (1 Bft)
05.12.2023 22:32 22,0 °C 1,8 °C 46 % 92 % 1008,3 hPa 0,0 l/m² 1,5 km/h (1 Bft) NO 55 ° 0 min 0 W/m² 0,6 °C 1,8 °C 3,2 km/h (1 Bft)
05.12.2023 22:33 22,1 °C 1,8 °C 46 % 92 % 1008,3 hPa 0,0 l/m² 1,6 km/h (1 Bft) O-NO 57 ° 0 min 0 W/m² 0,6 °C 1,8 °C 3,2 km/h (1 Bft)
05.12.2023 22:34 22,0 °C 1,8 °C 46 % 92 % 1008,4 hPa 0,0 l/m² 0,2 km/h (0 Bft) O-NO 57 ° 0 min 0 W/m² 0,6 °C 1,8 °C 1,6 km/h (1 Bft)
05.12.2023 22:35 22,0 °C 1,8 °C 46 % 92 % 1008,3 hPa 0,0 l/m² 1,9 km/h (1 Bft) O-NO 57 ° 0 min 0 W/m² 0,6 °C 1,8 °C 3,2 km/h (1 Bft)
05.12.2023 22:36 22,0 °C 1,8 °C 46 % 92 % 1008,2 hPa 0,2 l/m² 0,6 km/h (0 Bft) O-NO 57 ° 0 min 0 W/m² 0,6 °C 1,8 °C 3,2 km/h (1 Bft)
05.12.2023 22:37 22,0 °C 1,8 °C 46 % 92 % 1008,3 hPa 0,0 l/m² 0,4 km/h (0 Bft) O-NO 57 ° 0 min 0 W/m² 0,6 °C 1,8 °C 1,6 km/h (1 Bft)
05.12.2023 22:38 22,0 °C 1,8 °C 46 % 92 % 1008,2 hPa 0,0 l/m² 1,1 km/h (1 Bft) O-NO 57 ° 0 min 0 W/m² 0,6 °C 1,8 °C 3,2 km/h (1 Bft)
05.12.2023 22:39 22,0 °C 1,8 °C 46 % 92 % 1008,2 hPa 0,0 l/m² 0,4 km/h (0 Bft) O-NO 57 ° 0 min 0 W/m² 0,6 °C 1,8 °C 1,6 km/h (1 Bft)
05.12.2023 22:40 22,0 °C 1,8 °C 46 % 92 % 1008,3 hPa 0,0 l/m² 2,3 km/h (1 Bft) NO 56 ° 0 min 0 W/m² 0,6 °C 1,8 °C 3,2 km/h (1 Bft)
05.12.2023 22:41 22,0 °C 1,8 °C 46 % 92 % 1008,2 hPa 0,0 l/m² 1,8 km/h (1 Bft) NO 56 ° 0 min 0 W/m² 0,6 °C 1,8 °C 3,2 km/h (1 Bft)
05.12.2023 22:42 22,0 °C 1,8 °C 46 % 92 % 1008,3 hPa 0,0 l/m² 2,3 km/h (1 Bft) O-NO 57 ° 0 min 0 W/m² 0,6 °C 1,8 °C 4,8 km/h (1 Bft)
05.12.2023 22:43 21,9 °C 1,8 °C 46 % 92 % 1008,3 hPa 0,0 l/m² 2,4 km/h (1 Bft) O-NO 57 ° 0 min 0 W/m² 0,6 °C 1,8 °C 3,2 km/h (1 Bft)
05.12.2023 22:44 21,9 °C 1,8 °C 46 % 92 % 1008,3 hPa 0,0 l/m² 0,5 km/h (0 Bft) O-NO 57 ° 0 min 0 W/m² 0,6 °C 1,8 °C 1,6 km/h (1 Bft)
05.12.2023 22:45 22,0 °C 1,8 °C 46 % 92 % 1008,3 hPa 0,0 l/m² 1,7 km/h (1 Bft) O-NO 69 ° 0 min 0 W/m² 0,6 °C 1,8 °C 3,2 km/h (1 Bft)
05.12.2023 22:46 21,9 °C 1,8 °C 46 % 92 % 1008,3 hPa 0,0 l/m² 2,6 km/h (1 Bft) O-NO 69 ° 0 min 0 W/m² 0,6 °C 1,8 °C 4,8 km/h (1 Bft)
05.12.2023 22:47 22,0 °C 1,8 °C 46 % 92 % 1008,3 hPa 0,0 l/m² 1,9 km/h (1 Bft) O-NO 69 ° 0 min 0 W/m² 0,6 °C 1,8 °C 4,8 km/h (1 Bft)
05.12.2023 22:48 22,0 °C 1,8 °C 46 % 92 % 1008,3 hPa 0,0 l/m² 1,1 km/h (1 Bft) O-NO 69 ° 0 min 0 W/m² 0,6 °C 1,8 °C 3,2 km/h (1 Bft)
05.12.2023 22:49 22,0 °C 1,8 °C 46 % 92 % 1008,3 hPa 0,0 l/m² 2,4 km/h (1 Bft) O-NO 69 ° 0 min 0 W/m² 0,6 °C 1,8 °C 3,2 km/h (1 Bft)
05.12.2023 22:50 21,9 °C 1,8 °C 46 % 92 % 1008,4 hPa 0,0 l/m² 1,4 km/h (1 Bft) O-NO 69 ° 0 min 0 W/m² 0,6 °C 1,8 °C 3,2 km/h (1 Bft)
05.12.2023 22:51 21,9 °C 1,8 °C 46 % 92 % 1008,3 hPa 0,0 l/m² 0,7 km/h (0 Bft) O-NO 69 ° 0 min 0 W/m² 0,6 °C 1,8 °C 1,6 km/h (1 Bft)
05.12.2023 22:52 21,9 °C 1,8 °C 46 % 92 % 1008,3 hPa 0,0 l/m² 0,9 km/h (0 Bft) O-NO 69 ° 0 min 0 W/m² 0,6 °C 1,8 °C 1,6 km/h (1 Bft)
05.12.2023 22:53 21,9 °C 1,8 °C 46 % 92 % 1008,3 hPa 0,0 l/m² 0,4 km/h (0 Bft) O-NO 69 ° 0 min 0 W/m² 0,6 °C 1,8 °C 1,6 km/h (1 Bft)
05.12.2023 22:54 21,9 °C 1,8 °C 46 % 92 % 1008,4 hPa 0,0 l/m² 1,2 km/h (1 Bft) O-NO 69 ° 0 min 0 W/m² 0,6 °C 1,8 °C 3,2 km/h (1 Bft)
05.12.2023 22:55 21,9 °C 1,8 °C 46 % 92 % 1008,4 hPa 0,0 l/m² 1,1 km/h (1 Bft) O-NO 69 ° 0 min 0 W/m² 0,6 °C 1,8 °C 1,6 km/h (1 Bft)
05.12.2023 22:56 21,9 °C 1,8 °C 46 % 92 % 1008,4 hPa 0,0 l/m² 0,2 km/h (0 Bft) O-NO 69 ° 0 min 0 W/m² 0,6 °C 1,8 °C 1,6 km/h (1 Bft)
05.12.2023 22:57 21,9 °C 1,8 °C 46 % 92 % 1008,4 hPa 0,0 l/m² 0,9 km/h (0 Bft) O-NO 69 ° 0 min 0 W/m² 0,6 °C 1,8 °C 3,2 km/h (1 Bft)
05.12.2023 22:58 21,9 °C 1,8 °C 46 % 92 % 1008,4 hPa 0,0 l/m² 0,3 km/h (0 Bft) O-NO 69 ° 0 min 0 W/m² 0,6 °C 1,8 °C 1,6 km/h (1 Bft)
05.12.2023 22:59 21,9 °C 1,8 °C 46 % 92 % 1008,4 hPa 0,0 l/m² 0,2 km/h (0 Bft) O-NO 68 ° 0 min 0 W/m² 0,6 °C 1,8 °C 1,6 km/h (1 Bft)
05.12.2023 23:00 21,9 °C 1,8 °C 46 % 92 % 1008,4 hPa 0,0 l/m² 0,1 km/h (0 Bft) O-NO 68 ° 0 min 0 W/m² 0,6 °C 1,8 °C 1,6 km/h (1 Bft)
05.12.2023 23:01 21,9 °C 1,8 °C 46 % 92 % 1008,4 hPa 0,0 l/m² 0,1 km/h (0 Bft) O-NO 68 ° 0 min 0 W/m² 0,6 °C 1,8 °C 1,6 km/h (1 Bft)
05.12.2023 23:02 21,9 °C 1,8 °C 46 % 92 % 1008,4 hPa 0,0 l/m² 1,9 km/h (1 Bft) O 84 ° 0 min 0 W/m² 0,6 °C 1,8 °C 4,8 km/h (1 Bft)
05.12.2023 23:03 21,9 °C 1,8 °C 46 % 92 % 1008,4 hPa 0,0 l/m² 1,9 km/h (1 Bft) O 80 ° 0 min 0 W/m² 0,6 °C 1,8 °C 4,8 km/h (1 Bft)
05.12.2023 23:04 21,9 °C 1,8 °C 46 % 92 % 1008,4 hPa 0,0 l/m² 1,2 km/h (1 Bft) O 80 ° 0 min 0 W/m² 0,6 °C 1,8 °C 3,2 km/h (1 Bft)
05.12.2023 23:05 21,9 °C 1,8 °C 46 % 92 % 1008,5 hPa 0,0 l/m² 0,7 km/h (0 Bft) O 80 ° 0 min 0 W/m² 0,6 °C 1,8 °C 1,6 km/h (1 Bft)
05.12.2023 23:06 21,9 °C 1,8 °C 46 % 92 % 1008,5 hPa 0,0 l/m² 0,5 km/h (0 Bft) O 80 ° 0 min 0 W/m² 0,6 °C 1,8 °C 3,2 km/h (1 Bft)
05.12.2023 23:07 21,9 °C 1,8 °C 46 % 92 % 1008,4 hPa 0,0 l/m² 1,8 km/h (1 Bft) O-NO 77 ° 0 min 0 W/m² 0,6 °C 1,8 °C 3,2 km/h (1 Bft)
05.12.2023 23:08 21,9 °C 1,8 °C 46 % 92 % 1008,4 hPa 0,0 l/m² 0,3 km/h (0 Bft) O-NO 76 ° 0 min 0 W/m² 0,6 °C 1,8 °C 3,2 km/h (1 Bft)
05.12.2023 23:09 21,9 °C 1,8 °C 46 % 92 % 1008,4 hPa 0,0 l/m² 0,0 km/h (0 Bft) O-NO 76 ° 0 min 0 W/m² 0,6 °C 1,8 °C 0,0 km/h (0 Bft)
05.12.2023 23:10 21,9 °C 1,8 °C 46 % 92 % 1008,4 hPa 0,0 l/m² 0,2 km/h (0 Bft) O-NO 76 ° 0 min 0 W/m² 0,6 °C 1,8 °C 1,6 km/h (1 Bft)
05.12.2023 23:12 21,9 °C 1,8 °C 46 % 92 % 1008,4 hPa 0,0 l/m² 0,0 km/h (0 Bft) O-NO 76 ° 0 min 0 W/m² 0,6 °C 1,8 °C 0,0 km/h (0 Bft)
05.12.2023 23:13 21,9 °C 1,8 °C 46 % 92 % 1008,4 hPa 0,0 l/m² 0,1 km/h (0 Bft) O-NO 76 ° 0 min 0 W/m² 0,6 °C 1,8 °C 1,6 km/h (1 Bft)
05.12.2023 23:14 21,9 °C 1,8 °C 46 % 92 % 1008,4 hPa 0,0 l/m² 0,1 km/h (0 Bft) O-NO 76 ° 0 min 0 W/m² 0,6 °C 1,8 °C 1,6 km/h (1 Bft)
05.12.2023 23:15 21,8 °C 1,8 °C 46 % 92 % 1008,4 hPa 0,0 l/m² 0,0 km/h (0 Bft) O-NO 76 ° 0 min 0 W/m² 0,6 °C 1,8 °C 0,0 km/h (0 Bft)
05.12.2023 23:16 21,9 °C 1,8 °C 46 % 92 % 1008,4 hPa 0,0 l/m² 0,0 km/h (0 Bft) O-NO 67 ° 0 min 0 W/m² 0,6 °C 1,8 °C 1,6 km/h (1 Bft)
05.12.2023 23:17 21,8 °C 1,8 °C 46 % 92 % 1008,5 hPa 0,0 l/m² 1,6 km/h (1 Bft) O-NO 67 ° 0 min 0 W/m² 0,6 °C 1,8 °C 3,2 km/h (1 Bft)
05.12.2023 23:23 21,8 °C 1,8 °C 46 % 92 % 1008,4 hPa 0,0 l/m² 0,0 km/h (0 Bft) O-SO 104 ° 0 min 0 W/m² 0,6 °C 1,8 °C 0,0 km/h (0 Bft)
05.12.2023 23:25 21,8 °C 1,8 °C 46 % 92 % 1008,4 hPa 0,0 l/m² 0,0 km/h (0 Bft) O-SO 104 ° 0 min 0 W/m² 0,6 °C 1,8 °C 0,0 km/h (0 Bft)
05.12.2023 23:26 21,8 °C 1,8 °C 46 % 92 % 1008,4 hPa 0,0 l/m² 0,0 km/h (0 Bft) O-SO 104 ° 0 min 0 W/m² 0,6 °C 1,8 °C 0,0 km/h (0 Bft)
05.12.2023 23:28 21,8 °C 1,8 °C 47 % 92 % 1008,5 hPa 0,0 l/m² 0,0 km/h (0 Bft) O-SO 104 ° 0 min 0 W/m² 0,6 °C 1,8 °C 0,0 km/h (0 Bft)
05.12.2023 23:30 21,8 °C 1,8 °C 47 % 92 % 1008,5 hPa 0,0 l/m² 0,2 km/h (0 Bft) O-SO 104 ° 0 min 0 W/m² 0,6 °C 1,8 °C 1,6 km/h (1 Bft)
05.12.2023 23:31 21,8 °C 1,8 °C 47 % 92 % 1008,5 hPa 0,0 l/m² 0,9 km/h (0 Bft) O-SO 104 ° 0 min 0 W/m² 0,6 °C 1,8 °C 3,2 km/h (1 Bft)
05.12.2023 23:32 21,8 °C 1,9 °C 47 % 92 % 1008,5 hPa 0,0 l/m² 1,1 km/h (1 Bft) O-SO 109 ° 0 min 0 W/m² 0,7 °C 1,9 °C 3,2 km/h (1 Bft)
05.12.2023 23:34 21,8 °C 1,8 °C 47 % 92 % 1008,5 hPa 0,0 l/m² 1,8 km/h (1 Bft) O-SO 109 ° 0 min 0 W/m² 0,6 °C 1,8 °C 3,2 km/h (1 Bft)
05.12.2023 23:35 21,8 °C 1,9 °C 47 % 92 % 1008,5 hPa 0,0 l/m² 1,0 km/h (0 Bft) O-SO 109 ° 0 min 0 W/m² 0,7 °C 1,9 °C 3,2 km/h (1 Bft)
05.12.2023 23:37 21,8 °C 1,9 °C 47 % 92 % 1008,5 hPa 0,0 l/m² 0,6 km/h (0 Bft) O-SO 107 ° 0 min 0 W/m² 0,7 °C 1,9 °C 4,8 km/h (1 Bft)
05.12.2023 23:39 21,8 °C 1,9 °C 47 % 92 % 1008,6 hPa 0,0 l/m² 2,1 km/h (1 Bft) O 99 ° 0 min 0 W/m² 0,7 °C 1,9 °C 4,8 km/h (1 Bft)
05.12.2023 23:40 21,8 °C 1,9 °C 47 % 92 % 1008,6 hPa 0,0 l/m² 0,4 km/h (0 Bft) O 99 ° 0 min 0 W/m² 0,7 °C 1,9 °C 3,2 km/h (1 Bft)
05.12.2023 23:41 21,8 °C 1,9 °C 47 % 92 % 1008,6 hPa 0,0 l/m² 4,2 km/h (1 Bft) O 95 ° 0 min 0 W/m² 0,7 °C 1,9 °C 6,4 km/h (2 Bft)
05.12.2023 23:42 21,8 °C 1,9 °C 47 % 92 % 1008,6 hPa 0,0 l/m² 2,9 km/h (1 Bft) SO 128 ° 0 min 0 W/m² 0,7 °C 1,9 °C 4,8 km/h (1 Bft)
05.12.2023 23:44 21,7 °C 1,9 °C 47 % 92 % 1008,6 hPa 0,0 l/m² 3,7 km/h (1 Bft) O-SO 113 ° 0 min 0 W/m² 0,7 °C 1,9 °C 8,0 km/h (2 Bft)
05.12.2023 23:45 21,8 °C 1,9 °C 47 % 92 % 1008,6 hPa 0,2 l/m² 2,5 km/h (1 Bft) O-SO 108 ° 0 min 0 W/m² 0,7 °C 1,9 °C 4,8 km/h (1 Bft)
05.12.2023 23:47 21,7 °C 1,9 °C 47 % 92 % 1008,7 hPa 0,0 l/m² 4,0 km/h (1 Bft) O-SO 105 ° 0 min 0 W/m² 0,7 °C 1,9 °C 6,4 km/h (2 Bft)
05.12.2023 23:49 21,8 °C 2,0 °C 47 % 92 % 1008,6 hPa 0,0 l/m² 3,9 km/h (1 Bft) O-SO 105 ° 0 min 0 W/m² 0,8 °C 2,0 °C 4,8 km/h (1 Bft)
05.12.2023 23:50 21,7 °C 2,0 °C 47 % 92 % 1008,6 hPa 0,0 l/m² 2,2 km/h (1 Bft) O-SO 108 ° 0 min 0 W/m² 0,8 °C 2,0 °C 3,2 km/h (1 Bft)
05.12.2023 23:51 21,7 °C 2,0 °C 47 % 92 % 1008,7 hPa 0,0 l/m² 2,4 km/h (1 Bft) O-SO 112 ° 0 min 0 W/m² 0,8 °C 2,0 °C 4,8 km/h (1 Bft)
05.12.2023 23:52 21,7 °C 2,0 °C 47 % 92 % 1008,7 hPa 0,0 l/m² 2,9 km/h (1 Bft) O 98 ° 0 min 0 W/m² 0,8 °C 2,0 °C 4,8 km/h (1 Bft)
05.12.2023 23:54 21,7 °C 2,1 °C 47 % 92 % 1008,6 hPa 0,0 l/m² 4,7 km/h (1 Bft) O-SO 105 ° 0 min 0 W/m² 0,9 °C 2,1 °C 9,7 km/h (2 Bft)
05.12.2023 23:55 21,7 °C 2,1 °C 47 % 92 % 1008,6 hPa 0,0 l/m² 4,5 km/h (1 Bft) O-SO 115 ° 0 min 0 W/m² 0,9 °C 2,1 °C 6,4 km/h (2 Bft)
05.12.2023 23:57 21,7 °C 2,1 °C 47 % 92 % 1008,6 hPa 0,0 l/m² 3,1 km/h (1 Bft) O-SO 111 ° 0 min 0 W/m² 0,9 °C 2,1 °C 6,4 km/h (2 Bft)
05.12.2023 23:59 21,7 °C 2,1 °C 47 % 92 % 1008,6 hPa 0,0 l/m² 3,6 km/h (1 Bft) O-SO 113 ° 0 min 0 W/m² 0,9 °C 2,1 °C 6,4 km/h (2 Bft)
_ Min-Zeit 23:59 01:29 15:34 05:16 14:46 - 23:28 - - - - 01:29 07:21 23:28
Minimum _ 21,7 °C -1,3 °C 39 % 84 % 1006,5 hPa - 0,0 km/h (0 Bft) - - - - -3,3 °C -11,5 °C 0,0 km/h (0 Bft)
_ Max-Zeit 11:07 15:36 23:59 23:59 00:04 23:45 07:21 - - 14:48 12:26 23:59 15:20 07:21
Maximum _ 22,3 °C 2,5 °C 47 % 92 % 1009,3 hPa 0,2 l/m² 22,2 km/h
O-SO (4 Bft)
- - 2 min 216 W/m² 0,9 °C 2,5 °C 27,4 km/h
O-SO (5 Bft)
Durchschnitt _ 22,1 °C 0,8 °C 45 % 89 % 1007,4 hPa #6,4 l/m² 8,4 km/h (2 Bft) O - #5:24 h 28 W/m² -0,8 °C -2,1 °C 11,7 km/h (2 Bft)
© 2009 Mathias Hoßbach